GFSSW_sfc_thetae_000.txt.gz
Theta_e
321 321 321 321 321 321 322 322 322 322 322 323 323 324 324 324 323 309 301 310 313 330 319 308 306 304 303 301 300 296 289 285 288 288 291 293 293 297 294 294 293 297 295 296 296
321 320 320 321 321 321 321 321 321 321 322 322 322 323 323 323 310 304 316 327 332 329 307 304 302 302 298 299 299 296 287 289 291 291 292 293 293 294 296 293 292 294 295 294 295
320 320 320 320 321 321 321 320 320 320 321 321 322 322 322 319 298 298 326 330 334 324 308 304 303 301 296 299 298 294 292 292 295 296 296 295 293 294 292 293 294 295 296 295 294
320 320 320 320 320 321 321 320 320 320 320 320 321 321 321 309 290 299 330 333 333 309 306 302 300 297 295 295 298 293 296 296 296 297 295 295 295 293 294 300 299 297 297 294 294
321 321 321 320 321 321 321 320 321 320 320 320 320 320 308 294 298 311 329 329 312 307 303 300 298 296 293 294 294 293 295 298 298 296 297 296 297 295 293 298 298 297 295 295 294
322 321 321 321 321 321 321 321 321 320 320 320 320 319 299 291 302 315 316 311 307 303 300 300 298 299 295 294 294 293 294 295 295 296 296 296 298 295 297 296 297 295 295 294 293
322 322 321 321 321 321 321 321 321 320 320 320 319 315 299 297 304 310 310 306 305 303 299 299 299 297 294 292 294 294 292 292 292 293 293 294 292 291 299 295 296 295 294 294 294
322 321 320 320 320 320 320 321 321 320 320 320 319 307 292 302 304 304 303 300 301 300 299 299 299 297 294 294 292 288 288 285 289 291 292 293 286 295 294 291 293 294 294 294 296
321 320 320 320 320 319 320 320 319 319 318 318 307 296 292 307 301 302 302 299 299 299 299 303 298 294 292 288 286 284 282 283 287 292 291 290 287 293 292 292 293 293 295 295 298
320 319 319 319 319 319 320 318 317 315 316 316 308 293 296 295 301 301 300 301 298 297 296 295 292 289 287 286 281 282 281 283 283 289 287 287 288 293 295 293 293 294 296 297 298
320 320 320 320 320 320 310 303 296 293 300 296 296 293 294 300 302 299 301 300 297 293 290 290 287 286 289 288 288 283 283 283 286 290 286 289 290 292 293 293 295 296 296 296 298
321 320 320 320 319 316 303 299 296 298 291 297 297 298 298 300 295 298 300 296 293 290 289 287 285 291 290 288 287 285 285 286 289 291 286 287 288 292 293 294 295 295 296 296 297
320 320 319 319 317 307 299 298 303 301 290 293 295 294 295 298 294 295 298 294 291 288 288 288 290 292 289 286 286 284 283 286 285 286 286 284 285 286 290 290 293 294 296 294 294
321 320 319 318 310 303 300 302 304 299 287 290 290 293 296 295 289 294 295 293 289 289 287 287 290 290 286 286 287 285 288 288 286 282 280 284 280 283 288 289 290 292 291 292 293
319 320 319 316 307 304 303 304 301 293 282 293 290 297 295 291 289 290 293 292 288 288 287 286 285 285 285 288 288 287 288 286 283 281 280 280 278 283 284 286 289 291 292 291 292
317 318 317 312 308 307 305 303 296 288 284 290 289 289 289 290 289 290 290 291 289 286 286 287 287 288 289 288 289 287 285 283 281 281 276 282 280 286 283 285 287 291 295 292 292
313 315 315 313 309 307 305 304 294 287 294 289 286 288 286 286 288 287 287 286 286 283 282 284 285 286 288 285 285 285 282 276 274 273 276 280 278 286 289 292 290 290 291 291 291
310 313 314 314 311 308 308 300 287 291 291 292 291 289 289 289 290 287 284 284 286 284 281 282 285 285 287 287 285 283 284 278 274 272 280 278 278 288 291 291 291 289 290 289 290
309 313 313 314 309 311 304 291 290 290 294 293 294 289 288 288 290 285 283 284 288 287 287 281 282 285 286 286 287 282 281 286 281 283 277 283 284 289 293 288 287 287 288 289 291
300 307 309 313 310 308 298 292 292 297 297 296 291 294 287 287 287 286 286 286 287 288 289 288 283 287 285 285 286 285 286 280 279 275 274 279 281 284 289 292 290 289 288 292 291
300 299 304 310 311 301 291 292 297 300 300 296 294 294 293 291 291 291 292 292 289 288 288 288 287 285 285 283 285 284 282 282 282 282 278 277 282 290 292 293 288 289 291 291 288
300 291 307 311 296 297 293 295 298 297 299 297 297 296 293 293 291 291 290 293 294 293 288 289 290 285 286 288 288 286 287 286 281 280 281 281 281 292 291 292 289 285 286 287 287
294 293 307 307 289 291 295 294 297 296 296 296 294 296 296 293 289 292 292 295 296 294 292 293 287 281 282 284 286 285 288 288 288 285 281 278 280 293 290 282 284 282 281 283 284
292 284 294 299 296 293 290 290 291 296 296 297 295 296 293 291 293 290 290 292 291 292 295 294 287 285 280 282 286 285 287 288 287 282 282 282 284 288 279 279 279 281 280 281 282
286 284 288 282 287 290 291 289 287 287 292 294 292 291 290 287 288 288 290 290 289 291 289 290 284 286 286 288 286 284 283 283 281 283 280 282 283 281 275 277 278 281 281 281 281
282 283 285 283 285 285 286 285 286 287 288 287 287 288 289 286 287 285 286 284 284 286 286 288 280 281 277 281 280 279 281 281 282 281 282 282 279 277 278 280 279 280 280 279 281
285 286 287 282 281 279 279 282 283 284 285 285 283 285 284 285 286 285 285 284 284 282 281 282 280 277 273 278 277 272 277 279 280 282 278 275 273 275 275 277 277 279 281 279 280

GFSSW_sfc_thetae_003.txt.gz
Theta_e
321 321 322 322 322 322 322 322 322 322 322 323 323 323 323 323 322 312 301 310 313 331 319 309 308 306 306 304 303 300 292 288 291 291 294 297 296 297 298 298 298 300 300 302 301
321 321 322 322 322 322 322 321 321 321 322 322 322 323 323 322 310 304 315 326 333 327 307 305 303 303 301 302 302 298 291 291 293 293 295 297 296 298 298 297 296 298 299 299 301
321 321 321 322 322 322 322 322 321 321 321 321 321 322 322 318 298 298 326 329 334 321 307 305 304 303 299 300 300 297 294 294 295 295 297 297 296 298 296 296 298 298 300 299 299
322 322 322 322 322 323 322 322 322 321 321 321 321 321 321 309 291 298 328 334 332 309 306 303 302 299 297 296 299 295 297 296 298 298 297 297 297 296 296 302 303 300 300 299 298
322 322 322 322 322 323 322 322 322 322 321 321 321 320 309 293 297 314 331 331 310 307 304 301 299 298 295 295 296 295 296 298 298 297 298 298 298 297 296 300 300 299 298 298 297
323 322 322 322 322 323 322 322 322 322 321 321 321 319 297 291 302 319 318 310 307 304 302 301 300 300 296 295 296 295 296 295 295 296 296 296 298 296 298 299 299 297 299 298 296
323 322 322 322 322 322 322 322 322 321 321 321 320 314 297 296 305 312 311 306 306 303 300 300 300 299 297 293 296 294 292 292 292 293 294 295 292 292 299 296 297 299 297 296 296
322 321 321 321 321 321 322 322 321 320 320 320 319 306 291 302 305 306 302 300 302 301 300 299 300 298 296 296 293 289 289 286 291 292 292 294 289 295 296 294 294 295 297 295 299
321 320 320 320 320 320 321 321 318 318 317 318 304 294 292 308 300 301 301 299 299 299 300 301 299 294 293 289 286 286 283 284 287 292 291 291 288 293 294 293 293 295 297 299 300
320 320 320 320 320 320 320 316 317 315 315 315 307 292 296 295 301 301 300 300 298 298 297 296 292 290 287 286 282 283 282 283 284 290 288 288 288 293 294 294 295 296 297 297 298
321 321 321 320 320 320 309 301 297 294 298 295 295 293 293 299 302 299 301 299 297 294 290 291 287 286 289 288 287 285 283 282 285 289 287 289 289 291 294 292 294 296 297 297 297
322 321 321 320 320 316 302 298 296 297 290 297 297 298 298 299 295 297 300 296 294 290 289 287 286 291 290 288 287 286 284 285 287 290 286 287 288 292 294 294 295 296 296 295 295
321 321 321 320 318 307 299 298 304 301 289 294 295 294 295 298 294 294 298 294 291 288 287 287 289 291 289 286 286 284 284 286 285 286 286 284 284 286 291 291 293 294 294 294 294
321 321 320 320 311 303 301 303 303 298 288 292 291 292 295 294 289 294 295 293 290 289 287 287 290 289 286 287 287 284 288 287 285 283 280 285 279 284 289 290 291 292 292 292 293
318 319 320 318 309 305 303 303 302 293 285 293 289 297 295 290 289 291 293 292 287 288 287 287 287 285 285 288 288 286 287 285 284 282 281 281 278 283 286 287 289 291 293 293 293
313 316 316 313 310 307 304 303 296 292 285 292 289 288 288 289 289 290 291 291 289 287 286 287 288 288 288 287 288 287 285 283 282 282 277 282 281 283 284 287 288 291 294 292 293
309 311 316 315 310 306 305 306 293 287 295 291 286 287 285 284 287 287 287 286 285 283 283 284 285 286 287 285 285 286 283 277 275 274 276 280 279 284 288 292 290 292 291 291 292
307 310 315 314 310 306 308 300 287 291 292 293 292 290 289 289 288 287 285 284 286 284 281 283 285 286 287 288 285 283 284 280 274 275 280 278 280 288 290 292 291 289 289 291 290
307 309 311 314 309 311 304 290 288 290 294 293 294 288 286 288 290 286 284 284 287 287 287 282 281 284 285 286 288 282 281 286 281 280 279 283 285 291 294 289 288 287 285 285 286
299 303 306 313 310 308 298 292 292 295 297 296 289 293 286 289 290 288 288 288 287 289 292 288 284 286 286 286 285 285 286 280 279 273 274 280 282 284 289 285 283 283 282 283 284
299 296 303 311 311 301 289 291 295 300 300 296 294 293 293 292 291 289 292 292 291 288 289 287 286 285 286 283 283 282 281 282 282 281 277 276 281 289 281 281 281 280 280 281 282
297 288 307 311 297 297 292 294 297 296 298 297 297 295 292 292 291 290 289 292 294 290 287 289 288 281 284 289 287 286 286 287 281 280 280 282 281 281 280 280 280 277 279 281 282
292 292 306 307 288 291 293 294 297 294 295 296 294 295 294 291 288 291 292 294 295 294 291 292 285 279 280 284 286 285 286 287 287 285 281 278 281 282 279 279 280 281 280 280 282
288 283 292 299 295 292 289 289 289 294 294 296 294 294 291 289 292 289 290 293 291 292 294 294 287 285 279 280 284 283 284 286 285 281 281 282 284 285 277 277 278 280 281 280 281
284 282 288 284 285 287 289 288 285 285 291 291 289 290 288 286 286 286 289 289 290 291 288 289 283 285 285 286 284 282 281 280 278 280 277 280 279 284 274 276 278 279 282 280 279
281 280 283 284 285 283 287 284 285 286 287 286 285 286 286 284 286 284 287 286 286 284 283 286 281 279 274 280 280 278 279 280 279 279 280 280 280 276 278 278 277 277 281 279 278
283 285 284 280 280 279 278 282 281 283 284 281 281 282 281 282 284 284 285 284 284 282 282 282 280 276 274 277 276 272 275 278 278 280 278 275 273 273 274 276 276 276 281 278 278

GFSSW_sfc_thetae_006.txt.gz
Theta_e
322 322 323 323 323 323 323 322 322 322 322 323 323 323 324 324 322 317 306 313 317 330 322 315 315 313 314 311 310 308 302 298 298 298 300 305 303 304 306 305 305 307 309 312 309
322 322 322 323 323 323 323 323 322 322 322 322 322 322 323 322 315 309 321 325 332 327 314 312 310 311 309 309 310 307 301 300 303 303 302 304 304 305 304 306 307 307 310 310 308
322 322 322 322 323 323 323 323 322 322 322 322 322 322 322 321 307 305 326 330 333 322 314 312 312 310 306 308 308 306 301 304 303 304 303 303 304 305 304 303 307 306 309 311 309
322 322 323 323 323 323 323 323 323 322 322 322 322 321 321 316 298 306 328 334 330 316 313 311 310 307 305 304 307 301 305 305 305 304 303 303 305 303 305 305 309 310 310 309 308
323 323 323 323 323 323 323 323 323 323 322 322 321 321 314 303 305 321 330 332 316 313 311 309 307 306 302 304 303 302 304 305 306 304 304 305 303 304 304 308 309 309 308 307 308
323 322 322 322 323 323 323 323 323 323 322 322 321 320 307 297 310 327 327 315 314 312 310 309 307 308 304 302 302 303 302 303 303 303 303 301 302 302 304 307 306 306 307 308 308
323 322 322 322 322 322 322 323 322 321 321 321 321 316 303 303 312 322 316 313 312 311 308 308 308 306 305 301 302 301 298 301 301 301 300 301 298 299 305 305 303 305 306 307 307
322 321 321 321 321 322 322 322 321 318 317 319 319 314 302 307 315 313 310 307 310 308 307 307 308 306 303 302 300 297 296 294 300 298 299 300 294 301 305 302 302 304 305 306 307
321 320 320 321 321 321 321 320 318 318 318 319 312 304 301 311 305 307 308 306 306 306 306 305 306 302 301 297 295 295 292 293 295 299 297 298 295 300 303 301 301 302 304 305 306
321 320 321 321 320 320 319 315 318 318 317 316 309 300 302 300 305 305 306 306 303 305 303 303 302 299 297 296 290 293 293 293 292 298 297 295 294 298 300 300 299 301 303 304 304
322 321 322 321 321 321 313 310 310 306 305 302 303 300 300 304 306 303 305 303 303 302 298 298 296 294 298 298 298 294 293 292 295 298 295 294 295 297 299 300 300 301 302 303 304
322 322 323 322 321 316 310 306 303 302 300 303 301 301 302 305 300 301 305 301 299 296 296 295 293 299 297 295 294 294 291 292 296 297 293 294 293 297 299 299 301 301 301 302 302
321 321 322 321 319 315 307 305 310 307 298 302 300 299 300 303 299 299 302 300 298 294 294 295 298 298 295 295 292 293 291 292 292 294 295 292 294 295 299 298 299 300 301 301 300
320 321 321 320 316 312 310 307 310 306 298 299 297 298 300 300 295 298 301 299 297 294 294 294 295 293 293 292 294 290 296 293 291 290 289 292 287 295 297 297 298 299 300 300 299
318 319 321 319 318 314 310 309 308 302 288 299 295 303 300 296 296 296 299 300 295 294 294 294 292 291 291 293 294 292 292 290 289 289 288 290 286 294 294 293 296 298 297 298 297
312 317 317 316 315 311 309 308 304 297 287 297 295 294 295 295 294 296 297 299 296 294 293 294 294 294 295 293 293 292 291 290 289 289 285 290 288 291 293 294 295 295 294 294 294
309 311 316 317 314 310 309 311 296 288 300 296 293 293 292 291 292 293 294 293 293 291 293 294 292 293 293 292 292 291 290 287 285 285 284 289 286 290 295 293 293 292 291 292 293
307 310 315 315 311 310 312 304 287 294 296 298 297 296 296 296 294 292 292 294 293 291 291 290 289 292 293 294 295 291 291 287 280 282 286 284 284 292 295 292 291 291 290 290 290
306 312 314 316 311 313 307 292 290 294 298 297 298 295 295 295 295 293 291 293 294 293 292 292 291 291 291 292 293 289 286 292 286 286 283 287 291 296 296 290 289 288 288 287 288
304 308 308 314 312 310 300 292 294 298 300 300 293 296 292 294 292 293 293 295 293 294 294 293 288 295 293 291 292 290 293 286 286 279 278 283 286 288 291 288 287 285 285 286 287
303 298 306 312 313 302 290 292 295 301 302 298 296 294 294 293 294 293 293 297 296 297 294 295 292 291 291 291 290 289 286 286 286 285 279 279 284 291 288 286 284 283 284 285 286
302 291 309 312 297 298 292 295 297 297 300 298 299 297 295 295 292 292 291 294 300 296 292 295 289 285 289 295 293 292 290 290 284 282 285 283 283 287 286 284 283 281 282 283 285
297 296 307 308 289 291 296 295 297 296 296 295 294 296 296 293 288 292 293 298 298 296 294 295 288 283 285 288 290 288 290 290 290 287 283 280 282 286 285 284 283 284 283 283 284
294 288 295 301 300 294 291 291 292 297 296 297 295 297 294 291 294 290 290 295 295 294 295 294 289 286 281 285 289 285 287 289 288 282 283 283 285 290 287 285 284 283 283 284 283
291 287 291 289 291 292 292 291 288 288 293 294 291 292 289 286 287 287 290 291 292 292 292 291 284 286 287 288 288 287 286 286 284 284 279 283 283 287 290 285 282 281 281 283 280
287 287 289 287 288 289 290 287 287 288 289 287 287 289 288 285 286 284 287 287 286 289 288 289 282 284 280 285 285 282 284 285 283 283 282 282 281 288 281 281 280 280 280 282 280
290 291 288 284 284 284 285 286 284 286 285 285 285 285 284 286 286 287 287 287 287 284 284 284 282 280 276 282 280 275 279 281 282 284 283 278 281 280 278 279 280 280 280 282 280

GFSSW_sfc_thetae_009.txt.gz
Theta_e
322 322 323 323 323 323 323 323 323 323 323 323 323 323 323 323 323 321 310 316 319 329 325 317 316 315 315 313 313 313 302 300 301 300 302 307 304 308 310 307 309 310 310 313 314
322 322 323 323 323 323 323 323 323 323 323 323 323 323 323 322 317 312 321 326 333 328 316 314 312 313 311 311 311 307 303 302 306 305 303 305 305 306 306 306 306 309 313 314 314
322 322 323 323 323 323 323 323 323 323 323 323 322 322 322 322 312 308 325 330 334 325 317 316 313 312 308 310 309 308 302 305 306 307 307 305 304 307 304 303 306 306 309 311 312
322 322 323 323 323 323 324 323 323 323 323 323 322 322 322 319 300 311 329 334 331 319 315 312 311 307 305 304 308 303 306 306 307 307 305 304 306 304 305 306 310 310 311 311 310
323 323 323 323 323 323 324 324 324 324 323 323 322 322 318 306 306 322 330 332 318 315 312 310 308 307 303 304 306 304 305 306 307 307 306 306 304 304 304 308 310 310 309 309 310
323 323 323 322 323 323 323 323 324 323 322 322 322 320 312 301 313 325 325 322 315 313 312 312 308 309 305 304 303 305 304 304 305 304 305 302 303 304 305 308 308 308 308 309 309
323 322 322 322 323 323 323 323 322 321 320 319 321 318 307 307 316 323 321 316 316 314 311 313 311 307 307 303 306 303 299 302 303 304 302 303 299 300 306 307 305 306 307 308 308
322 322 321 321 322 322 322 322 321 318 318 319 320 316 304 309 317 316 315 312 314 313 312 311 311 308 305 305 302 299 300 295 302 301 302 301 295 303 305 304 303 305 306 307 308
322 321 321 321 321 321 322 320 317 318 319 319 316 312 303 310 306 310 312 308 310 309 308 308 309 305 304 299 297 300 294 296 298 303 300 299 296 302 304 303 302 304 305 305 307
322 321 322 322 321 321 320 315 318 318 318 317 311 303 303 302 307 307 309 310 306 307 304 304 304 300 300 298 291 296 296 297 296 301 299 299 298 301 303 303 303 304 305 306 306
322 322 323 322 322 322 318 316 315 311 309 306 309 303 309 307 309 306 307 306 306 304 299 302 297 295 299 301 300 298 296 295 298 302 299 297 297 299 303 303 304 305 304 304 303
323 323 323 323 322 320 317 312 306 305 304 313 311 308 307 307 302 304 307 302 301 297 300 297 294 300 302 298 297 297 295 294 298 300 296 296 296 299 302 302 303 302 303 302 302
322 322 322 322 321 319 314 309 311 309 302 308 306 304 304 305 303 304 304 303 300 298 297 296 300 302 299 297 295 295 294 294 294 297 298 296 294 299 302 303 302 301 302 301 298
321 321 321 321 316 320 316 311 312 309 299 301 301 300 301 303 299 301 304 302 300 297 300 298 300 296 295 294 296 292 298 296 294 292 290 295 287 295 300 300 299 299 299 297 298
319 320 321 320 322 317 312 312 312 307 288 301 297 306 302 298 298 298 302 301 297 297 296 296 294 294 293 295 297 295 295 293 293 292 291 292 289 294 298 296 296 297 296 297 297
314 318 319 319 322 316 313 311 310 297 288 299 298 297 297 297 296 299 299 301 300 296 297 296 297 296 297 297 296 295 293 294 294 292 286 292 291 291 294 295 294 295 295 295 296
310 314 316 319 314 315 314 314 297 289 301 298 296 295 295 294 294 295 296 294 295 292 293 297 296 297 296 294 295 293 291 287 287 287 285 294 289 292 297 295 296 294 293 294 295
307 311 316 316 311 310 314 303 288 294 296 301 299 300 297 299 296 295 296 296 300 295 293 291 289 296 296 295 294 295 294 288 282 284 288 289 287 292 295 294 294 293 292 292 292
307 312 314 320 316 315 308 291 292 295 298 298 298 294 295 298 297 298 297 296 297 298 292 291 291 296 295 296 295 292 288 293 285 287 284 288 293 297 293 292 291 290 290 290 290
308 308 308 316 314 314 300 292 295 299 299 299 292 296 292 295 295 295 295 298 296 296 297 295 288 296 294 294 295 294 297 287 286 278 278 285 287 288 294 292 290 289 289 289 290
305 296 306 312 314 304 290 293 297 300 302 298 295 294 295 293 294 294 294 298 299 298 296 295 292 291 295 292 290 290 288 289 289 286 280 279 284 294 292 292 290 288 287 287 288
302 292 311 314 298 298 294 295 297 297 301 298 298 297 294 294 292 292 292 295 301 299 293 296 290 286 289 295 297 294 291 291 284 282 285 283 283 297 291 291 288 286 286 286 287
296 298 309 309 290 292 296 295 297 295 296 296 296 297 297 294 289 292 294 298 299 297 294 295 288 282 284 289 292 290 291 291 291 288 283 280 283 293 289 287 288 288 286 286 286
297 289 298 300 300 294 292 292 292 298 296 297 295 297 294 292 294 290 290 295 297 296 295 296 289 285 281 284 289 286 288 290 288 283 283 284 286 291 291 289 291 289 288 287 286
295 290 294 289 292 294 293 292 290 289 295 295 292 292 291 287 288 288 291 292 294 293 293 293 284 286 287 288 288 286 285 285 284 285 281 284 284 288 290 290 290 291 286 284 284
289 289 292 292 294 292 292 289 289 290 290 288 289 290 291 287 288 285 288 288 287 289 289 290 282 284 280 284 284 281 284 284 285 285 285 285 283 290 289 285 284 284 282 282 284
293 293 291 288 289 289 290 290 288 291 289 289 289 288 286 288 289 288 289 289 289 286 285 284 282 279 274 280 280 276 280 282 283 285 284 279 282 282 282 282 282 283 283 281 283

GFSSW_sfc_thetae_012.txt.gz
Theta_e
322 323 323 323 323 324 323 323 323 323 323 323 323 323 323 323 323 321 312 319 320 331 327 316 314 314 315 313 312 309 297 294 297 296 297 302 299 302 303 301 302 304 303 306 310
322 322 323 323 323 324 324 324 324 324 324 324 324 324 323 323 317 313 324 332 332 330 315 312 310 311 308 310 309 302 297 298 301 300 298 301 300 300 299 300 300 301 305 306 306
322 323 323 323 324 324 324 324 324 324 324 324 323 324 323 321 313 311 328 331 331 327 317 315 312 311 305 307 306 304 297 301 301 304 303 302 300 301 299 297 301 301 303 305 304
323 323 323 323 323 324 324 324 325 325 324 324 323 323 322 319 299 315 327 332 332 319 314 312 309 305 303 301 306 299 303 303 304 304 302 300 302 300 300 301 305 304 305 304 303
323 323 323 323 323 324 324 325 325 325 323 323 323 323 318 308 307 322 330 331 320 316 311 309 306 305 300 301 302 300 302 304 304 303 301 303 300 300 300 303 305 305 304 303 302
324 323 323 322 323 323 324 324 324 323 322 321 321 321 314 301 315 322 322 321 314 312 309 309 307 306 302 301 299 302 301 301 301 301 301 300 299 299 301 303 302 303 302 302 302
323 323 322 322 323 323 323 323 323 321 320 320 320 318 309 306 317 323 321 316 314 312 309 310 310 306 304 300 302 301 295 298 300 300 299 299 294 295 301 301 300 300 300 301 302
323 322 322 322 322 323 323 323 321 318 319 319 321 316 304 311 317 316 315 313 314 313 310 309 310 306 303 303 300 296 295 290 298 298 297 297 290 298 301 299 300 300 299 300 301
322 322 322 322 322 322 322 322 317 318 319 320 317 313 302 312 307 310 311 308 309 309 308 308 308 302 301 295 292 294 288 291 295 299 296 294 291 298 300 299 299 298 299 299 299
322 322 322 322 322 322 322 321 318 318 318 317 313 304 303 302 307 308 308 309 306 305 304 303 300 296 295 292 286 290 290 292 291 296 296 292 292 298 300 299 297 299 298 298 297
322 323 323 323 322 323 320 315 312 310 309 307 309 302 308 306 309 306 308 305 305 302 296 299 293 290 294 296 296 294 292 291 293 298 294 293 293 295 299 300 297 294 296 297 296
323 323 324 323 323 322 318 312 306 306 302 312 312 313 310 308 303 304 306 300 299 294 297 294 290 297 299 298 295 293 290 290 294 297 292 293 292 296 298 299 296 296 295 295 295
323 322 323 323 322 320 315 309 312 310 300 307 308 307 305 305 304 302 303 301 297 295 295 293 297 300 297 295 294 293 290 290 291 294 292 291 289 293 298 298 297 297 296 295 294
323 323 322 322 317 320 313 312 313 310 296 300 301 300 302 303 299 302 304 301 299 295 296 295 299 296 294 293 293 289 294 293 292 288 284 291 282 290 295 292 294 294 292 292 292
321 322 321 320 319 316 312 313 312 307 285 301 297 306 303 298 298 298 302 299 295 296 293 294 292 291 291 293 295 292 292 290 289 287 286 287 283 288 292 289 291 292 292 292 292
317 319 320 318 320 316 314 311 309 295 286 296 298 297 296 297 297 299 299 299 298 294 295 294 293 293 294 295 294 293 291 290 288 287 280 287 287 286 288 290 289 291 291 292 292
311 316 317 318 313 315 314 311 296 288 301 296 294 296 295 293 294 295 294 291 291 288 288 292 292 293 294 290 291 290 288 281 279 278 279 288 284 288 290 292 292 290 289 290 291
308 315 315 316 311 311 309 299 287 295 296 300 299 299 297 297 295 294 294 293 297 292 288 288 286 293 293 292 290 291 290 283 277 276 279 286 281 288 291 291 291 290 289 289 288
308 310 314 319 315 314 307 291 292 295 299 298 298 293 293 296 297 295 294 294 296 296 290 288 288 292 294 294 293 289 286 291 282 279 278 283 288 292 290 288 288 287 287 286 287
308 306 306 316 315 312 300 293 295 300 299 298 292 294 289 293 292 293 292 295 295 295 295 293 286 294 291 292 291 290 294 284 284 277 273 280 282 285 287 287 287 286 285 286 287
303 298 307 312 313 303 290 292 297 301 300 296 293 292 293 292 294 293 292 294 297 294 294 293 291 288 292 290 289 288 285 289 288 283 275 275 279 288 288 289 286 286 286 285 285
301 291 309 313 295 296 292 295 298 297 299 298 297 295 293 294 292 291 291 294 298 296 291 293 289 282 286 292 294 290 289 288 282 280 283 282 281 294 290 288 288 285 285 284 285
296 297 310 309 290 292 295 295 297 295 295 295 294 295 295 292 289 291 292 296 298 295 292 293 285 279 279 285 288 287 288 288 287 284 280 278 279 291 286 285 286 286 284 285 285
296 289 298 300 299 293 292 292 291 297 295 296 294 296 293 291 293 289 290 294 295 295 295 295 287 281 276 280 285 282 285 286 285 281 280 280 282 287 289 290 291 288 287 285 285
295 289 294 288 291 293 293 292 289 290 295 295 292 292 291 288 288 287 289 290 294 293 292 291 279 283 284 286 285 283 282 283 281 282 279 280 280 284 286 284 282 285 285 283 284
290 288 291 290 292 292 292 289 288 290 291 290 289 290 290 287 288 283 286 286 285 287 287 288 275 279 274 281 281 279 280 281 281 281 280 281 280 286 282 282 282 283 282 280 280
292 292 290 289 287 288 289 289 289 290 291 290 289 288 286 286 287 287 287 287 287 284 282 280 275 269 271 277 276 269 276 278 280 282 281 277 278 277 278 280 279 279 280 280 279

GFSSW_sfc_thetae_015.txt.gz
Theta_e
322 323 323 324 324 324 324 324 324 324 324 324 324 324 324 324 323 320 312 318 318 332 325 312 310 308 308 306 305 302 292 289 291 292 293 298 296 298 299 297 298 302 299 301 306
322 323 323 324 324 324 324 324 324 324 325 324 324 324 324 323 316 310 325 333 332 332 312 307 305 306 302 304 303 297 291 293 296 294 294 298 296 295 296 296 296 297 299 301 306
322 323 323 323 324 324 325 325 325 325 325 324 324 324 324 321 308 307 327 333 332 329 314 310 308 306 300 301 300 299 293 297 299 300 299 298 298 298 295 293 298 298 299 302 300
323 323 323 323 323 324 324 325 325 325 325 324 324 324 323 315 292 312 327 330 330 317 311 308 304 299 297 296 302 295 300 299 301 301 299 297 299 298 297 299 301 301 301 299 301
323 323 323 323 323 324 324 325 325 325 324 323 323 323 314 303 303 321 329 330 318 312 307 305 301 300 295 297 298 295 298 301 301 300 299 299 298 297 299 302 302 302 301 299 300
323 322 322 322 323 324 324 325 325 324 323 321 321 321 308 297 315 322 321 317 311 309 305 305 303 303 298 297 295 297 297 297 299 299 298 297 296 296 299 299 298 298 298 297 298
323 322 322 322 323 324 324 324 324 322 320 321 320 317 306 302 317 320 319 312 311 309 306 307 306 302 300 297 300 297 293 295 296 297 296 297 293 294 299 298 297 295 297 297 297
322 321 321 321 322 323 324 324 323 319 320 320 320 312 298 307 311 315 312 308 310 308 307 306 306 303 299 300 298 293 290 287 295 296 296 294 289 296 299 296 298 295 295 294 296
321 321 321 322 322 322 322 323 320 318 319 321 312 306 299 310 305 306 306 306 306 305 303 307 304 298 297 292 288 289 285 288 292 296 295 292 289 296 298 297 295 294 293 294 294
321 321 322 322 322 322 322 322 317 317 317 318 313 298 300 299 304 305 303 307 303 301 300 299 297 292 290 289 283 286 286 289 288 294 293 290 290 293 297 297 294 292 292 293 293
322 322 323 323 323 323 319 311 307 305 306 303 302 298 301 304 306 303 304 302 302 298 291 294 289 286 290 291 291 289 288 287 290 295 291 292 291 294 296 296 293 292 292 293 292
323 323 324 323 323 322 316 306 303 304 301 308 309 309 305 304 300 301 303 297 296 291 293 290 287 293 294 294 293 290 288 287 291 294 291 291 290 293 296 295 293 292 291 292 292
323 322 323 322 321 318 310 305 308 304 297 303 305 303 302 304 300 298 300 297 293 291 291 289 293 296 294 292 291 289 288 287 288 291 290 288 287 291 294 293 293 293 293 292 291
323 322 322 321 315 315 308 308 309 304 291 297 299 298 300 300 296 299 301 298 295 292 291 290 295 294 292 291 292 287 292 291 290 286 283 289 280 287 291 290 290 290 289 290 290
321 321 321 320 313 312 309 309 308 302 282 296 295 303 299 296 296 296 299 296 292 293 291 291 290 289 289 291 293 290 291 288 287 285 284 284 281 285 289 287 288 288 289 289 289
319 320 320 318 315 313 310 307 305 292 283 293 295 295 293 294 294 296 295 295 295 291 291 291 291 291 292 292 292 292 289 288 287 285 278 284 284 283 285 288 287 288 289 289 289
317 318 317 318 312 312 311 308 294 287 298 292 291 293 292 291 291 293 290 288 288 285 284 290 290 291 292 288 290 289 286 281 278 276 278 285 282 286 288 289 289 288 287 288 288
314 317 315 315 311 312 309 299 287 295 294 297 295 294 294 291 291 291 289 287 291 289 286 286 284 290 292 291 289 287 289 283 277 275 277 284 280 286 287 288 288 288 287 288 288
313 313 314 316 312 313 305 289 290 295 298 296 295 291 291 294 295 290 289 290 295 294 290 288 287 291 292 292 294 288 285 289 282 275 276 282 285 287 288 286 286 286 286 285 286
307 305 307 316 313 311 298 293 294 299 298 296 290 292 287 290 291 289 290 292 292 293 293 290 284 292 290 291 291 290 293 283 283 272 270 278 280 282 285 284 285 284 283 284 285
303 299 306 312 313 303 291 294 297 300 299 295 290 290 289 289 292 290 292 292 293 291 293 291 289 287 289 287 287 287 285 287 287 282 274 271 278 286 287 286 284 284 284 283 283
301 294 308 311 294 295 292 295 298 296 299 297 295 293 291 291 291 290 290 292 296 294 290 291 288 279 285 290 291 289 287 287 282 278 279 282 280 287 285 285 285 283 284 284 283
296 297 308 308 289 291 295 295 297 295 295 295 293 294 293 291 289 290 291 294 296 294 292 293 284 275 278 282 288 285 286 286 287 284 281 278 279 286 284 284 285 284 284 285 285
295 290 297 300 295 292 292 291 291 296 294 294 293 294 292 289 291 288 288 292 294 293 296 296 288 280 277 277 283 281 282 284 284 279 277 278 280 285 285 285 285 286 286 283 283
294 289 293 288 290 292 292 291 290 289 293 294 291 291 290 288 287 287 290 291 292 295 291 290 279 283 283 284 283 282 281 282 280 281 277 280 279 283 284 279 280 281 284 283 282
288 287 289 289 292 292 291 288 289 289 291 289 289 291 291 288 288 282 286 285 285 286 286 288 276 279 273 281 281 278 280 280 280 280 279 280 278 284 279 280 279 281 281 279 280
289 290 289 287 286 288 288 289 289 291 289 289 290 289 286 285 286 286 286 286 286 284 282 281 276 270 269 278 275 268 276 277 278 279 278 274 278 276 277 279 277 277 278 278 278

GFSSW_sfc_thetae_018.txt.gz
Theta_e
322 323 323 324 324 324 325 325 325 325 325 325 325 324 324 324 322 318 307 315 316 331 324 310 307 307 306 304 303 298 291 287 290 290 292 296 295 297 296 295 295 299 298 298 303
322 322 323 324 324 324 324 325 325 325 325 325 325 324 324 324 314 309 322 333 333 332 310 305 303 304 301 302 302 295 289 291 294 293 293 296 294 295 295 295 294 294 299 299 302
322 322 323 323 324 324 324 325 325 325 325 325 325 324 324 321 303 305 325 332 333 325 311 308 306 304 298 299 298 296 291 295 297 298 297 297 297 296 293 294 297 296 298 300 298
323 323 323 323 323 324 324 325 325 325 325 325 324 324 323 313 291 309 326 330 331 314 309 305 302 298 295 295 300 293 299 298 300 300 297 295 298 297 296 298 301 299 298 298 297
322 322 322 323 323 323 324 325 326 325 325 324 323 322 313 301 301 319 328 328 314 310 305 303 300 299 294 295 296 295 296 299 300 299 297 297 296 295 297 299 300 298 297 296 295
322 322 322 322 323 324 324 325 326 325 323 321 321 321 305 296 314 321 317 313 310 307 304 304 301 301 297 295 294 296 297 297 297 297 296 296 293 295 298 296 297 297 294 294 294
323 322 321 322 322 323 324 325 325 324 320 321 320 317 306 301 316 317 314 310 309 307 304 304 303 300 298 295 298 295 293 294 294 295 295 296 292 293 299 296 295 293 292 293 294
322 321 321 321 322 323 324 324 324 322 321 320 320 310 297 306 310 314 310 307 308 306 305 304 304 301 298 298 296 291 289 287 294 295 294 293 289 296 298 295 293 290 290 292 293
321 320 321 321 322 322 322 323 322 318 319 321 310 303 297 310 304 305 305 305 304 303 302 306 302 297 296 290 287 287 284 286 291 295 293 291 288 295 297 295 291 289 291 291 291
320 320 321 322 322 322 323 320 318 316 317 317 313 298 299 297 302 303 302 305 301 300 299 298 295 291 289 287 281 284 284 287 287 291 291 289 290 293 296 294 290 289 290 290 290
320 321 322 322 323 323 320 311 306 304 306 302 299 297 299 302 304 301 303 301 301 297 290 293 288 286 289 291 289 287 286 286 289 293 290 290 289 292 295 291 289 289 290 290 290
321 322 323 323 323 322 315 306 303 304 300 307 306 305 303 303 299 299 302 296 295 290 292 289 286 292 292 291 290 288 286 286 289 292 290 289 289 292 293 293 291 290 289 289 289
321 322 324 323 321 317 309 305 307 303 297 302 304 304 301 302 299 298 300 296 293 290 290 288 292 294 292 290 289 288 286 286 288 290 289 287 286 290 290 290 291 291 290 290 288
322 322 322 321 314 314 307 307 308 303 291 295 298 297 299 300 295 298 299 296 292 290 290 289 293 292 290 290 291 287 292 291 289 285 282 286 279 286 289 287 288 288 287 287 287
321 321 321 321 313 311 309 308 306 301 282 296 295 302 298 297 295 294 298 295 291 292 291 290 289 288 289 290 292 289 289 287 286 283 281 282 280 283 287 284 286 286 287 286 287
320 320 320 319 314 313 308 308 304 293 284 291 294 293 291 292 293 294 294 294 294 290 289 290 291 291 291 290 290 290 288 287 285 283 277 283 282 281 284 286 285 286 286 287 286
319 319 318 319 312 310 309 307 293 287 296 290 290 292 291 289 290 291 289 287 287 284 284 288 289 290 291 288 288 287 285 279 278 276 277 283 280 284 286 287 288 286 285 286 286
319 318 316 317 311 311 311 301 286 294 292 294 291 290 288 290 289 289 288 286 289 288 285 285 284 289 291 290 288 286 287 282 277 274 277 282 280 285 285 286 287 287 286 286 287
318 316 314 314 312 314 305 290 292 295 298 294 294 290 290 290 291 287 286 287 291 290 288 284 286 289 290 290 292 286 284 288 283 275 275 281 283 284 286 284 285 285 285 285 285
310 309 310 313 314 312 300 293 295 300 297 296 290 292 287 290 291 287 288 291 291 293 293 290 284 289 289 291 290 288 291 282 281 273 270 277 279 281 283 282 283 283 283 284 284
305 300 307 314 314 304 293 293 297 300 299 294 291 290 289 288 291 288 289 291 292 290 292 291 289 285 288 287 286 285 284 286 285 280 273 270 277 284 286 285 283 283 284 283 283
303 295 307 312 298 298 294 297 298 297 298 296 294 292 290 290 289 289 289 292 294 293 289 291 287 279 285 288 289 288 286 285 279 277 279 279 280 287 287 286 285 284 284 284 285
298 297 307 307 292 291 295 296 297 295 294 294 293 294 294 291 289 289 290 293 294 293 290 292 284 274 279 283 287 285 286 285 285 282 275 276 278 286 283 284 285 284 283 284 284
297 290 297 301 297 294 293 292 293 297 294 295 294 294 291 289 291 287 288 291 293 295 297 296 287 282 280 279 283 281 282 283 283 277 276 278 280 283 283 284 284 284 284 283 283
295 291 295 288 291 293 294 293 291 290 296 295 291 291 290 287 287 287 289 289 291 294 291 291 281 283 284 284 283 283 282 281 280 280 276 280 278 282 282 282 282 283 283 283 281
290 288 291 291 293 292 292 289 289 292 291 290 290 291 290 288 288 285 289 288 288 289 288 287 279 279 274 281 281 278 280 280 281 281 280 281 280 286 282 279 279 280 280 280 281
291 291 291 290 289 289 288 289 290 291 291 290 291 290 288 290 288 287 288 287 287 284 282 282 278 272 269 277 275 269 274 278 279 279 278 274 277 275 278 280 278 278 278 278 277

GFSSW_sfc_thetae_021.txt.gz
Theta_e
322 322 323 324 324 324 324 325 325 325 325 326 326 325 325 324 322 315 302 312 315 330 322 308 306 305 304 303 302 296 289 286 288 288 291 295 295 295 295 293 295 297 300 297 302
321 322 323 323 323 324 324 325 325 325 325 326 325 325 324 323 312 307 319 331 333 331 307 303 301 303 300 300 300 293 287 289 293 292 292 295 293 294 295 295 293 293 298 299 299
321 322 322 323 323 323 324 325 325 325 325 326 325 324 323 320 300 302 325 331 332 323 308 306 304 302 296 300 298 294 290 293 296 296 296 295 293 295 293 294 295 294 297 298 295
322 322 322 322 323 323 324 325 325 326 326 325 324 323 322 311 292 307 326 329 331 312 307 304 301 296 293 293 298 294 296 296 298 298 296 294 295 295 295 297 298 295 295 293 294
322 322 322 322 323 323 324 325 326 326 325 323 322 322 312 299 301 317 327 325 311 308 303 302 299 297 293 294 295 294 295 297 299 298 296 296 295 294 296 297 296 296 295 293 293
322 322 322 322 322 323 324 325 326 325 325 321 321 321 302 295 312 318 314 309 308 305 302 303 300 300 296 294 293 294 295 295 296 296 295 294 292 293 296 295 294 294 292 292 292
322 322 321 321 322 323 324 325 325 324 322 321 321 316 303 300 314 316 312 308 308 305 302 303 302 299 296 293 296 294 291 292 293 293 293 294 290 292 296 294 292 291 290 291 292
322 321 321 321 322 322 323 324 323 323 320 320 320 309 298 305 310 312 308 306 306 305 304 303 302 300 296 296 294 290 288 285 292 293 293 292 289 294 295 293 290 289 288 289 291
321 320 320 321 321 322 322 323 320 320 320 321 308 301 297 309 304 304 305 304 303 302 302 305 301 295 295 289 286 286 282 284 289 293 292 290 288 294 294 293 289 288 289 289 289
320 320 320 321 321 322 323 321 318 316 317 316 312 298 299 297 301 302 302 304 300 299 298 298 293 290 288 286 282 283 283 285 286 290 290 288 289 292 294 292 289 288 287 288 288
320 320 320 321 322 323 319 311 305 304 306 300 298 297 298 300 303 299 302 301 299 295 290 292 288 286 288 289 287 286 285 285 287 291 288 289 288 291 292 289 287 287 287 287 288
320 320 321 322 323 323 315 306 304 303 300 306 304 301 302 302 298 298 301 295 293 289 291 288 285 291 290 290 289 286 284 285 288 291 289 288 288 291 290 289 288 288 287 287 287
320 320 321 323 321 317 310 306 306 303 298 301 304 304 301 301 299 299 299 295 292 289 289 287 291 293 291 288 287 286 285 285 287 289 287 286 284 288 288 289 289 289 288 287 286
320 320 321 320 317 313 307 307 306 304 291 295 298 298 298 300 295 298 298 295 291 290 289 288 292 291 288 288 289 285 290 289 288 285 282 285 279 284 287 286 286 286 285 285 285
320 320 321 321 311 309 310 307 305 301 281 295 294 301 297 297 294 293 297 295 290 290 290 289 289 288 287 289 291 288 289 287 285 283 280 281 279 283 286 283 284 284 285 284 285
319 319 320 319 316 313 308 307 303 291 283 290 293 292 291 291 292 293 293 294 293 290 288 290 290 290 291 289 291 290 287 286 284 282 277 282 282 280 283 285 284 285 285 285 285
318 319 319 320 313 311 309 306 293 287 295 289 288 290 289 288 289 290 288 287 286 283 283 286 288 289 290 287 287 286 285 279 277 275 277 282 279 283 285 285 286 285 284 284 284
318 319 319 319 314 309 309 300 286 292 292 292 289 289 287 289 288 288 286 285 287 286 283 284 284 288 290 289 286 285 285 280 274 274 277 281 279 285 283 284 287 287 286 285 284
318 318 319 319 312 312 306 291 292 294 296 292 292 286 286 290 288 286 285 285 289 289 288 284 285 288 288 290 290 285 283 287 282 271 274 281 282 283 284 283 284 284 284 283 284
316 315 315 317 313 311 302 295 296 300 298 296 288 291 286 289 288 285 285 289 290 290 291 289 284 288 287 289 288 287 289 282 280 273 270 278 279 281 281 282 283 283 283 283 284
312 304 309 314 313 305 295 295 297 301 298 295 292 290 289 289 289 285 288 290 292 289 292 290 288 284 287 286 285 285 284 285 284 280 274 271 278 283 284 284 283 284 284 283 283
306 300 308 313 299 301 298 297 299 299 299 297 295 294 291 289 288 287 288 290 293 292 289 291 287 279 284 287 287 286 285 286 282 278 278 278 280 286 286 285 285 284 284 284 284
300 298 307 307 295 293 295 296 298 295 296 295 294 294 293 290 288 288 289 292 292 292 290 292 283 275 282 283 285 284 284 284 284 282 277 276 279 285 284 284 285 284 284 284 284
297 291 297 300 297 296 293 293 293 297 295 296 295 294 292 290 291 289 288 291 292 292 296 296 287 284 281 281 283 281 282 283 283 277 281 282 281 281 283 284 284 284 284 284 284
295 292 294 288 291 294 296 294 293 291 296 296 292 293 291 287 287 288 289 290 290 292 290 291 282 282 283 282 283 283 282 281 281 280 277 279 278 281 283 284 284 285 285 283 284
291 290 292 291 295 293 294 291 292 294 293 292 292 293 293 291 290 286 289 288 287 286 287 286 279 280 278 283 283 282 283 283 284 283 281 282 280 286 282 282 279 281 281 281 282
292 292 292 289 290 291 290 292 292 294 291 293 294 292 290 292 294 289 290 289 289 287 284 284 279 278 279 278 278 275 276 279 281 281 280 277 281 275 278 279 279 279 279 279 279

GFSSW_sfc_thetae_024.txt.gz
Theta_e
321 322 322 323 323 324 324 324 325 325 326 326 326 325 325 324 321 312 299 311 314 329 322 306 305 304 304 302 299 294 287 285 289 288 290 293 293 294 294 295 295 295 299 295 299
321 321 322 323 323 323 324 325 325 325 326 326 325 325 324 323 310 303 318 329 332 329 305 301 299 301 299 299 298 291 285 287 291 294 294 293 293 293 294 294 295 293 297 296 295
321 321 322 323 323 323 324 325 325 325 326 326 324 323 323 319 299 300 325 329 332 322 306 305 303 300 295 299 298 293 288 291 294 295 294 294 292 294 295 291 292 294 295 294 294
322 322 322 322 322 323 324 325 325 326 326 325 322 322 322 309 293 304 325 329 331 310 305 303 301 296 292 294 296 292 295 294 297 297 295 293 294 293 293 293 295 293 293 292 292
322 322 322 322 322 323 324 325 326 325 325 324 322 322 310 298 301 316 325 323 310 306 302 300 297 295 290 293 293 294 293 295 297 296 296 295 294 293 295 294 294 294 293 291 291
322 321 321 322 322 323 324 325 326 325 325 322 322 321 300 295 311 315 311 307 306 304 301 301 299 299 295 292 292 292 293 294 295 294 293 293 291 292 292 292 292 292 290 290 290
322 321 321 321 322 323 324 324 324 324 323 321 321 315 300 301 314 313 309 305 305 304 301 301 301 298 296 293 295 293 290 292 292 291 292 293 289 291 293 292 291 290 289 289 290
321 321 321 321 321 322 323 323 324 322 320 320 320 307 299 303 311 311 306 305 304 303 303 301 301 299 295 295 292 289 287 285 290 292 291 291 289 292 293 292 289 289 287 288 289
320 320 320 320 320 321 322 323 318 319 321 321 307 300 297 309 304 304 303 303 301 301 302 304 300 294 294 289 286 285 284 283 288 292 290 289 288 291 291 291 288 287 287 288 287
319 319 320 320 320 321 322 322 318 315 316 315 309 298 299 296 300 301 301 302 299 298 298 297 292 289 287 286 283 283 282 284 285 288 288 286 288 292 292 291 288 286 286 286 286
319 320 320 320 321 323 319 310 304 302 304 300 298 298 297 299 301 298 301 300 297 294 289 290 287 286 288 289 287 285 284 285 286 290 288 289 288 291 292 288 286 285 285 285 286
320 320 320 321 322 322 317 306 304 303 300 305 303 300 301 300 296 297 301 295 292 288 289 287 285 290 290 289 288 285 284 284 287 289 288 288 287 290 289 288 287 286 285 285 285
319 319 320 321 322 319 312 308 305 303 298 301 303 303 303 301 297 297 299 294 290 288 288 286 290 291 290 287 286 285 284 283 285 287 287 285 284 287 286 287 287 287 286 285 284
319 319 319 321 317 314 309 311 306 304 292 294 297 298 298 300 296 298 298 295 290 290 288 287 290 291 287 287 287 283 288 288 286 284 282 284 279 283 285 284 285 285 284 284 284
319 319 319 320 312 309 311 307 304 302 281 294 295 300 296 297 294 294 296 294 289 290 289 289 288 287 287 288 289 287 289 287 285 283 280 281 279 283 285 284 283 283 283 283 283
318 318 319 319 315 312 307 306 304 292 282 290 292 291 292 291 291 292 293 294 293 290 288 289 290 290 290 288 289 289 287 285 283 282 276 282 282 280 282 284 283 284 284 284 284
318 318 318 321 313 309 308 306 293 286 293 289 288 289 289 288 289 289 288 287 286 284 283 286 288 289 289 286 286 286 284 279 277 275 277 281 279 282 284 284 285 285 284 283 283
318 318 317 321 315 309 308 299 286 292 291 291 289 287 287 288 287 288 286 285 287 285 282 283 282 288 290 289 286 284 285 280 274 274 277 280 278 284 283 284 285 286 285 284 283
317 316 317 320 313 312 304 292 291 292 295 290 289 285 285 287 287 286 284 284 287 287 287 283 285 287 287 288 290 284 282 286 280 269 273 280 282 283 283 282 283 283 283 282 283
315 313 313 321 313 310 300 295 294 298 296 292 289 289 284 287 286 284 284 287 289 289 291 289 283 287 286 289 287 286 288 281 280 273 271 277 278 282 282 283 282 282 282 283 283
314 307 315 321 313 304 294 296 299 301 299 294 291 289 287 287 287 284 286 288 290 289 291 289 287 283 286 284 284 285 283 284 283 281 276 271 278 283 284 283 282 283 284 283 283
311 301 314 315 301 301 296 298 300 300 300 297 296 294 291 290 287 286 287 290 293 291 288 290 286 279 284 285 286 285 285 285 282 278 277 278 281 284 284 284 285 284 285 284 284
303 301 311 314 296 296 299 300 300 298 298 295 294 296 293 290 289 288 289 293 292 292 290 291 284 275 279 283 283 283 284 284 283 282 277 279 280 284 282 283 285 284 284 284 284
299 292 297 300 302 300 297 296 295 298 297 297 295 295 293 291 292 289 288 291 292 292 296 295 285 282 280 281 284 281 283 283 285 282 283 282 284 282 284 285 284 284 284 284 283
296 292 295 291 295 297 300 296 294 292 296 297 293 295 294 289 289 289 290 289 290 293 291 292 282 283 283 283 283 283 283 281 281 284 283 284 283 283 286 285 284 284 284 283 283
292 291 292 291 295 295 297 294 294 295 294 291 292 293 295 292 291 287 289 289 288 287 289 288 284 283 278 283 282 281 283 281 284 284 282 281 281 287 285 283 281 284 284 282 282
292 293 293 290 290 292 292 294 294 296 292 295 295 293 292 294 294 290 292 292 292 288 286 285 281 276 279 277 279 278 280 282 282 282 284 281 285 278 279 281 281 280 280 280 281

GFSSW_sfc_thetae_027.txt.gz
Theta_e
321 321 322 323 323 323 324 325 325 325 326 326 326 325 325 324 321 312 299 311 314 329 321 306 306 305 306 303 301 297 289 287 291 291 293 297 297 298 299 298 299 300 299 297 298
320 321 322 322 322 323 324 325 325 326 326 326 325 324 324 323 309 302 319 328 331 328 305 302 301 302 300 301 300 293 288 289 293 293 294 296 296 297 298 297 298 299 299 298 297
320 321 321 322 322 323 324 325 325 326 326 326 323 323 323 318 300 300 325 328 331 320 306 305 304 302 297 299 298 295 290 292 295 297 297 297 296 298 297 295 298 299 297 296 295
322 321 321 322 322 323 324 325 325 326 325 325 323 323 322 307 293 304 325 329 329 309 306 303 301 297 294 294 298 293 295 295 299 298 297 296 297 297 297 298 296 295 295 294 293
322 321 321 322 322 323 324 325 326 325 325 325 323 323 307 298 301 315 324 324 309 306 302 301 298 297 292 295 295 295 295 296 297 297 296 296 296 296 296 294 294 294 293 292 292
321 321 321 321 322 322 323 324 325 325 325 323 322 321 299 296 311 313 308 307 306 303 301 301 299 299 296 294 294 294 295 295 295 295 295 295 293 294 294 293 293 292 291 291 291
322 321 321 321 322 322 323 324 324 324 323 321 321 314 299 302 313 311 308 304 305 303 301 302 301 299 297 294 296 294 292 293 293 293 293 294 291 292 294 293 291 290 290 290 290
321 321 320 321 321 321 322 323 323 321 321 320 320 305 300 303 312 310 306 304 303 303 303 302 302 300 297 296 293 290 289 288 292 293 293 293 290 294 293 293 291 290 289 289 289
320 319 320 320 320 320 322 322 320 320 321 320 306 299 298 309 305 305 304 302 301 301 302 303 300 295 295 290 287 287 286 285 289 293 292 292 291 294 293 292 290 289 289 289 288
319 319 319 320 320 320 322 322 318 315 315 313 307 299 299 297 300 301 301 302 299 299 298 297 293 290 287 288 284 285 284 285 286 290 290 289 290 292 293 292 290 288 287 287 287
319 319 320 320 320 322 320 310 304 301 303 301 299 298 297 299 301 299 301 299 297 295 290 291 289 287 289 289 288 287 285 286 287 290 290 289 289 292 292 289 287 286 287 287 287
318 319 320 320 321 322 318 306 303 303 299 305 303 299 299 299 295 296 301 295 292 288 290 288 286 290 290 289 288 286 285 285 287 289 289 288 288 292 291 290 289 287 286 286 286
319 319 320 320 321 319 314 309 305 303 298 301 303 302 302 300 296 295 299 294 289 287 287 286 289 290 290 287 286 285 285 284 286 287 288 286 286 288 289 288 288 288 287 286 285
319 319 319 319 316 316 312 316 306 304 291 294 297 300 298 299 295 298 298 295 290 289 287 287 290 290 286 286 287 283 287 287 286 285 283 286 281 286 286 286 286 285 284 284 285
319 319 319 320 311 312 312 307 304 302 280 294 294 299 297 298 295 294 296 295 290 290 290 290 288 287 287 288 288 287 288 286 286 284 283 283 281 284 285 286 285 284 284 284 284
318 318 318 318 315 311 307 305 304 291 281 290 292 291 293 291 291 292 293 295 293 289 288 289 290 290 290 289 289 288 287 285 283 282 277 283 283 282 284 286 285 285 285 285 284
318 318 317 320 313 308 308 304 292 285 293 288 288 289 290 288 289 290 289 287 287 284 284 286 288 288 289 286 286 285 284 279 278 276 278 281 280 284 287 287 287 286 285 284 284
318 317 317 319 313 309 307 298 286 291 290 289 288 288 288 288 287 287 286 285 287 285 283 283 282 288 290 288 286 284 285 280 275 275 278 279 279 284 286 285 285 286 286 284 284
317 316 316 318 313 312 303 291 290 291 294 289 288 285 284 286 287 285 285 285 289 288 287 282 283 286 287 288 289 284 282 286 280 270 275 281 283 287 285 284 284 284 284 283 284
314 313 312 319 314 311 299 294 294 297 293 290 289 289 284 285 285 284 283 287 288 290 291 288 283 286 286 288 288 286 288 282 280 273 270 278 280 284 284 284 283 282 283 283 284
313 306 314 319 313 306 294 294 298 299 297 292 291 289 286 285 286 283 285 286 289 288 292 289 288 284 286 285 285 285 283 283 284 281 275 272 279 285 286 286 284 284 284 284 284
311 301 315 317 301 302 297 296 300 301 300 297 294 292 290 289 286 285 285 288 291 291 288 291 287 280 283 285 286 285 285 285 281 278 277 278 281 285 285 286 286 285 285 285 286
306 305 315 313 295 296 299 299 300 298 300 298 296 295 294 290 288 287 286 292 292 292 289 291 285 278 281 284 284 283 284 285 284 282 277 277 279 284 284 284 285 285 284 286 286
300 294 299 306 306 300 296 296 296 301 299 299 296 296 292 291 294 288 288 291 291 292 296 296 286 284 284 283 284 282 283 284 285 278 280 283 285 282 284 285 284 284 285 285 285
298 293 295 294 295 300 300 297 295 295 300 300 294 296 295 291 291 291 290 289 290 294 292 293 285 283 284 284 284 284 283 282 282 285 283 285 284 284 286 286 285 285 284 284 284
292 291 293 291 294 295 297 297 295 297 295 294 295 296 297 295 295 291 292 289 289 289 289 290 286 283 280 283 283 281 283 283 285 285 284 285 284 287 287 285 284 285 284 283 283
293 294 294 292 290 291 293 295 296 299 295 298 297 297 294 297 295 291 295 293 293 289 288 288 283 284 282 278 281 280 282 282 283 283 285 280 287 283 283 284 283 283 284 284 283

GFSSW_sfc_thetae_030.txt.gz
Theta_e
321 321 322 323 323 324 325 325 325 326 327 327 327 325 325 324 323 317 306 315 320 329 322 314 313 313 314 310 308 305 301 298 299 299 301 304 303 304 305 305 305 305 304 303 305
320 321 322 322 322 323 324 325 325 326 326 327 326 324 323 323 314 310 321 327 331 329 312 310 308 310 309 308 309 304 301 298 302 303 302 303 303 304 303 304 303 304 303 304 305
321 321 321 322 322 323 324 325 325 326 326 326 325 324 323 322 309 307 326 328 331 322 313 312 311 308 305 308 306 302 300 299 301 303 304 303 303 304 303 302 304 304 302 302 303
322 321 321 321 322 322 323 325 326 326 326 326 325 324 322 315 302 310 326 329 328 315 313 310 309 304 303 301 305 300 302 302 303 304 303 302 304 303 304 304 302 302 301 301 301
322 322 321 321 322 322 323 324 325 325 325 325 324 323 314 308 308 319 324 327 316 312 310 308 305 304 300 302 303 302 302 302 304 303 303 302 303 303 303 301 301 300 300 299 299
321 321 321 321 321 322 323 324 325 325 325 324 323 322 310 305 317 317 313 312 312 311 309 309 306 306 303 302 301 302 301 302 302 301 301 300 301 301 300 301 299 300 299 298 297
322 321 321 321 322 322 322 324 324 324 322 322 321 317 309 310 319 317 312 310 312 310 308 309 309 306 305 301 302 300 299 301 302 300 300 301 297 298 300 300 299 297 297 296 296
321 321 320 321 321 321 322 323 322 321 321 321 320 312 308 309 321 314 313 310 310 310 310 310 310 306 304 302 300 298 298 297 299 299 299 300 298 300 299 299 299 297 297 296 295
320 320 320 320 320 320 321 321 321 319 321 321 313 308 306 314 312 312 312 308 308 308 308 307 308 303 302 299 297 296 295 295 297 299 298 298 298 299 299 299 299 299 297 296 295
319 319 319 320 320 320 321 322 320 317 317 315 311 306 305 302 306 307 309 308 306 306 305 305 303 300 299 297 293 295 293 293 295 297 297 297 298 299 298 299 300 299 296 295 294
319 319 319 319 320 321 322 319 312 308 310 308 307 305 302 304 306 305 307 305 305 304 299 299 298 295 298 299 298 296 295 295 295 296 296 297 298 301 300 298 298 298 296 294 292
319 319 319 320 321 321 322 314 311 309 305 310 308 304 303 305 299 303 306 302 301 297 298 296 294 300 297 296 295 294 294 295 295 295 295 296 295 299 299 299 299 298 296 294 292
318 318 319 320 320 320 317 316 311 310 306 306 308 307 304 303 301 300 304 300 298 295 296 296 296 297 295 293 292 293 293 294 293 293 294 293 294 297 298 295 294 295 296 294 293
318 318 318 319 316 318 314 320 315 311 299 300 301 306 302 303 299 301 304 301 296 295 295 295 296 294 293 293 295 292 295 294 292 291 290 294 290 296 296 294 292 292 293 292 292
318 318 318 319 317 313 315 320 315 309 286 300 299 303 301 302 300 297 301 300 295 294 295 296 292 292 293 294 294 294 294 293 292 291 290 291 289 294 292 292 292 292 292 292 292
318 318 318 317 316 316 311 310 310 295 286 294 296 295 297 296 295 296 297 300 299 295 294 296 296 295 296 293 294 293 292 291 291 290 285 291 291 292 294 294 293 293 291 291 291
317 317 317 319 312 312 309 307 295 289 298 291 292 294 295 291 292 294 293 293 294 291 291 292 294 294 294 291 292 293 292 287 284 284 284 287 287 293 296 293 294 293 291 291 291
317 317 316 319 317 310 309 301 289 295 296 294 292 293 293 292 291 291 291 292 295 293 291 290 289 292 294 296 292 291 293 289 282 282 286 284 284 291 291 291 291 293 293 291 290
317 316 315 318 313 311 303 292 293 296 300 292 291 290 291 291 292 290 290 293 296 294 292 289 290 292 291 293 296 289 287 293 285 279 285 289 290 294 289 289 289 290 291 290 290
314 312 312 319 314 309 298 294 297 301 300 295 292 294 290 289 290 290 289 294 293 295 297 294 289 290 290 294 293 292 294 286 287 282 281 285 287 291 289 290 289 288 289 290 290
313 305 314 319 315 304 292 295 299 302 299 296 295 294 293 290 292 289 291 292 296 293 296 295 293 288 290 289 290 288 288 289 290 288 284 284 288 294 295 293 291 291 291 291 291
310 300 315 317 300 301 295 299 301 301 301 300 298 299 293 292 291 291 290 295 295 294 290 295 292 287 288 290 291 294 292 290 288 283 285 284 288 290 292 294 294 294 292 293 292
305 305 315 313 294 295 299 299 301 299 300 300 297 298 298 294 291 292 293 296 295 294 293 294 290 286 287 288 289 288 289 291 292 288 287 285 287 289 289 290 292 293 292 292 292
304 297 303 307 305 299 296 296 296 302 300 302 300 301 297 294 295 294 292 294 295 296 297 298 292 290 287 290 292 287 288 289 290 287 288 287 290 288 290 290 292 292 293 292 291
299 295 297 295 299 300 299 298 295 295 300 301 297 299 298 293 294 293 295 292 293 295 295 295 289 291 293 292 291 290 289 288 288 290 288 291 289 291 292 292 294 294 293 291 290
291 291 294 292 295 299 299 296 295 297 297 295 296 298 298 295 297 295 297 296 293 292 291 293 289 291 287 290 289 287 290 289 289 291 291 291 290 296 295 295 292 291 290 290 290
294 295 294 292 291 291 296 297 296 299 300 301 299 298 296 298 302 301 300 299 297 292 290 290 289 285 285 286 284 282 286 288 289 291 291 286 292 291 290 290 292 292 290 290 291

GFSSW_sfc_thetae_033.txt.gz
Theta_e
321 321 322 322 323 324 325 325 325 326 327 327 327 326 325 324 324 320 310 317 321 329 323 315 315 315 315 312 311 310 302 299 300 301 303 306 304 307 309 307 307 307 307 306 308
321 321 321 322 322 323 324 325 325 326 326 327 327 325 324 323 319 312 321 328 330 330 314 312 309 311 310 309 311 306 302 300 305 305 304 306 306 306 305 305 305 305 306 307 308
321 321 321 321 322 322 324 325 325 326 326 326 326 325 324 322 313 310 325 328 331 322 315 314 312 309 306 309 307 305 301 302 304 305 307 305 305 307 305 303 306 306 306 306 307
321 321 321 321 321 322 323 324 325 326 326 326 326 324 323 319 303 313 326 329 329 317 315 312 310 306 304 303 307 302 303 304 305 306 305 304 307 305 306 306 307 307 307 306 305
322 322 321 321 321 322 323 324 325 325 326 325 325 324 319 311 311 320 324 327 318 315 312 309 306 305 302 303 305 303 304 305 306 305 305 305 304 305 305 306 305 304 304 303 303
322 321 321 321 321 322 323 324 325 325 324 323 323 321 314 307 318 318 315 315 315 313 310 310 307 308 304 303 303 304 304 304 305 305 304 302 304 303 306 305 303 303 303 302 301
322 321 321 321 321 322 322 323 324 324 322 321 321 318 312 311 320 318 313 312 314 312 309 311 311 307 307 303 305 303 300 303 304 304 302 303 300 299 306 304 302 303 302 301 300
321 321 320 321 321 321 321 322 321 322 321 322 322 315 310 313 322 316 315 312 313 313 312 312 312 308 306 306 303 300 301 298 303 302 301 302 299 305 303 302 301 302 302 301 298
319 320 320 320 320 321 321 321 321 321 320 322 317 312 308 316 313 317 315 310 311 311 311 310 311 306 304 300 299 300 296 299 300 302 301 300 300 302 303 302 302 302 302 301 299
318 319 319 320 320 320 321 322 323 318 318 316 313 308 309 305 310 312 313 312 308 309 307 307 306 302 302 300 294 297 297 299 298 300 299 299 299 302 301 302 303 303 302 300 299
318 319 319 319 320 321 321 322 313 312 313 309 310 309 306 306 309 309 311 308 308 306 301 304 299 297 300 302 302 300 298 297 301 300 297 299 300 302 302 301 302 303 302 300 298
318 319 319 319 320 321 322 313 313 311 306 313 312 310 306 308 301 306 309 304 303 299 303 298 296 302 304 302 300 298 296 297 301 299 296 298 298 302 303 302 303 303 303 300 297
318 318 319 319 320 319 317 316 315 313 306 307 311 309 306 305 304 303 306 305 301 300 299 298 300 300 299 297 296 297 296 297 297 296 297 296 295 298 302 304 304 302 304 301 298
318 318 317 319 315 317 313 319 321 315 298 300 303 309 306 306 302 306 308 303 299 298 299 299 302 297 297 296 298 294 300 297 296 294 291 297 290 298 302 299 298 299 300 299 298
318 318 317 319 315 312 315 321 322 314 285 302 302 307 306 304 302 299 305 301 298 297 298 297 295 295 295 297 299 296 298 297 296 294 294 294 290 296 301 299 298 297 298 298 297
317 317 317 317 319 318 319 319 317 296 285 296 299 299 299 302 298 298 299 302 302 298 297 298 298 298 298 296 298 298 296 294 294 294 287 292 292 294 296 296 300 298 297 297 295
317 317 316 319 310 315 316 312 294 288 300 294 295 297 299 296 295 297 294 294 294 291 293 296 296 298 298 294 295 296 294 289 286 285 286 291 291 295 299 296 298 296 296 295 295
317 317 315 318 320 313 313 302 287 293 295 299 297 297 295 296 295 294 294 293 297 298 297 293 291 297 297 298 295 293 295 290 283 285 288 286 285 293 299 297 296 299 296 295 293
317 315 314 316 319 313 305 289 290 294 298 297 295 293 293 294 295 293 293 296 298 298 294 294 294 298 297 298 300 292 290 297 289 284 286 290 292 297 293 292 293 295 294 293 292
313 311 311 318 317 310 299 291 295 301 301 302 293 296 293 293 292 292 294 298 298 299 302 299 292 294 294 295 296 295 297 287 289 284 283 289 291 292 290 292 292 292 292 292 293
312 305 314 318 313 303 292 292 297 303 304 300 297 296 297 295 294 291 296 299 300 298 299 299 295 290 291 291 292 290 290 291 292 291 286 285 290 299 298 297 293 293 294 294 293
308 300 315 317 299 300 294 298 300 300 304 301 301 299 297 298 293 293 294 299 300 298 293 299 296 292 291 294 296 296 293 293 288 285 287 288 290 295 300 300 297 295 295 296 295
302 304 315 312 294 294 298 298 299 299 300 300 298 300 302 297 291 296 298 302 300 297 296 297 292 288 290 290 291 289 292 293 292 290 288 286 290 294 294 297 297 296 295 295 295
303 296 304 307 304 298 295 295 295 301 300 302 300 301 299 298 298 297 297 298 299 298 299 298 294 292 289 292 294 288 289 291 291 287 288 289 292 290 292 293 294 296 296 295 294
301 295 297 295 298 299 298 298 295 294 301 301 298 299 298 294 296 294 298 295 295 296 296 296 289 294 294 296 296 293 291 290 288 290 288 292 292 297 294 294 296 296 296 295 293
292 292 295 293 295 298 297 295 295 298 298 296 295 299 299 296 298 295 297 297 294 293 292 294 288 292 289 294 294 291 293 293 290 291 291 293 293 301 298 297 297 296 295 294 294
295 299 295 290 291 291 295 296 296 299 300 301 299 298 296 299 303 304 303 300 300 295 290 290 288 287 285 290 290 283 289 291 293 293 293 289 294 295 296 294 295 295 294 293 294

GFSSW_sfc_thetae_036.txt.gz
Theta_e
321 322 322 323 323 324 325 325 326 327 327 327 327 327 326 325 324 322 313 318 323 328 323 315 314 314 313 311 310 306 296 294 295 296 299 302 300 301 302 300 302 303 300 301 304
321 321 322 322 322 323 324 325 326 326 327 327 327 327 325 324 319 314 321 329 330 330 315 311 309 310 306 308 307 301 297 297 301 300 299 301 300 302 299 300 298 299 302 303 304
321 321 321 322 322 323 324 325 326 326 327 327 327 327 325 321 314 311 325 328 331 323 315 313 311 308 304 305 303 301 296 298 301 303 303 302 299 301 298 297 300 300 300 302 302
322 322 321 321 322 322 323 324 325 326 326 327 326 325 323 319 303 316 327 329 329 317 314 313 308 303 301 300 305 298 300 301 304 304 302 300 302 299 300 298 303 302 302 302 301
322 322 322 321 322 322 323 324 325 326 326 324 325 324 319 311 312 320 324 326 320 315 311 309 304 303 299 301 302 299 301 302 304 302 301 303 300 300 299 301 301 302 302 300 299
322 321 321 321 321 322 323 323 325 323 324 323 323 321 316 306 318 318 315 317 315 312 309 308 305 306 302 301 299 302 302 301 302 302 301 299 299 299 300 300 299 300 299 298 298
321 321 321 321 321 322 322 322 322 321 322 323 324 318 312 311 320 315 314 312 313 312 309 310 309 305 304 301 303 301 296 299 300 300 299 300 296 297 301 300 299 298 297 297 297
321 321 320 320 321 322 322 322 320 321 322 323 324 316 308 315 320 316 314 311 313 312 311 311 310 308 304 303 301 296 295 292 299 300 298 297 292 300 300 298 297 297 296 296 296
319 319 320 320 320 320 321 321 321 323 321 321 317 313 306 317 312 316 314 310 310 310 310 310 310 304 302 295 293 295 289 293 295 300 297 295 294 297 299 298 297 296 296 296 295
319 318 319 320 320 320 320 321 322 322 319 317 314 307 307 306 311 313 313 312 308 307 306 305 302 297 296 294 288 291 290 294 293 296 296 294 293 297 298 298 297 297 296 296 295
318 318 319 319 319 320 319 318 313 310 313 307 308 308 306 306 311 309 311 308 307 304 297 301 295 292 295 297 298 296 293 292 295 296 294 294 295 298 297 296 296 297 296 296 295
319 318 319 319 320 320 319 312 311 310 303 312 311 310 308 307 301 306 309 302 301 296 300 295 292 299 301 300 297 295 292 292 296 296 293 293 293 297 298 297 298 298 297 296 293
318 318 318 319 319 318 315 313 315 313 304 304 311 309 306 305 302 302 305 303 299 297 297 294 297 300 299 295 295 293 292 292 293 294 292 290 289 293 298 300 299 299 298 298 293
319 318 318 318 314 315 311 318 320 315 295 296 304 308 304 305 300 306 306 302 299 296 297 296 300 296 295 295 295 291 296 296 294 289 285 291 283 292 296 297 299 296 295 294 293
318 318 318 319 313 310 313 318 320 314 280 300 301 309 305 302 300 299 304 300 296 295 297 294 293 293 293 295 297 293 296 293 292 290 288 288 286 290 296 295 296 294 294 294 293
318 317 317 316 315 315 318 318 316 294 282 296 298 298 297 300 298 298 298 300 300 296 294 294 296 295 295 294 295 296 293 291 290 289 281 289 288 288 293 296 296 295 295 294 292
317 317 315 316 307 318 318 312 292 285 295 292 294 297 297 296 295 295 293 291 291 288 288 292 293 295 296 291 293 293 290 283 280 279 280 287 287 291 294 293 295 295 294 294 292
317 317 315 316 316 317 314 297 282 289 290 298 297 296 294 296 295 293 291 289 293 293 291 288 286 293 295 295 291 290 291 284 279 279 281 283 281 288 293 293 293 296 295 293 291
317 315 314 315 317 314 304 286 286 290 295 294 295 292 292 295 294 292 292 292 294 294 290 291 291 296 295 296 296 290 287 294 285 277 278 285 287 292 290 289 290 292 292 291 291
313 311 310 317 318 310 299 288 291 297 298 296 290 294 290 292 290 290 290 295 295 297 298 296 289 293 291 293 294 291 294 284 284 274 275 283 286 287 287 289 289 291 291 291 291
310 304 312 317 315 303 289 289 294 300 300 295 293 292 293 293 291 289 292 295 298 297 298 296 292 286 290 288 289 288 287 289 289 285 279 278 284 292 293 292 289 291 292 291 290
307 298 313 315 300 299 294 296 298 298 302 300 298 297 296 295 292 291 291 296 300 299 293 296 294 283 286 290 292 291 290 290 283 282 285 282 286 292 293 294 293 292 292 292 291
301 301 314 312 294 294 297 296 298 297 297 298 298 298 299 296 292 293 294 299 300 298 294 296 290 285 285 287 288 287 290 292 292 287 285 281 285 291 291 292 293 291 292 292 291
301 295 301 306 304 298 293 293 294 300 298 300 299 300 297 296 298 294 294 297 298 298 299 299 292 290 286 288 291 284 287 290 290 284 284 287 289 286 289 289 291 292 293 292 292
301 296 298 293 297 298 298 295 293 293 298 300 297 297 296 292 294 294 295 293 294 297 297 296 288 291 293 294 292 288 287 288 287 288 286 289 289 293 292 290 292 293 292 292 291
293 292 295 293 295 294 298 294 294 295 297 294 295 297 298 294 295 293 296 294 291 292 291 293 287 290 288 291 291 289 292 289 289 289 290 290 290 295 296 294 291 293 292 291 291
296 297 295 293 293 291 289 292 295 298 299 300 298 297 296 298 301 302 301 299 297 291 289 289 288 286 285 288 287 285 289 291 291 291 291 286 292 295 295 292 292 292 293 292 292

GFSSW_sfc_thetae_039.txt.gz
Theta_e
322 322 323 323 323 324 325 326 326 327 327 327 327 327 327 326 325 320 310 317 320 327 323 310 308 307 307 304 303 299 291 288 291 292 294 297 296 299 300 299 299 299 298 299 303
322 321 322 323 323 323 324 325 326 326 327 327 327 327 326 325 317 311 321 327 330 328 311 306 303 303 300 301 301 295 290 292 295 295 295 298 297 299 296 296 295 296 298 301 302
322 321 321 322 323 323 324 325 325 326 326 327 326 326 325 322 310 308 326 328 329 322 312 308 306 303 297 298 297 296 291 294 297 300 300 299 297 298 296 294 297 297 298 300 299
322 322 322 322 322 323 323 324 325 326 326 325 325 324 322 316 297 313 326 328 328 314 310 307 303 297 295 295 300 292 296 298 301 301 299 297 299 297 296 296 299 299 299 298 298
322 322 321 321 321 322 323 324 325 324 324 324 324 323 315 305 307 317 323 324 317 310 307 304 299 297 293 296 298 295 296 299 300 299 298 300 297 297 295 296 299 300 299 298 297
320 321 321 321 321 322 322 323 323 321 322 323 324 323 310 299 315 315 313 313 311 308 304 304 301 301 297 296 295 298 298 298 300 299 298 297 295 296 296 296 297 298 296 296 297
320 320 320 320 321 321 322 322 322 320 321 323 324 318 307 305 314 310 311 309 309 307 305 306 305 300 299 296 300 298 293 295 297 298 297 297 294 295 297 296 296 295 294 295 296
320 319 319 320 320 321 321 322 322 322 323 323 323 312 302 312 313 312 309 307 308 308 307 307 306 303 300 299 297 293 291 288 295 297 296 295 290 298 297 295 294 294 292 293 295
319 319 318 319 320 320 320 321 321 322 324 323 312 307 301 315 311 312 309 306 306 306 305 308 305 299 297 291 289 289 286 288 293 296 295 293 290 295 296 296 294 293 292 293 293
319 318 318 319 319 319 320 321 320 320 320 318 313 300 303 303 308 310 308 308 304 303 302 301 298 293 292 289 284 287 287 290 290 294 293 290 291 294 296 295 294 293 292 292 292
319 318 318 318 319 320 317 314 307 304 308 299 302 302 302 304 308 306 307 305 304 300 293 296 291 289 292 292 293 291 289 288 291 294 292 291 291 294 296 294 293 292 292 293 293
319 319 319 318 319 319 314 308 307 306 299 309 308 307 305 305 299 304 306 299 298 293 295 292 289 295 296 295 294 292 290 289 292 294 292 291 291 294 295 294 295 295 295 294 290
319 318 318 318 319 316 311 310 312 308 299 302 308 307 302 303 300 300 303 299 296 294 294 290 295 298 296 294 293 291 289 289 290 291 290 288 287 291 294 296 295 297 297 296 292
319 318 318 318 313 312 308 315 316 311 288 292 300 305 302 303 297 305 304 300 296 293 294 293 298 295 294 293 293 288 293 293 291 288 284 288 282 289 294 294 294 296 294 295 291
319 318 318 318 311 308 311 315 316 308 276 293 300 306 302 300 298 298 301 298 293 294 295 292 293 292 292 293 295 291 293 291 290 287 285 285 283 287 293 293 296 296 295 293 291
318 318 318 316 314 313 315 317 313 292 279 292 297 296 296 298 295 296 297 299 298 294 293 292 294 294 294 292 294 294 292 291 289 287 280 286 286 285 291 294 296 292 291 291 290
317 317 316 317 308 316 318 311 288 283 291 290 292 295 294 294 293 293 292 291 290 287 286 290 291 293 294 290 292 292 289 281 279 278 280 286 284 290 293 294 295 295 292 290 290
315 317 315 316 316 318 313 293 281 287 288 295 294 294 291 294 292 292 290 288 292 290 287 287 283 291 294 292 290 288 289 283 277 277 279 282 281 288 294 294 292 295 294 291 289
313 315 314 315 316 316 300 284 287 289 293 292 293 289 289 292 291 290 288 288 291 292 289 286 286 292 293 295 295 288 286 292 284 273 276 283 286 291 290 290 289 290 291 290 289
309 310 310 317 316 311 297 287 289 297 296 294 289 291 287 289 289 288 288 292 293 295 295 293 287 290 289 294 292 291 292 285 283 274 273 280 282 287 287 290 289 289 290 290 290
306 302 312 316 314 302 291 289 292 297 298 294 291 290 290 289 289 287 289 291 295 293 296 294 292 285 288 287 288 288 286 289 289 284 278 276 283 290 293 293 289 290 291 290 289
301 296 312 315 299 299 294 295 297 295 298 297 297 296 292 293 290 288 288 293 297 295 291 295 292 280 285 289 291 291 289 288 283 282 281 281 286 290 291 293 291 291 292 291 291
297 299 312 311 293 294 297 295 297 295 296 296 296 297 298 294 290 292 292 296 297 295 292 295 290 282 283 286 287 287 289 292 291 285 283 280 286 290 289 291 291 289 290 290 290
296 292 299 304 303 297 295 293 292 297 297 298 297 299 296 294 297 293 291 295 297 297 299 299 291 290 286 287 288 285 287 290 291 283 284 287 289 288 288 290 290 289 291 290 290
296 292 296 291 292 295 297 296 293 292 297 299 295 295 295 292 293 292 295 293 295 297 297 297 288 289 292 291 290 288 287 288 287 289 285 289 289 293 294 291 292 291 290 289 289
292 292 295 293 291 293 293 289 294 294 295 294 293 296 296 293 295 292 295 294 292 292 294 294 288 290 288 289 290 288 289 289 289 289 289 290 290 294 296 296 291 291 291 290 290
296 297 294 291 291 291 291 290 292 297 298 298 297 295 295 297 300 301 300 299 296 292 290 290 288 286 285 289 287 284 289 291 290 291 290 286 292 293 295 295 291 291 291 291 292

GFSSW_sfc_thetae_042.txt.gz
Theta_e
322 322 323 323 323 324 325 325 326 326 326 327 327 327 327 326 324 318 307 314 317 328 324 308 306 305 305 302 301 295 289 287 289 290 292 295 295 297 297 297 297 297 296 298 305
321 321 322 322 323 323 324 325 325 326 326 327 326 326 326 325 315 308 321 327 327 326 307 304 301 301 299 299 299 294 288 290 293 293 293 296 296 297 295 295 293 294 297 299 303
321 321 321 322 322 323 323 324 324 325 325 326 325 324 324 321 307 305 326 327 326 320 310 307 304 300 296 296 296 293 290 293 295 298 297 296 294 296 294 292 296 296 297 299 299
321 321 321 321 321 322 323 323 324 324 321 324 324 324 323 314 294 310 326 325 326 314 308 304 300 295 294 293 297 289 294 296 299 299 298 296 296 295 295 295 298 298 298 297 297
321 321 320 320 320 321 322 323 323 321 321 323 325 324 314 302 305 314 323 321 314 308 304 301 297 295 292 294 296 292 294 297 299 298 296 298 295 295 295 294 296 298 298 297 296
319 320 320 320 320 321 321 322 322 322 321 323 325 323 308 297 313 313 312 311 308 305 302 302 299 299 296 295 293 296 296 296 298 297 297 296 294 295 295 295 296 297 296 295 296
319 319 319 320 320 320 321 321 322 322 322 323 324 317 305 303 312 308 309 306 307 305 302 303 303 299 298 295 298 296 291 293 295 296 295 296 292 294 295 295 295 294 294 294 295
320 319 319 319 320 320 320 321 321 322 322 324 325 310 300 311 311 308 307 305 306 306 305 304 304 301 298 297 296 291 290 287 293 295 295 294 289 295 295 294 293 293 291 293 294
319 318 318 318 319 319 320 320 320 321 323 324 310 305 299 314 310 310 306 304 304 304 304 307 303 297 295 290 288 288 285 286 291 295 293 292 290 294 293 293 292 291 291 292 292
319 318 318 318 317 319 319 320 320 319 318 318 312 298 301 301 307 308 306 306 302 301 299 299 295 292 290 288 284 286 285 287 288 292 291 289 290 293 294 293 293 291 291 291 292
319 319 318 318 318 319 316 311 302 300 305 295 298 296 301 303 307 305 306 304 302 298 292 294 290 288 291 291 291 289 287 287 289 294 291 290 290 293 294 292 292 291 291 292 292
320 319 319 318 318 319 313 305 304 305 297 306 306 305 303 304 299 303 305 299 297 292 293 291 288 294 294 293 291 289 287 287 291 293 291 290 290 292 293 293 294 295 293 293 291
320 319 319 318 319 315 309 309 310 307 296 299 305 305 302 303 299 300 302 298 294 292 292 289 294 296 295 292 291 289 288 287 289 289 289 287 286 290 294 294 294 295 297 295 293
319 319 318 318 312 311 307 314 314 309 285 289 298 303 301 302 297 304 303 299 294 292 293 291 296 294 292 291 292 288 293 292 290 287 283 288 282 287 291 292 293 295 294 295 293
317 319 318 317 312 308 311 315 314 303 275 291 298 305 300 298 297 297 300 297 293 293 293 291 292 292 291 292 294 291 293 290 288 285 284 284 282 286 290 290 294 298 295 294 293
313 317 318 315 314 313 315 316 313 289 278 289 297 295 295 296 294 296 297 298 297 293 292 291 293 294 294 293 294 293 291 289 287 285 280 286 285 284 289 293 293 295 294 293 291
313 313 316 317 309 317 318 306 286 281 292 288 291 294 294 292 291 293 291 291 290 287 287 289 290 292 293 291 292 291 287 280 279 277 280 284 282 289 292 294 295 297 295 290 290
312 312 314 317 317 317 312 294 280 288 288 294 293 292 290 293 292 291 289 289 292 289 286 286 284 291 293 292 290 289 287 281 276 276 279 282 280 287 293 296 293 293 293 289 287
311 308 312 315 316 316 301 284 288 288 292 291 292 288 288 291 290 287 287 288 291 291 288 284 285 290 290 293 295 287 286 291 284 271 276 283 286 290 291 291 291 291 290 287 287
303 301 306 317 316 311 295 289 290 295 295 295 290 292 287 288 288 287 286 290 291 293 294 291 284 288 289 292 290 289 292 283 282 274 273 280 281 286 287 290 292 291 289 288 287
303 296 305 317 313 303 289 288 292 295 296 293 292 292 291 289 289 286 288 291 294 292 296 293 291 284 288 287 287 287 286 287 287 282 277 274 282 289 293 293 292 292 291 289 288
299 291 307 314 297 298 294 294 295 293 297 295 295 294 291 292 290 288 288 291 295 294 290 293 292 282 284 288 288 288 287 288 282 280 281 280 287 290 291 292 292 293 291 290 289
294 293 306 310 291 292 297 297 298 294 294 294 294 295 295 292 290 290 290 294 295 294 291 294 288 280 282 285 286 285 288 292 288 283 284 280 286 289 290 290 292 292 290 289 288
293 286 293 301 299 295 292 294 294 299 296 296 296 297 295 294 295 290 290 294 295 296 298 298 291 287 284 286 287 284 286 288 290 285 285 285 289 288 289 291 292 291 289 288 288
292 289 289 288 290 294 293 294 292 292 297 297 294 295 293 291 292 292 295 292 293 296 296 296 289 290 292 290 288 286 288 288 287 289 285 290 290 294 294 291 292 292 290 288 287
288 287 290 289 291 292 292 291 287 294 295 293 292 294 295 292 294 292 294 294 293 293 294 294 289 291 288 291 288 287 287 288 289 290 290 291 290 294 293 293 291 291 290 289 289
292 296 293 289 288 287 288 291 291 293 293 297 296 294 294 295 298 300 298 299 297 295 292 290 291 288 285 289 286 284 289 288 288 291 290 286 292 292 293 294 294 292 291 291 291

GFSSW_sfc_thetae_045.txt.gz
Theta_e
321 322 322 323 323 323 324 324 325 325 326 327 326 325 325 325 324 315 303 312 315 328 323 307 303 302 303 300 298 293 288 286 288 289 291 294 293 295 295 296 294 296 296 297 307
321 321 321 322 322 323 323 324 324 325 324 324 325 325 325 324 314 306 320 327 327 325 305 302 299 300 298 298 297 292 287 290 293 291 292 294 293 296 294 293 291 293 295 301 304
320 320 321 321 321 322 322 323 323 323 321 321 325 325 324 319 304 303 326 327 326 319 308 305 302 298 295 295 294 290 289 292 294 296 296 294 293 294 294 291 295 295 297 300 300
321 320 320 320 320 321 322 322 323 321 321 321 324 324 323 312 291 308 325 325 326 313 306 302 298 294 293 292 295 292 292 293 297 297 295 294 295 293 294 295 296 297 299 298 300
321 320 320 320 320 321 321 322 322 322 322 323 325 323 312 300 302 312 322 320 311 306 302 299 296 294 291 293 294 290 292 295 297 296 295 297 294 294 295 295 295 296 297 297 298
320 319 320 320 320 320 321 321 322 322 322 323 325 322 307 294 311 311 310 309 306 303 300 300 297 297 295 293 292 294 295 294 296 295 295 295 293 293 295 293 293 296 295 295 296
319 318 318 320 320 320 320 321 321 321 322 323 325 315 302 300 310 307 307 305 305 304 301 301 301 297 296 293 296 294 290 292 292 295 294 295 292 293 294 294 294 294 293 294 295
320 319 318 318 319 319 320 320 320 321 321 323 324 307 297 309 310 307 305 303 305 305 304 303 302 300 297 296 294 290 289 287 291 294 293 292 287 294 294 293 293 292 292 293 294
319 318 318 318 318 319 319 320 319 320 322 323 308 303 295 312 308 309 304 302 303 302 303 306 301 295 294 290 287 287 284 285 290 294 292 291 288 292 292 292 292 291 291 292 292
319 318 318 318 317 317 319 320 319 319 317 315 310 294 299 299 305 306 304 304 301 299 298 298 294 291 288 288 283 285 284 285 286 291 290 288 289 292 292 292 293 291 291 291 292
320 319 318 318 318 318 315 308 298 296 304 294 295 293 299 302 305 303 304 302 300 297 291 293 289 287 290 290 289 288 286 286 288 292 290 289 289 293 293 291 291 291 291 292 293
320 320 319 318 318 319 312 302 298 302 294 303 303 303 303 303 298 301 304 298 295 291 292 290 287 292 292 291 289 287 286 286 289 291 290 289 289 292 291 292 294 294 294 293 293
318 320 319 318 318 315 309 306 310 307 293 296 303 302 302 302 298 299 301 297 293 291 291 289 292 294 293 290 289 288 286 286 288 289 288 287 286 289 293 292 293 294 297 297 295
317 318 319 318 311 311 306 312 313 306 285 288 295 301 300 301 296 302 302 298 293 292 291 291 294 293 291 290 291 286 291 290 288 286 283 286 281 286 290 292 292 295 295 296 294
313 315 319 317 311 308 310 315 313 300 282 292 296 303 299 297 295 296 299 297 292 292 292 290 291 291 290 291 293 289 291 289 287 285 282 283 281 285 288 290 293 296 297 295 294
312 313 315 315 314 314 316 315 310 290 280 287 296 294 294 294 293 294 296 297 296 292 291 290 292 293 293 292 293 292 290 288 286 284 279 285 284 284 287 291 293 295 296 295 293
312 312 310 317 309 316 317 306 287 282 292 288 291 293 292 290 290 291 291 290 289 286 286 288 289 291 293 290 291 290 287 280 278 277 279 283 282 289 291 293 295 297 295 293 290
311 310 308 314 317 317 310 294 281 288 288 292 291 292 290 292 290 290 289 287 291 288 285 285 282 290 292 292 290 288 287 281 275 275 278 282 280 287 291 294 293 294 294 291 289
309 303 307 311 317 316 301 285 287 288 291 291 291 287 287 290 290 288 287 287 291 291 287 284 284 289 290 291 294 287 284 289 283 271 275 282 285 289 291 291 291 292 291 290 289
301 300 300 313 316 310 295 291 293 294 293 294 290 292 287 288 289 286 286 289 290 293 293 290 283 287 288 291 290 289 291 283 281 273 271 279 281 285 289 291 293 292 292 290 288
299 296 301 313 313 302 291 289 292 294 296 292 292 291 289 288 289 285 288 290 291 290 295 292 288 283 287 286 286 286 285 285 286 282 277 274 282 288 292 292 292 293 294 291 288
293 289 301 313 294 296 291 296 295 293 297 294 294 294 290 291 289 288 288 290 294 293 289 292 290 281 284 287 288 286 286 288 281 279 280 280 285 289 291 293 292 293 293 289 289
287 289 300 307 287 288 293 294 297 294 295 293 293 293 293 293 290 291 289 293 294 293 291 294 288 276 281 285 285 285 287 290 288 283 283 278 285 288 288 290 291 292 291 290 288
287 282 289 293 295 291 289 289 291 299 296 296 294 296 294 292 295 289 289 292 294 294 297 297 290 285 284 284 286 283 285 288 288 283 284 285 289 289 290 289 291 292 291 289 288
288 283 286 285 286 289 291 292 289 290 298 297 294 294 293 290 291 290 291 291 292 295 295 295 288 289 291 291 287 285 285 287 287 289 285 289 289 294 294 292 292 294 291 289 288
286 282 286 286 287 289 287 288 288 290 292 293 292 294 294 292 293 291 293 292 292 292 292 294 287 289 287 290 290 286 286 287 288 290 290 291 290 294 293 292 291 293 292 290 289
292 289 288 284 284 284 286 288 287 291 294 295 295 294 293 295 298 299 298 299 297 295 291 291 289 286 284 288 288 283 288 289 288 290 290 287 292 292 295 295 295 296 291 291 292

GFSSW_sfc_thetae_048.txt.gz
Theta_e
321 322 322 322 322 323 324 324 324 325 323 322 325 325 325 325 323 313 301 311 314 327 322 305 302 300 301 298 296 291 288 285 287 288 290 293 292 292 293 294 293 295 296 298 309
320 321 321 321 322 322 323 323 323 322 321 321 323 325 325 324 311 304 319 327 326 324 304 300 297 299 297 296 295 289 286 289 291 289 292 292 292 295 293 292 293 293 294 301 305
320 320 320 320 321 322 322 322 323 322 322 323 324 325 324 318 302 302 324 326 326 317 306 303 300 297 293 296 296 288 287 291 292 294 294 293 291 294 293 290 294 295 296 301 301
320 320 319 319 320 321 322 322 322 322 323 323 325 325 323 309 289 307 322 324 325 310 304 301 297 294 291 293 294 291 291 291 295 295 293 292 294 293 293 294 294 296 298 300 301
320 320 319 319 319 320 321 321 322 322 322 323 325 325 310 298 301 311 320 318 308 304 300 297 294 293 290 292 292 291 291 294 295 294 295 295 293 293 293 294 294 295 299 300 301
319 319 319 319 319 320 320 320 321 321 322 322 324 323 305 292 310 310 307 306 305 301 299 299 296 296 293 291 290 293 293 293 294 294 293 293 294 296 296 293 292 294 295 297 299
319 319 318 318 319 319 319 320 320 320 321 322 324 314 301 297 309 305 306 303 303 302 299 300 299 296 294 292 294 293 290 291 290 293 292 295 291 293 294 292 293 293 293 294 295
320 319 318 318 318 319 319 319 320 320 321 322 323 305 293 307 309 306 304 302 304 304 302 302 301 299 295 294 293 289 288 286 289 293 292 291 286 293 292 293 294 292 291 292 294
320 319 318 318 318 317 319 319 319 320 321 322 307 301 292 311 306 307 303 301 301 301 302 304 300 293 293 289 287 287 283 284 289 293 291 289 287 291 291 291 292 291 291 292 292
320 319 318 318 318 317 318 319 319 318 315 312 308 292 296 297 304 304 302 303 299 297 297 297 293 290 287 287 282 284 283 284 285 289 288 287 288 292 292 291 292 291 291 291 292
321 319 319 318 318 318 314 304 295 293 302 292 293 291 297 302 304 302 302 300 298 296 290 291 288 287 289 288 288 286 284 285 286 290 288 288 288 291 293 290 291 291 290 292 293
318 321 320 319 318 318 310 299 295 300 293 300 300 300 302 303 298 300 302 297 293 290 291 289 286 291 291 290 288 286 285 285 288 289 288 288 289 292 291 291 292 294 293 293 293
316 318 320 319 318 314 307 305 310 306 292 294 301 300 300 301 298 299 301 296 292 290 290 287 290 293 292 288 288 287 285 285 287 288 287 285 285 287 291 291 292 293 296 296 295
313 316 318 318 312 310 306 311 311 304 287 290 293 299 299 300 295 300 301 297 291 291 290 289 292 292 289 288 290 284 289 288 287 285 282 285 280 285 289 291 292 295 293 295 296
312 313 316 317 311 308 311 313 312 300 283 293 294 302 298 294 294 295 298 296 291 291 291 288 290 289 288 290 291 288 290 288 287 284 281 281 281 284 287 289 292 296 295 294 295
312 312 312 315 314 314 316 316 310 291 283 288 295 293 293 293 292 294 295 296 295 291 290 288 292 292 292 291 291 292 289 287 285 283 279 283 283 283 286 290 291 295 296 295 293
311 311 308 308 309 316 316 306 288 283 294 289 290 292 291 289 290 291 290 289 288 285 285 287 288 290 291 289 290 288 287 280 277 276 278 282 281 288 289 292 291 294 295 292 292
308 309 306 309 317 316 309 294 282 286 290 293 291 290 289 290 289 289 288 287 290 287 283 283 281 289 291 291 288 287 287 280 274 274 277 281 280 285 291 292 292 292 293 291 291
308 301 303 308 313 315 301 287 288 289 294 292 292 288 287 289 289 287 286 286 290 289 285 283 283 288 289 290 293 286 284 288 283 270 275 281 283 288 290 291 291 291 291 292 291
296 296 298 309 313 309 296 290 291 295 294 294 289 292 286 287 288 286 285 289 290 292 291 288 283 286 288 290 289 288 290 283 281 274 271 278 280 283 288 290 292 291 292 292 290
293 290 298 307 311 300 289 290 292 295 297 293 291 289 289 287 288 285 287 288 290 290 295 291 288 283 286 286 285 286 285 284 285 281 276 273 282 287 290 292 291 293 293 291 291
290 285 298 310 292 293 289 292 295 292 296 296 294 293 290 289 288 286 287 289 292 292 288 291 288 281 284 286 286 285 285 286 280 278 279 279 284 289 290 291 291 292 292 291 290
286 286 296 303 285 286 290 291 293 294 294 294 293 294 294 293 289 289 288 292 293 293 291 292 288 278 282 284 284 284 286 288 286 283 281 277 284 288 287 289 290 291 291 291 290
287 280 286 294 294 289 287 287 288 294 294 296 295 295 291 292 295 290 289 291 293 293 297 297 290 286 283 283 285 282 284 287 289 283 284 284 288 288 289 290 291 291 292 291 291
289 282 284 282 282 284 289 290 287 286 294 296 293 294 293 290 290 290 291 290 291 294 294 295 287 287 290 288 285 285 284 286 287 288 283 288 288 292 294 294 295 294 292 291 290
286 282 284 282 284 286 286 282 285 289 290 289 291 293 293 290 291 288 292 290 290 290 292 294 287 289 286 289 288 286 285 287 287 289 289 289 289 296 297 293 291 292 293 293 291
292 292 288 283 281 280 281 284 285 287 289 293 292 291 292 294 297 298 297 297 296 293 289 291 288 286 284 288 287 284 287 289 289 291 290 285 291 296 295 295 296 296 293 293 293

GFSSW_sfc_thetae_051.txt.gz
Theta_e
321 322 322 322 322 323 323 323 324 323 322 323 323 325 326 325 324 314 301 311 315 327 323 305 303 302 302 301 299 296 291 288 290 290 294 294 295 296 298 298 299 300 302 304 313
320 321 321 321 322 322 322 322 323 323 323 324 325 325 326 325 310 304 318 326 326 323 304 300 299 300 298 298 297 292 289 291 292 292 293 295 295 296 297 296 297 298 300 305 311
320 320 320 320 321 321 322 322 322 322 323 324 325 326 325 319 301 301 323 326 326 317 306 304 300 299 296 296 295 292 289 292 294 295 296 295 294 296 295 294 297 298 299 304 309
320 320 319 320 320 321 321 321 322 322 323 323 324 325 323 309 289 306 322 326 325 310 304 301 298 295 293 293 295 291 292 293 297 297 295 294 295 295 295 298 299 299 300 304 308
319 319 319 319 319 320 320 321 321 321 322 323 324 324 310 298 300 311 321 317 307 304 300 298 295 294 292 294 294 292 293 295 296 295 294 296 294 295 295 297 298 297 300 303 308
319 319 319 319 319 320 320 320 321 321 321 322 324 322 302 291 309 308 306 305 304 302 299 299 296 296 294 292 292 294 295 294 295 295 295 295 294 295 297 296 297 296 298 301 305
319 319 319 318 318 319 320 320 320 320 320 322 323 313 298 296 309 305 306 303 303 302 300 300 300 297 296 294 295 293 291 293 292 294 294 295 292 294 296 296 296 296 296 297 300
320 319 318 318 318 318 318 319 320 320 321 322 323 304 292 306 309 306 304 302 304 303 302 301 301 299 296 295 293 290 290 287 291 293 294 293 289 294 294 295 296 295 294 294 296
320 319 319 318 318 318 318 319 319 320 321 321 305 300 291 311 306 307 303 301 301 301 301 303 299 294 294 290 288 287 284 285 289 293 292 291 289 293 294 293 294 294 294 294 294
320 319 319 318 318 317 318 319 318 317 314 309 306 292 295 297 304 304 302 302 299 297 297 297 293 290 288 288 282 284 285 285 286 290 290 289 289 292 293 293 294 294 294 294 294
320 320 319 319 318 318 313 303 293 291 300 292 291 291 296 302 304 301 302 300 297 296 290 292 289 287 289 289 287 287 285 285 287 291 290 289 289 291 295 292 292 294 294 295 295
318 319 320 319 318 318 310 299 296 298 292 298 297 298 301 303 298 300 302 296 293 290 290 289 287 290 291 289 289 287 285 286 288 289 290 289 289 292 293 295 295 296 297 296 297
315 317 319 319 318 313 307 304 310 304 290 293 300 298 298 301 297 298 300 295 291 289 289 287 289 291 291 288 288 286 285 285 287 288 288 287 286 288 292 292 293 294 297 297 298
312 314 318 318 312 311 308 310 312 306 287 290 292 298 299 300 293 299 300 297 291 290 288 288 291 290 288 287 289 284 289 288 286 286 282 286 280 286 290 291 292 295 295 296 297
311 312 316 318 310 309 311 315 311 304 283 293 292 300 297 293 293 295 298 295 291 291 290 288 289 289 287 289 290 287 289 288 287 285 283 283 282 286 287 289 292 295 297 298 295
310 311 311 314 313 313 316 315 309 292 283 289 294 292 292 292 292 293 295 296 294 291 289 288 290 291 291 290 290 290 288 287 285 284 279 283 284 283 286 290 292 294 295 295 294
308 310 308 309 309 316 314 307 289 283 295 288 289 291 290 288 289 290 290 289 287 284 284 286 288 289 291 288 289 288 286 279 277 276 279 282 281 287 289 291 292 295 296 294 294
306 308 304 307 310 315 308 295 283 287 289 292 291 290 288 290 288 288 288 286 289 285 282 283 280 288 291 290 288 287 286 280 274 274 277 281 280 286 291 292 292 292 293 292 293
305 298 300 305 310 313 300 286 288 288 292 292 292 288 286 288 288 287 286 286 289 288 284 281 282 287 288 289 292 286 284 287 282 270 276 280 283 288 289 290 291 294 291 293 293
295 294 296 305 309 308 296 289 292 295 293 293 290 292 286 288 287 286 285 288 289 291 290 286 281 285 287 290 289 287 290 283 281 274 271 278 280 284 288 291 292 291 293 293 293
291 287 295 305 309 298 289 290 291 295 296 293 290 290 289 288 288 285 287 288 290 289 294 290 287 283 286 285 285 286 285 284 284 281 275 273 281 286 289 291 291 292 292 293 293
289 281 296 306 292 293 288 289 296 294 295 295 294 294 291 290 289 287 286 288 291 291 289 291 288 280 283 285 286 285 285 285 281 278 279 278 284 288 291 291 291 292 293 293 293
284 284 294 301 282 284 287 289 291 292 294 294 293 293 295 291 288 289 289 292 292 292 290 292 287 277 281 284 283 283 285 286 285 283 280 278 284 288 289 291 291 292 292 292 292
288 279 284 291 290 286 284 285 286 291 291 294 293 294 293 291 294 289 288 290 292 293 297 296 290 285 283 283 285 282 283 287 288 282 285 282 288 291 288 290 291 292 293 293 293
289 283 283 277 281 285 288 288 285 284 291 292 290 292 292 289 290 290 292 289 291 294 294 294 287 289 289 289 285 285 284 285 286 288 284 288 288 292 294 292 295 295 294 293 294
286 284 285 281 283 281 282 281 284 287 289 288 287 290 290 289 291 288 290 291 291 289 291 292 287 288 286 289 289 285 285 286 287 288 288 289 288 296 295 294 291 293 293 294 293
292 292 288 283 280 279 279 282 282 284 286 288 287 286 286 290 295 296 296 295 295 293 291 290 287 286 284 287 285 283 287 288 289 289 288 285 291 295 294 295 296 295 292 295 295

GFSSW_sfc_thetae_054.txt.gz
Theta_e
322 322 322 322 322 323 323 323 323 323 324 324 325 326 326 326 325 319 307 314 317 327 324 312 310 310 311 307 306 305 303 299 299 299 301 302 302 302 304 305 307 309 307 312 324
321 321 321 321 322 322 322 322 322 323 324 324 325 326 326 325 316 310 321 326 327 325 310 308 307 308 307 305 306 305 301 300 302 303 302 302 303 303 303 303 305 305 307 310 323
320 320 320 320 321 321 322 322 322 322 323 324 324 326 325 323 308 307 325 326 327 320 312 310 308 307 304 305 303 300 300 300 301 302 302 302 301 304 303 301 306 306 308 309 320
320 320 319 319 320 321 321 321 321 322 322 323 324 325 323 316 296 311 322 326 326 315 311 307 306 304 302 301 302 299 299 301 302 303 302 301 303 302 303 306 306 308 308 310 317
320 319 319 319 319 320 320 320 321 321 322 322 324 324 316 307 306 316 321 319 312 310 307 305 304 303 300 302 301 299 300 301 303 302 302 301 302 302 302 307 305 304 305 309 313
319 319 319 318 319 320 320 320 320 321 321 322 324 323 310 299 314 312 310 311 310 308 307 306 304 305 303 300 300 301 301 301 302 302 302 301 302 301 305 307 304 304 306 308 311
320 319 318 318 317 318 318 320 320 320 320 321 324 315 305 302 315 312 311 310 309 309 307 307 306 305 305 301 302 300 299 300 300 301 301 301 299 299 306 303 304 305 306 307 309
320 319 318 318 318 318 318 318 319 320 320 322 324 311 300 311 317 310 310 309 309 310 309 308 309 306 304 303 301 299 299 296 298 299 300 300 297 302 302 302 304 306 307 306 307
320 319 319 318 318 318 318 319 319 319 321 322 311 306 298 315 311 312 309 307 307 307 307 306 307 302 302 300 298 298 294 294 296 299 299 299 298 302 301 301 303 305 305 306 306
320 319 319 318 318 318 318 319 319 319 316 311 308 299 302 302 309 309 308 307 305 305 305 304 303 301 300 298 291 294 293 293 294 297 297 297 297 302 304 300 303 305 306 306 305
319 321 319 319 318 318 317 308 301 299 306 298 298 298 301 307 309 307 307 305 304 303 299 299 298 296 298 299 295 295 294 293 295 297 296 298 298 300 303 304 302 304 305 306 307
316 319 321 319 319 318 316 303 301 306 299 302 301 301 305 308 303 305 307 303 301 297 298 297 294 300 298 296 295 295 294 294 296 295 295 297 296 300 302 302 304 305 306 307 308
313 315 318 319 318 316 313 307 314 309 297 298 302 301 301 306 301 303 305 301 298 295 296 295 296 297 297 294 293 294 294 294 293 294 296 294 294 298 301 301 302 304 305 306 307
312 312 318 318 313 314 313 314 315 310 295 296 296 301 302 304 299 303 305 303 297 296 296 296 297 295 294 293 295 292 296 294 292 293 290 294 287 296 299 299 300 303 305 306 306
311 311 316 318 313 312 314 316 316 311 286 297 296 305 301 298 299 299 303 302 297 295 296 294 294 293 293 295 296 294 295 294 293 293 291 291 289 294 294 296 299 303 305 307 308
309 310 311 314 314 315 317 316 312 294 285 294 297 296 296 296 296 298 300 302 301 296 295 294 296 297 297 294 296 295 295 293 293 292 287 291 290 291 295 296 298 301 304 305 305
307 308 307 309 309 317 316 310 291 284 296 293 292 295 294 292 293 296 295 294 293 289 290 292 293 295 296 294 295 295 294 286 285 285 285 288 287 292 297 299 299 301 304 304 303
305 306 305 305 312 315 310 297 284 290 292 296 294 293 292 293 292 292 293 292 295 292 289 288 286 293 296 296 293 293 294 288 282 282 286 285 285 292 298 300 300 301 302 303 302
304 303 303 306 309 311 302 287 290 293 296 294 293 291 290 292 293 292 292 292 295 294 289 287 287 293 293 295 297 291 289 295 288 281 284 288 292 296 297 296 297 299 301 302 304
300 298 297 307 311 308 296 289 293 298 298 296 291 293 290 291 290 290 290 294 293 296 297 292 286 290 292 295 294 293 296 287 288 283 281 286 287 290 296 298 300 299 300 302 303
297 291 298 305 311 300 289 291 294 298 298 295 294 293 293 291 292 289 291 294 295 294 297 295 291 288 291 290 290 290 289 289 290 288 284 283 288 297 297 299 299 300 300 301 302
295 285 299 308 294 295 290 294 296 296 299 297 297 296 294 294 292 293 292 294 296 296 291 295 291 287 288 291 292 292 292 292 287 284 286 285 288 295 299 300 299 300 300 301 301
290 290 299 302 285 288 291 291 294 295 296 295 294 297 298 293 288 293 294 297 296 296 295 295 289 285 287 289 290 289 291 293 293 289 287 285 289 297 297 298 300 300 301 301 301
291 284 290 293 295 288 286 287 288 294 294 296 295 297 295 293 295 292 293 296 296 296 298 297 290 288 285 290 291 287 289 291 291 287 287 289 291 296 297 298 300 300 301 303 302
292 285 289 283 286 288 288 287 285 286 293 294 291 292 293 289 291 291 294 295 296 295 294 295 288 291 292 294 290 291 290 290 288 291 288 291 292 295 298 299 300 302 302 302 302
287 286 287 286 287 286 286 285 286 287 288 287 287 291 291 289 291 289 293 293 292 293 293 294 287 291 288 293 293 290 293 292 291 292 292 292 292 300 301 302 299 299 299 300 302
293 293 290 285 285 284 284 285 285 289 288 290 289 286 285 288 292 292 294 295 296 293 293 291 287 285 283 290 289 284 289 292 292 294 294 289 295 300 299 299 299 300 301 299 301

GFSSW_sfc_thetae_057.txt.gz
Theta_e
322 322 321 322 322 322 323 323 323 323 324 325 325 326 326 325 324 321 309 315 318 328 322 314 313 313 313 311 310 310 303 300 302 301 303 306 305 307 309 307 308 311 310 317 323
321 321 321 321 321 322 322 322 322 322 323 324 324 325 326 325 320 312 319 326 328 325 313 310 308 310 308 309 310 306 302 302 305 306 304 305 306 306 304 305 306 308 311 318 325
320 321 320 320 320 321 321 321 321 322 322 323 324 325 325 324 311 310 323 326 327 319 314 312 311 309 305 307 307 306 302 304 304 305 306 305 304 307 304 304 307 307 309 313 322
320 319 319 319 320 320 320 321 321 321 322 322 323 325 323 320 298 312 323 325 324 317 313 310 308 305 303 302 305 301 303 303 304 305 304 304 306 304 305 307 309 311 311 311 318
320 319 319 318 319 319 320 320 320 321 321 322 323 324 320 308 308 316 321 321 315 313 310 308 305 305 301 303 303 301 302 303 305 304 304 304 304 304 306 309 309 308 308 310 314
319 319 319 318 319 319 319 320 320 320 320 321 324 323 312 301 316 315 313 312 312 311 309 308 306 307 304 303 302 303 303 303 304 304 304 302 304 303 306 310 309 308 308 310 311
319 319 318 317 317 317 318 318 319 320 320 321 324 317 307 306 317 314 312 312 312 311 308 309 309 306 306 302 305 303 299 302 302 303 302 303 300 301 306 307 307 307 308 309 310
320 319 319 318 318 318 318 318 318 319 320 321 323 314 302 313 319 311 313 311 312 312 311 311 311 308 306 306 303 300 301 297 302 302 303 302 296 303 307 306 305 307 308 309 310
320 319 319 318 318 318 318 319 319 319 320 321 312 309 300 317 312 313 311 309 310 310 309 309 310 306 304 301 298 300 294 296 299 302 301 301 299 305 305 304 304 306 307 308 309
320 319 319 319 318 318 319 319 319 319 316 313 310 302 303 303 312 311 311 310 307 307 306 305 304 301 301 299 291 295 295 296 296 300 299 299 299 303 306 305 305 307 308 309 309
319 320 320 319 318 318 320 311 305 302 306 301 300 299 303 309 312 309 309 307 307 305 299 302 297 295 298 300 300 297 297 295 298 300 298 298 299 301 305 305 305 306 306 307 309
315 317 321 319 319 318 319 305 305 309 300 304 302 302 306 310 304 307 309 304 303 299 301 298 295 300 301 300 298 297 295 295 299 299 296 298 297 301 303 304 305 306 306 307 309
312 313 316 320 318 318 318 310 315 312 299 301 303 302 302 307 302 304 306 305 301 299 298 295 297 300 298 296 295 296 295 295 295 297 299 297 295 299 303 305 305 306 307 308 309
311 311 316 318 315 319 316 318 317 314 300 300 298 303 303 306 299 306 308 304 300 297 298 297 299 297 296 295 297 292 299 297 295 294 290 296 288 296 300 301 304 305 306 307 309
310 309 310 314 317 315 317 319 318 313 286 300 298 306 304 300 300 301 305 303 298 298 298 295 296 295 294 295 298 295 298 296 295 294 293 293 290 294 300 298 301 304 307 308 310
308 308 309 315 317 317 320 319 315 296 286 296 299 298 297 298 298 300 301 304 303 299 298 297 299 299 298 297 298 298 297 296 296 294 287 292 291 292 296 299 301 304 306 307 308
306 307 307 308 310 318 318 311 294 285 299 296 294 297 297 295 295 298 296 295 293 290 291 295 295 298 299 295 297 297 294 287 286 286 285 291 290 293 298 301 302 302 304 307 307
305 305 308 305 312 316 311 298 285 292 296 298 296 296 294 296 295 295 295 293 297 295 292 290 287 295 298 297 294 294 294 288 282 284 287 289 286 293 301 303 304 304 305 306 307
303 304 303 308 308 312 302 287 289 293 298 296 295 292 293 295 295 294 294 294 297 297 290 290 289 297 297 298 298 293 290 297 290 286 285 289 293 298 300 299 301 302 303 304 306
300 299 298 308 310 308 296 290 294 299 300 299 293 296 292 293 291 292 293 297 296 298 299 294 288 293 294 296 297 295 297 288 289 284 282 286 289 291 297 299 300 301 303 305 306
299 293 299 307 311 300 289 292 295 300 301 297 295 294 295 293 292 291 293 296 297 296 299 296 292 289 292 291 291 291 290 291 291 289 284 283 288 298 298 300 300 302 303 304 305
296 287 302 308 295 296 291 294 297 297 300 298 299 297 295 295 293 294 293 296 298 297 293 296 293 288 289 295 295 295 293 292 287 285 288 287 288 298 300 301 302 302 303 305 305
291 292 302 304 286 290 293 294 296 296 296 296 295 298 298 295 291 294 296 301 299 298 295 295 289 286 287 291 292 290 293 293 293 291 288 285 287 299 301 300 302 302 304 304 305
292 285 292 295 296 290 289 289 290 296 296 298 296 298 295 293 296 293 294 298 299 300 298 297 290 288 286 290 293 289 291 293 291 287 287 289 291 296 299 300 302 303 303 304 305
292 287 291 285 287 290 290 288 287 287 294 295 293 295 294 290 292 292 295 296 296 297 296 295 286 290 292 294 293 292 292 292 290 291 287 291 292 296 299 300 302 304 304 304 304
289 287 290 289 290 288 288 286 285 288 289 288 289 291 294 290 291 289 292 293 293 297 295 295 287 291 287 293 294 290 293 293 293 292 292 293 293 300 302 303 303 303 303 303 303
293 295 292 287 287 287 286 286 287 289 290 291 290 290 289 291 293 294 294 294 293 291 292 290 287 285 283 289 288 284 289 293 294 296 295 290 296 301 300 300 301 303 304 303 304

GFSSW_sfc_thetae_060.txt.gz
Theta_e
321 322 322 322 322 322 322 322 322 323 324 324 325 326 326 326 323 321 311 316 320 326 321 313 312 311 313 310 310 307 297 295 298 297 298 302 300 301 301 301 302 306 303 310 319
322 321 321 321 321 321 322 322 322 322 322 323 324 325 325 325 321 314 318 327 327 325 314 308 306 308 306 308 307 301 297 298 301 300 299 301 300 301 298 299 299 302 306 314 321
321 320 320 320 320 321 321 321 321 321 322 322 323 325 325 323 313 310 325 327 327 320 314 311 309 306 303 305 303 302 297 299 300 303 302 301 299 301 299 296 300 301 304 314 318
320 320 319 319 319 320 320 320 321 321 321 322 323 324 323 320 300 312 324 326 326 317 312 309 306 302 300 299 303 296 300 300 303 304 301 299 302 299 300 299 303 303 306 312 316
320 319 319 318 319 319 319 320 320 320 321 321 323 324 320 310 309 315 321 319 315 312 309 306 303 302 298 299 300 296 298 300 302 301 300 302 298 299 299 303 303 304 305 307 313
320 319 319 318 319 319 319 319 320 320 321 321 323 323 314 301 317 314 312 312 312 309 306 306 304 304 300 299 298 300 300 299 301 301 300 299 298 298 300 303 302 303 302 303 306
319 319 319 318 317 318 318 319 319 319 320 321 323 317 307 306 317 314 312 311 311 310 307 308 307 304 303 299 302 300 295 297 298 300 298 299 296 296 301 301 301 301 301 303 304
320 319 319 318 318 318 319 319 319 319 320 321 323 315 303 315 316 311 312 310 311 311 310 309 308 306 303 302 300 296 294 290 297 299 298 296 289 298 299 299 299 300 300 301 303
319 319 319 319 318 318 319 319 319 319 320 322 314 308 301 316 311 311 310 308 309 309 308 308 308 303 301 295 292 293 287 289 294 299 297 296 292 298 299 297 296 298 299 301 302
320 319 319 319 318 318 319 320 319 318 317 314 309 302 303 304 312 310 309 310 306 306 304 305 301 296 295 292 285 288 288 290 289 295 294 293 293 298 299 299 299 299 300 300 301
318 320 320 319 319 319 318 312 306 303 306 301 300 299 303 309 311 308 309 306 305 302 295 299 292 289 293 295 295 293 291 290 292 295 293 293 294 296 298 298 297 298 299 300 301
313 314 317 320 319 319 316 306 306 309 299 304 302 302 307 309 303 306 308 301 300 295 298 294 289 296 298 298 295 292 290 289 293 296 292 292 292 295 297 298 299 299 299 300 300
312 312 314 319 319 317 317 311 315 312 299 300 303 301 303 307 302 303 305 302 298 296 295 292 295 299 297 293 293 291 290 290 290 293 293 289 289 292 297 298 299 300 301 301 300
310 310 312 319 315 319 315 316 316 314 297 297 297 302 303 305 299 305 306 302 298 295 296 294 297 296 293 293 294 289 294 294 292 288 283 292 281 288 293 293 297 298 299 299 300
309 309 309 314 315 313 316 319 317 311 284 299 296 307 304 298 299 300 304 301 295 295 294 292 293 292 292 293 295 292 295 293 292 288 288 286 283 287 292 291 294 297 298 299 302
306 307 308 314 317 316 319 319 315 295 283 294 299 297 296 297 298 300 299 301 300 296 294 293 296 295 294 295 295 297 294 292 291 289 280 287 285 284 288 291 293 295 297 300 300
305 306 305 307 308 317 318 311 293 285 298 294 294 297 296 293 295 296 294 292 291 287 287 292 292 294 296 292 294 293 289 280 280 279 278 286 284 288 293 295 294 295 295 298 298
304 304 308 305 311 315 312 300 284 291 294 298 297 296 293 295 294 294 293 290 294 291 287 286 284 292 295 294 290 290 289 282 276 278 279 283 280 287 294 295 295 297 297 299 300
304 303 302 309 308 312 303 286 288 293 298 295 295 291 292 294 293 292 291 291 294 294 287 286 287 293 294 294 295 290 286 292 284 277 277 283 287 292 294 294 295 295 296 296 299
299 299 298 308 309 308 297 289 292 298 298 299 292 295 290 291 290 290 290 294 294 297 296 291 285 290 291 293 293 291 293 284 283 274 273 280 282 285 290 293 295 293 295 297 298
298 291 300 308 310 300 289 291 294 299 300 297 294 294 294 293 291 289 291 292 295 294 296 293 289 285 289 288 288 288 286 288 288 284 278 277 281 290 291 294 295 296 298 298 299
296 285 301 307 294 295 290 293 296 296 301 299 298 296 295 295 292 291 291 293 296 295 291 294 291 283 286 290 291 289 288 289 283 281 282 281 284 293 294 296 297 296 297 297 298
290 291 302 303 286 288 292 293 296 295 295 296 295 297 297 294 291 293 294 298 297 297 294 295 288 279 283 287 288 287 289 290 290 285 281 278 283 294 292 295 295 294 295 298 300
291 284 291 295 294 289 288 289 289 296 295 297 295 296 294 292 296 292 293 297 298 298 298 298 290 286 282 287 291 285 287 290 288 281 284 284 287 292 293 293 295 295 296 297 299
291 285 289 282 284 288 290 289 287 288 294 295 293 294 293 289 291 290 294 293 296 297 296 295 286 288 290 291 292 291 290 290 289 288 284 287 287 292 295 295 296 298 299 299 299
288 285 288 286 288 285 288 285 286 288 289 288 289 292 293 290 291 288 291 292 292 294 293 295 286 288 285 290 291 288 291 290 290 290 290 290 289 296 298 298 298 298 298 298 298
294 294 290 286 284 284 284 286 286 288 290 291 290 289 288 290 292 292 293 294 293 291 292 290 287 285 281 285 286 283 286 289 290 293 292 287 292 295 295 297 298 299 298 300 301

GFSSW_sfc_thetae_063.txt.gz
Theta_e
321 322 322 322 322 322 322 322 322 323 323 323 324 325 325 325 324 320 310 315 319 325 321 309 307 306 306 304 303 299 292 289 292 292 294 298 296 298 299 300 300 303 305 308 317
320 322 321 322 322 321 321 321 321 322 322 323 323 324 325 324 320 314 320 327 326 325 311 305 302 303 300 301 300 295 290 292 295 294 294 298 297 297 295 296 296 299 306 315 322
321 321 321 320 321 321 320 321 321 321 322 322 323 324 324 322 311 308 325 327 326 321 311 308 304 302 298 299 297 296 292 296 297 299 298 298 295 298 295 293 297 299 307 315 317
320 320 319 319 319 319 319 320 320 320 321 322 323 324 323 317 294 310 324 325 325 313 309 305 301 297 294 294 299 293 297 297 300 301 298 296 298 295 296 297 300 301 311 314 315
320 320 319 318 318 319 320 320 320 320 321 322 323 323 317 306 306 312 320 319 311 309 305 302 298 297 293 295 297 293 295 298 300 298 296 299 295 296 296 299 299 303 309 314 315
320 319 319 318 318 319 319 319 319 320 320 321 323 323 309 298 314 311 310 310 309 306 302 301 299 299 296 296 294 296 296 297 298 298 297 296 294 295 298 299 298 300 303 309 313
319 319 319 318 317 318 319 319 320 320 320 321 323 316 303 302 312 309 310 308 308 306 303 304 302 299 298 295 299 297 291 293 295 297 295 296 291 294 298 298 298 298 297 301 306
320 318 318 318 318 318 319 319 320 320 320 320 323 310 299 312 311 308 308 306 307 307 306 304 304 302 299 298 296 291 291 287 293 296 296 293 286 294 297 296 297 297 295 297 300
319 318 318 318 318 318 319 319 319 320 320 321 310 303 297 315 307 308 306 305 305 305 303 307 304 298 296 291 288 289 283 286 291 296 295 292 287 295 298 294 294 295 296 297 297
319 318 319 318 318 318 319 320 320 316 317 315 307 295 300 302 309 307 305 306 303 302 300 299 296 292 290 288 282 285 285 287 287 292 293 290 290 294 297 296 296 296 296 296 297
315 319 319 319 319 319 316 309 299 296 301 295 297 296 302 306 309 305 306 303 302 298 291 294 289 286 289 290 290 289 287 285 289 293 291 290 290 293 296 294 294 295 295 296 298
313 314 317 320 320 319 313 306 300 301 294 300 299 300 305 306 301 303 305 298 296 291 293 289 286 292 293 293 292 290 287 285 290 293 290 289 290 292 294 296 295 296 294 295 296
312 312 313 319 319 316 313 308 311 307 295 298 300 298 300 305 299 300 302 299 295 291 292 288 291 294 294 291 290 288 287 286 287 290 289 287 286 288 293 294 295 296 297 297 297
310 310 311 315 314 315 311 313 313 309 293 295 295 299 302 302 296 303 303 300 294 293 293 291 295 294 291 290 291 286 291 291 290 286 281 288 279 285 291 292 292 294 295 296 296
307 308 309 313 312 312 315 317 314 307 279 295 295 304 301 295 296 298 301 298 293 293 292 290 290 290 289 291 292 289 292 290 289 286 284 284 281 284 288 289 292 294 294 294 297
305 306 307 312 313 314 318 316 312 290 280 292 296 295 293 295 296 297 297 299 298 293 292 291 294 293 292 293 293 294 292 291 289 286 278 284 283 280 285 289 289 293 294 297 298
304 304 304 307 308 313 316 309 291 284 295 291 292 294 292 290 293 293 292 291 288 286 285 289 289 292 294 290 293 291 286 278 277 277 277 282 281 284 289 293 292 293 293 298 298
304 304 306 306 308 311 311 298 283 289 291 295 294 293 290 292 292 292 290 287 291 287 284 284 281 290 293 291 289 289 286 279 275 276 277 282 280 286 292 293 294 295 294 295 296
304 300 299 307 307 311 302 286 288 291 295 293 292 289 289 291 290 290 288 288 291 291 285 283 284 291 292 293 293 288 285 289 282 272 276 280 284 290 292 293 294 293 294 295 296
295 295 296 308 309 308 295 287 291 297 297 294 288 290 286 288 287 287 287 291 292 292 292 288 283 289 290 292 291 290 291 283 282 273 272 277 279 283 288 291 292 294 295 296 296
294 288 297 305 307 300 287 290 293 298 299 296 294 291 289 288 288 286 288 289 292 292 293 290 287 284 287 286 286 287 285 286 286 282 277 274 279 287 289 291 293 294 296 296 297
291 282 298 304 294 295 290 291 295 295 299 298 298 296 293 292 288 288 289 290 293 293 290 292 288 280 284 287 288 287 287 287 281 279 280 280 283 292 293 294 295 295 296 295 296
285 286 298 301 285 286 291 293 295 293 294 295 294 296 296 294 291 291 292 296 296 295 292 293 286 276 281 285 287 285 287 288 287 283 280 276 283 290 291 293 294 295 296 297 297
287 280 287 292 290 286 286 287 289 295 294 295 294 295 293 293 295 291 293 295 295 297 298 297 288 283 279 285 289 284 287 289 287 280 282 282 286 290 292 292 292 294 294 296 297
288 282 285 279 282 286 287 288 286 287 292 294 291 292 291 288 290 291 294 292 295 297 296 295 286 288 288 290 291 290 289 289 286 286 282 285 285 290 292 294 296 294 296 296 297
283 281 284 283 283 284 285 284 285 287 289 288 288 292 292 289 290 288 291 292 290 294 293 293 284 288 285 289 289 287 290 289 289 289 287 287 287 294 295 296 295 295 295 296 296
293 289 285 283 282 280 281 283 284 288 289 291 289 288 287 289 291 291 292 293 292 291 292 290 287 285 281 285 285 282 285 288 289 291 290 286 291 295 294 294 294 296 297 296 295

GFSSW_sfc_thetae_066.txt.gz
Theta_e
320 323 323 323 323 323 323 322 322 323 323 323 323 324 324 325 324 318 309 314 317 326 322 306 306 304 305 302 301 297 291 288 289 291 293 295 295 296 297 299 299 300 305 307 319
321 322 322 322 322 322 322 321 321 321 322 322 322 324 324 324 318 311 319 327 327 325 307 304 301 302 300 300 300 294 289 291 293 293 294 296 295 297 295 295 299 300 308 313 320
321 321 321 321 321 321 320 320 320 320 321 322 322 323 323 321 309 307 324 326 324 320 309 306 302 301 296 298 296 294 290 294 295 296 297 297 294 296 294 292 296 299 307 314 318
321 321 321 320 320 320 320 320 320 320 320 321 323 323 322 317 292 309 323 323 324 311 307 303 299 296 295 295 298 293 295 295 298 298 296 295 296 293 295 296 299 300 311 315 319
320 320 320 319 319 319 319 320 320 320 321 321 323 323 316 304 305 311 320 318 309 308 303 301 298 295 293 294 295 292 293 297 298 297 295 297 293 294 295 297 297 300 312 315 319
320 319 319 318 319 319 318 318 319 319 320 321 323 322 308 296 312 310 309 308 307 304 302 300 298 298 296 294 292 295 295 295 296 295 295 293 292 293 296 297 296 301 309 312 314
320 319 319 318 317 317 318 319 320 320 320 321 322 316 303 300 311 307 308 307 306 304 301 302 301 296 296 294 297 295 290 292 293 294 293 294 289 292 294 296 295 296 301 308 311
319 318 318 318 318 318 318 319 320 320 320 320 322 309 296 310 310 307 307 305 306 306 304 303 303 301 297 296 295 290 289 284 290 294 294 290 285 291 295 292 295 294 293 296 303
319 318 318 318 318 318 318 319 319 320 320 320 309 301 295 314 305 306 305 304 304 303 302 306 302 296 295 290 287 287 281 284 288 295 293 290 287 292 294 294 292 293 294 294 295
318 318 318 318 318 318 319 320 319 317 316 314 306 293 300 300 307 306 304 305 301 300 299 298 294 290 288 286 280 284 284 285 284 291 290 288 290 293 295 293 294 294 294 294 295
317 319 319 319 319 319 315 304 295 294 300 294 295 296 302 306 308 304 305 302 301 296 290 293 288 286 288 289 287 288 286 284 287 291 289 289 289 292 294 292 292 292 293 293 295
314 316 318 320 320 319 312 301 296 298 292 299 298 301 305 306 300 301 304 297 295 289 292 289 286 290 291 290 289 287 285 284 288 291 289 287 289 291 292 292 292 293 292 293 294
312 312 314 319 320 315 311 309 310 306 293 297 298 298 300 304 298 299 301 297 292 290 290 286 289 292 293 290 289 287 285 285 286 288 287 286 284 286 290 292 293 294 294 294 294
309 310 312 315 314 314 310 312 312 308 290 293 295 297 301 302 296 302 301 298 293 290 291 290 292 291 289 289 289 285 290 289 288 284 280 285 278 283 289 290 290 292 291 292 294
307 308 310 315 312 311 314 316 312 305 276 293 294 303 300 295 296 297 300 298 293 292 292 289 290 290 288 289 291 288 291 288 287 285 282 282 280 283 285 288 290 291 291 294 293
305 306 308 311 313 312 316 315 309 290 279 291 295 294 293 294 295 296 296 298 296 292 291 290 292 291 290 292 291 293 290 288 286 283 277 282 281 280 283 287 288 291 293 295 296
304 303 305 307 308 312 316 308 290 280 292 289 291 292 290 290 292 292 292 290 288 285 284 288 288 291 293 290 292 288 284 277 276 276 276 281 280 283 288 290 290 291 292 296 295
304 304 305 306 308 310 311 296 284 287 290 294 293 291 288 291 290 291 289 287 289 286 284 283 282 290 292 290 289 287 284 278 273 274 276 281 279 286 290 292 292 293 292 294 295
304 299 299 306 307 310 302 287 288 289 294 292 292 288 287 290 290 289 287 286 289 289 284 283 282 289 290 291 292 287 284 287 280 270 275 279 282 288 290 290 290 293 295 295 295
295 295 296 308 308 306 292 288 291 296 296 294 288 290 285 287 287 287 287 290 290 291 290 287 282 287 288 290 290 288 290 283 281 272 271 276 278 282 287 290 291 294 294 295 295
293 286 296 306 308 299 285 288 293 297 298 294 291 289 288 287 287 285 287 289 292 291 292 290 287 283 287 286 286 286 285 285 285 281 275 273 278 286 287 289 292 293 294 294 294
289 281 297 304 294 295 289 293 296 296 299 298 297 294 289 289 287 287 287 288 292 292 287 290 287 280 284 286 288 286 286 286 280 278 279 279 280 289 292 292 293 294 295 295 296
285 285 298 301 287 289 293 293 294 293 296 296 295 296 296 292 288 289 290 294 294 293 291 291 284 276 281 285 286 285 286 287 285 282 280 276 280 289 290 290 291 291 291 295 295
285 280 287 293 291 288 289 290 290 295 294 295 295 296 295 293 295 292 292 294 295 296 297 296 287 282 280 283 285 283 285 287 285 279 282 282 284 287 289 290 292 293 292 295 295
284 281 284 280 285 287 288 289 288 287 293 294 291 291 292 289 292 291 293 293 295 297 295 294 283 286 286 289 289 287 286 287 286 284 281 284 284 287 290 292 295 292 293 293 295
282 281 283 282 284 286 285 285 286 288 290 288 288 290 292 289 291 290 293 292 292 294 293 292 284 287 283 288 289 287 289 288 288 287 287 286 286 292 293 292 292 293 293 293 293
291 288 284 282 281 283 283 284 285 289 289 291 291 289 289 290 291 291 293 294 293 291 291 290 286 285 278 284 285 282 286 287 288 289 289 285 290 291 291 291 292 293 293 293 293

GFSSW_sfc_thetae_069.txt.gz
Theta_e
321 322 323 324 324 324 324 324 323 324 324 324 324 324 324 324 324 317 307 312 313 323 320 305 304 303 303 300 300 296 290 288 288 289 292 294 293 294 296 297 299 300 306 307 322
320 322 323 323 323 323 323 323 322 322 322 322 323 324 323 324 316 308 320 325 326 323 306 303 300 301 299 299 298 293 289 291 292 293 292 295 293 296 296 295 298 299 306 311 321
321 321 322 322 322 322 322 321 320 321 321 322 322 323 323 320 307 305 322 325 326 319 306 303 302 300 296 296 295 292 289 293 294 294 296 295 292 294 294 294 296 298 305 313 317
321 321 322 321 321 321 321 320 320 320 320 321 322 323 322 316 291 307 321 323 324 310 306 302 299 295 294 294 296 292 293 294 298 297 295 294 294 292 292 295 296 300 308 315 317
320 320 321 320 320 320 320 320 320 320 320 321 322 323 316 304 304 309 319 318 308 307 302 300 297 295 293 293 294 291 292 296 297 295 294 296 292 293 294 296 296 298 311 315 319
320 320 320 319 319 320 320 319 319 319 319 320 322 322 308 295 310 309 308 307 306 304 301 299 298 297 294 292 292 293 295 294 295 294 294 292 290 295 293 294 293 303 308 312 316
319 319 319 318 318 318 318 319 319 320 320 320 321 316 302 299 310 306 307 305 305 303 300 301 299 295 294 293 295 293 289 290 292 293 292 293 287 291 293 292 294 296 304 308 313
319 319 319 318 318 318 318 318 319 320 320 320 321 309 296 309 309 306 306 304 305 305 303 302 302 300 295 295 293 289 287 283 288 292 292 288 284 288 293 291 292 293 293 300 307
318 318 318 318 317 318 318 319 319 319 319 320 309 299 294 313 304 305 304 303 303 302 302 305 301 295 293 288 285 286 280 283 287 293 291 288 286 290 293 292 292 291 292 293 295
318 317 318 318 318 318 319 320 319 316 314 312 305 292 300 301 306 304 303 305 300 300 299 298 294 289 288 284 280 283 282 283 283 288 289 287 289 291 294 291 293 292 292 292 293
318 318 318 318 318 319 315 303 295 295 300 293 294 295 300 305 307 302 304 302 299 296 290 292 288 285 288 287 284 285 284 284 286 290 288 287 288 291 293 290 291 291 292 292 293
316 318 319 319 319 319 312 296 295 298 293 298 298 301 304 305 299 300 302 296 294 289 291 289 285 290 290 289 288 286 284 284 287 290 288 287 288 290 292 291 292 292 292 291 291
312 312 315 320 319 314 309 307 309 305 292 295 297 299 300 303 297 298 300 296 291 290 288 286 288 291 291 288 287 284 284 284 284 287 286 284 283 284 288 289 291 292 292 292 293
310 310 311 318 313 312 308 313 311 307 288 291 294 296 301 301 296 302 300 297 292 289 290 288 291 290 289 288 288 284 289 288 287 283 280 283 277 282 286 288 289 290 289 290 291
307 308 310 315 311 310 313 315 312 302 276 291 293 302 300 295 295 297 300 296 292 291 290 287 290 289 287 288 290 287 290 288 286 283 282 281 279 282 283 286 288 289 291 294 294
304 306 309 312 314 312 314 313 307 289 277 289 293 293 292 293 295 296 296 297 295 292 290 288 291 289 289 290 289 291 288 286 285 282 277 281 279 279 282 284 289 290 293 294 293
304 304 306 307 308 312 313 306 289 277 291 288 289 291 290 289 291 292 291 290 288 284 284 287 287 290 292 289 290 287 283 277 275 275 275 279 279 282 285 287 287 289 291 292 293
305 304 304 306 309 310 310 296 280 285 287 292 291 289 287 290 289 290 289 288 289 286 283 283 282 289 291 289 288 285 284 278 273 273 275 280 278 284 289 289 289 290 292 293 294
303 299 300 305 307 310 302 288 285 288 293 290 290 286 286 288 289 288 287 286 290 289 284 282 282 289 290 290 291 286 282 285 279 268 274 278 281 287 288 287 291 293 294 293 294
295 295 296 307 308 305 295 289 291 295 294 293 287 289 284 286 286 286 286 289 289 291 289 287 281 286 288 290 289 287 289 282 279 271 269 275 277 280 285 288 290 292 292 293 293
293 287 297 307 307 297 286 291 293 296 296 292 289 288 287 286 286 285 286 288 291 289 290 287 286 283 287 285 285 286 284 284 284 280 274 271 277 284 285 290 290 290 293 294 293
289 280 297 305 293 289 287 290 296 295 297 297 295 292 288 288 286 285 286 288 292 290 287 289 286 280 283 286 287 286 285 285 280 277 278 278 279 288 291 291 292 292 293 293 296
286 285 297 300 286 286 291 293 295 294 295 295 294 296 295 289 286 287 288 292 292 291 289 290 283 277 281 284 285 284 285 286 284 282 279 276 279 288 288 289 290 291 292 294 295
285 282 286 293 292 289 290 290 290 296 295 297 295 296 294 292 294 290 290 293 294 294 297 294 285 283 281 282 285 283 284 285 285 279 281 281 282 285 287 288 290 290 290 291 292
284 282 284 279 286 287 290 291 289 288 294 295 292 293 293 290 291 291 292 292 294 295 294 292 282 285 285 288 287 285 285 286 283 285 281 284 283 286 289 290 291 291 292 293 293
282 280 284 282 283 287 287 286 288 289 291 289 289 292 294 289 291 290 292 292 291 293 292 292 283 286 284 287 287 284 287 287 285 285 286 285 286 292 293 291 292 292 293 292 291
289 287 284 282 281 284 285 284 286 290 290 292 292 290 290 291 294 294 297 295 295 292 291 290 286 282 281 285 286 282 285 286 286 288 288 285 289 290 289 290 291 290 290 290 290

GFSSW_sfc_thetae_072.txt.gz
Theta_e
321 322 323 324 323 325 325 325 325 324 324 326 325 325 325 324 323 317 306 310 314 323 319 305 303 302 302 299 298 295 290 287 288 289 291 292 292 293 295 296 297 300 304 305 321
320 321 323 322 323 324 324 324 323 323 323 324 323 324 324 323 314 307 318 325 324 322 304 302 300 301 298 297 296 292 289 290 292 291 291 293 292 295 295 296 296 298 303 309 321
320 321 322 321 323 323 323 322 322 321 321 322 322 322 323 320 307 305 325 324 322 317 305 302 302 300 296 295 294 291 290 291 292 293 295 295 291 293 294 293 296 297 301 313 316
321 321 321 322 322 322 322 321 320 320 321 321 321 322 322 315 290 307 323 323 321 310 305 301 298 294 294 293 295 291 292 292 295 295 294 295 294 291 293 296 294 297 305 313 318
320 320 321 322 321 321 321 320 320 320 320 320 321 322 315 305 304 309 320 318 307 306 302 299 296 294 293 293 293 290 291 294 295 295 294 295 292 292 293 295 295 296 309 314 319
319 319 320 320 320 320 320 320 319 319 319 319 321 321 308 295 308 308 307 307 305 303 299 299 298 296 294 292 292 292 292 293 293 293 293 292 290 295 294 294 293 298 304 311 316
319 319 319 319 319 319 319 319 319 319 319 319 320 315 303 298 308 306 306 304 305 302 300 300 298 296 295 292 295 292 289 289 290 292 292 292 288 291 292 291 292 293 299 305 310
319 318 318 319 318 318 318 319 319 320 320 320 321 308 296 308 307 305 305 303 304 304 302 301 301 298 294 295 292 289 286 283 286 291 291 288 284 287 291 292 291 291 292 296 305
318 317 318 318 318 318 318 319 319 319 320 320 308 299 293 312 302 304 303 302 302 301 302 303 299 294 293 288 285 285 280 281 283 290 290 287 286 289 291 291 292 291 291 292 294
317 317 318 318 317 318 318 319 319 316 314 312 304 293 300 300 304 303 302 303 300 300 298 297 292 290 287 285 280 281 281 281 282 286 289 287 288 290 292 291 292 291 291 291 292
317 317 317 318 318 319 315 305 297 296 299 293 294 294 299 304 304 301 302 300 297 295 289 291 287 285 288 286 284 284 282 282 286 288 287 286 287 290 292 290 290 291 291 291 292
317 318 318 319 319 319 309 295 295 298 292 298 297 300 304 304 297 298 302 295 293 288 289 288 284 288 290 288 288 285 284 283 286 288 288 285 287 290 291 291 291 291 290 290 290
314 316 319 319 319 314 308 306 309 304 291 294 297 299 301 302 296 297 299 294 290 289 287 285 287 290 289 286 287 284 283 283 283 285 284 282 282 283 286 287 289 290 290 289 290
310 312 313 319 314 311 308 312 312 307 287 289 293 295 301 300 295 300 299 296 290 288 287 287 289 289 287 285 286 283 287 286 286 283 280 283 277 282 285 287 288 288 288 290 292
306 308 311 316 310 310 311 314 311 300 278 291 292 301 299 295 295 296 298 295 289 289 288 286 288 288 287 287 288 285 288 287 284 282 281 281 279 282 282 284 287 291 291 291 291
305 306 309 312 313 311 313 312 306 287 276 288 293 292 292 293 293 295 295 296 294 290 289 288 291 289 288 289 288 290 286 285 283 281 276 280 279 280 282 283 285 287 288 291 292
305 305 307 308 308 310 312 305 287 277 289 287 287 290 289 289 291 291 291 289 287 283 283 285 287 290 291 288 289 285 282 277 275 275 275 279 278 281 285 287 286 288 289 292 292
304 304 304 307 308 310 307 294 277 283 286 291 290 289 287 290 289 289 288 287 289 286 283 282 281 288 291 289 287 284 283 278 273 272 275 280 277 282 286 288 288 290 291 292 293
303 300 300 305 308 310 302 287 283 285 291 289 288 285 284 287 289 288 287 288 289 288 284 282 281 288 289 289 291 285 281 284 277 267 273 277 280 284 286 289 290 291 292 292 292
296 296 296 305 309 305 297 288 289 294 293 290 285 287 283 284 285 285 286 288 288 290 289 287 281 286 287 289 289 286 288 281 278 269 269 274 276 279 283 287 288 291 291 292 292
293 288 297 306 307 296 289 290 291 295 296 291 288 286 285 285 286 285 286 287 290 289 289 287 286 283 287 285 284 285 283 283 282 279 273 270 276 282 287 288 288 289 290 292 292
289 281 296 304 290 286 286 290 295 294 296 295 293 290 287 287 285 285 285 287 291 291 287 288 286 281 283 286 286 285 284 283 278 276 276 277 277 286 289 289 290 290 291 291 292
286 285 296 300 285 285 290 292 294 294 294 294 293 294 292 288 285 286 287 291 291 291 289 289 283 275 280 284 284 282 284 283 283 282 277 275 277 287 286 288 289 290 291 292 291
284 281 287 292 292 289 289 290 290 296 296 297 295 295 293 291 293 287 288 291 293 291 296 293 284 281 279 280 284 282 284 284 285 279 280 280 281 285 287 288 289 289 290 290 292
283 281 284 281 285 288 292 291 289 289 295 296 292 294 293 289 290 289 291 291 293 295 293 290 282 284 285 285 285 284 284 283 283 285 282 283 283 289 289 287 290 290 291 292 292
281 280 283 282 283 287 288 288 288 290 291 289 289 293 293 291 291 289 291 291 291 292 292 291 283 284 282 286 286 285 285 285 285 285 283 284 284 289 291 291 290 291 291 290 290
287 287 283 282 281 285 286 287 289 291 292 293 292 291 290 293 294 295 296 295 294 292 291 290 285 280 276 284 284 280 284 285 285 286 286 284 288 290 289 290 291 289 289 289 289

GFSSW_sfc_thetae_075.txt.gz
Theta_e
323 323 323 323 324 325 325 327 327 327 327 327 327 327 325 325 324 318 306 312 314 324 317 305 305 304 305 302 301 299 293 290 291 291 294 295 297 297 299 300 302 307 307 312 324
323 322 322 323 323 325 326 326 326 326 326 326 326 324 324 323 315 308 318 325 327 324 304 303 301 302 300 300 299 295 292 293 294 294 294 295 296 297 298 298 299 301 308 317 324
322 321 321 323 323 324 324 325 324 324 324 324 323 323 323 320 309 306 326 327 325 319 305 304 302 301 298 299 297 294 292 294 294 295 296 296 295 297 296 296 299 300 303 317 322
321 321 321 322 323 323 324 323 322 322 322 322 322 322 321 314 291 306 328 327 324 309 304 301 299 297 296 295 297 293 293 294 297 296 296 295 295 294 296 299 299 299 306 317 320
320 319 320 321 323 323 322 322 321 321 321 321 322 322 315 305 306 310 323 322 309 306 302 299 298 296 294 295 295 293 293 295 296 295 295 296 294 295 295 297 297 299 310 317 321
319 319 320 321 322 322 321 321 321 320 320 321 322 321 308 297 308 309 308 306 305 303 300 300 298 298 294 293 293 293 294 295 295 294 294 293 292 294 295 295 296 300 305 312 319
319 319 319 320 321 321 321 320 320 320 320 320 322 313 303 300 306 306 306 304 305 303 300 300 299 297 295 293 295 293 291 291 293 293 293 293 290 292 295 293 295 296 300 305 313
319 318 319 319 319 320 320 319 320 320 320 321 322 307 298 307 306 305 305 302 303 303 302 301 300 298 295 295 292 289 288 287 289 293 293 290 286 289 293 293 294 294 295 296 304
318 317 318 318 319 319 319 319 319 320 320 321 307 299 292 311 302 304 303 302 301 302 302 302 299 294 292 289 286 287 283 283 286 292 291 289 287 291 293 293 293 294 294 293 295
317 317 317 318 318 318 319 319 319 317 314 313 303 294 299 300 303 303 302 302 299 300 298 297 293 289 287 286 282 283 282 283 283 288 289 287 289 291 293 292 293 293 293 293 294
317 317 317 318 318 318 317 309 297 295 297 295 294 293 298 303 303 300 302 300 297 295 289 290 288 286 288 286 285 284 283 283 285 289 289 287 288 290 292 292 293 293 293 293 293
317 317 317 318 318 319 305 295 296 298 291 297 297 300 303 302 296 297 301 295 293 287 289 288 285 289 289 287 286 285 284 284 287 289 288 286 288 290 291 291 292 293 293 292 292
316 317 317 318 319 314 306 303 308 304 291 294 298 299 301 301 296 297 298 293 290 288 286 285 287 290 288 286 286 283 284 284 285 286 285 283 284 285 287 288 289 290 290 291 291
313 316 317 318 313 312 307 311 311 305 287 289 293 296 301 299 294 300 298 294 290 287 287 286 288 288 286 285 286 283 287 286 286 283 280 284 279 284 286 287 289 291 292 292 293
309 311 313 318 309 309 310 313 310 299 277 291 292 300 299 294 294 295 298 294 289 288 288 285 286 287 285 286 287 284 288 286 284 283 282 282 280 284 283 284 288 290 291 292 293
307 308 313 313 313 310 313 311 304 286 277 288 292 292 292 292 292 295 295 295 293 290 289 287 290 289 288 288 288 289 286 284 284 282 277 281 279 280 283 284 287 288 291 293 294
305 307 308 310 308 311 311 303 286 277 288 286 287 290 289 288 290 290 290 288 286 282 282 285 286 289 290 287 289 285 283 278 277 276 276 279 279 282 285 286 287 289 292 292 293
304 304 305 307 309 311 305 292 275 283 284 289 289 289 286 290 288 289 288 286 287 286 283 282 281 288 290 288 286 284 283 279 274 273 276 280 278 283 286 289 288 292 291 293 293
302 300 301 304 309 310 300 284 282 284 290 287 287 285 284 287 289 288 287 288 288 287 283 282 281 288 288 289 290 285 281 284 277 267 274 278 281 285 288 289 290 291 292 292 292
297 296 297 305 309 306 295 286 286 291 291 290 283 286 282 284 286 285 286 288 288 289 288 287 281 286 287 289 288 285 287 281 278 270 270 274 276 279 286 288 289 290 291 292 293
293 290 297 304 307 296 288 286 290 295 294 290 287 285 284 285 285 285 286 286 290 289 288 287 285 283 286 285 284 284 283 282 282 280 274 271 276 282 286 289 289 290 291 292 292
289 284 296 303 288 286 289 292 295 293 295 295 292 289 286 286 285 285 285 287 291 291 286 288 286 281 283 286 286 284 284 284 279 276 275 276 278 286 289 289 290 290 291 291 292
286 286 296 300 283 284 287 292 293 292 293 294 292 292 290 287 284 286 287 290 291 291 289 289 284 278 282 285 285 283 283 283 282 282 277 276 278 287 287 288 290 290 290 291 292
285 282 287 292 291 288 286 288 290 295 294 295 294 295 291 288 291 286 287 291 291 290 295 293 284 282 280 281 284 282 283 283 284 280 279 279 281 284 287 288 290 291 290 291 292
285 282 284 282 285 288 291 290 288 289 295 296 292 292 291 287 288 287 289 289 291 295 291 290 282 282 283 283 283 283 283 283 283 285 281 282 283 287 289 288 290 291 291 291 290
283 282 284 282 283 287 289 288 288 290 292 290 289 292 292 290 290 288 289 289 289 290 289 289 280 284 281 285 285 283 284 285 286 283 282 281 283 289 292 289 290 291 291 290 289
285 286 284 283 282 286 286 288 289 291 293 294 293 291 291 292 294 295 295 295 294 291 289 287 283 278 274 283 284 278 284 284 285 285 286 283 287 290 288 290 289 290 290 289 289

GFSSW_sfc_thetae_078.txt.gz
Theta_e
324 323 324 325 326 327 327 327 327 323 322 325 323 322 324 326 324 320 310 315 317 326 318 311 311 310 311 308 307 307 303 299 299 299 300 303 304 304 306 307 311 314 312 321 332
323 323 324 324 324 326 327 327 327 327 326 324 324 325 325 324 316 310 320 326 326 326 309 308 307 309 307 306 306 306 302 302 303 303 302 304 305 305 305 305 306 309 314 327 331
323 323 323 323 324 324 326 326 326 326 326 325 324 325 325 322 309 306 326 328 329 324 311 309 310 308 305 305 304 302 301 302 300 302 304 304 303 304 304 302 306 307 311 325 329
322 322 322 322 323 324 325 325 325 325 325 325 325 324 322 317 293 309 327 330 328 314 308 307 306 304 303 302 303 300 299 301 302 302 302 303 304 303 304 305 305 308 312 324 327
321 320 321 322 323 323 324 324 324 323 324 324 324 323 317 306 307 314 325 326 316 309 307 306 302 304 301 302 302 301 299 301 301 301 301 302 301 302 302 305 304 305 312 320 326
321 319 320 321 322 323 324 323 322 322 323 323 323 323 312 298 312 314 315 310 310 308 306 306 305 305 300 301 301 300 301 300 300 300 300 301 300 301 302 302 303 305 310 317 324
320 319 319 320 321 322 323 322 322 322 322 323 324 317 308 303 311 312 310 309 309 307 304 305 306 304 303 299 300 300 298 299 299 300 299 300 297 298 302 301 302 303 307 312 320
319 318 318 319 320 321 321 321 321 321 322 323 323 314 302 312 311 308 309 308 309 308 307 306 306 303 303 301 299 296 298 295 295 298 299 297 295 296 300 300 301 303 305 305 311
318 318 318 319 319 320 320 320 320 321 321 322 313 306 300 313 305 309 309 306 306 307 306 304 305 301 299 298 295 294 292 292 291 297 298 296 296 297 300 300 301 302 303 303 304
318 317 318 318 318 319 319 320 319 320 318 315 306 301 303 303 306 307 308 307 305 305 304 303 302 296 295 296 289 289 290 289 291 295 295 295 295 298 300 299 302 303 304 304 304
317 317 318 318 318 319 319 315 303 300 306 299 299 299 301 306 307 304 306 304 304 303 298 298 297 293 296 297 294 295 291 291 292 294 294 294 295 298 301 300 302 303 304 304 304
317 317 317 318 318 319 317 302 302 303 296 300 299 303 306 305 299 302 306 301 300 295 296 296 293 297 294 292 292 292 291 291 293 294 294 293 295 298 299 299 300 301 302 302 301
316 317 317 317 318 316 310 304 310 307 295 296 300 302 303 304 298 300 302 299 297 294 294 293 293 294 293 292 291 291 292 290 292 292 292 291 292 293 293 295 296 298 298 299 300
316 316 316 317 312 312 309 314 313 309 289 290 294 299 303 302 297 303 302 300 295 293 293 293 292 293 293 291 294 289 293 293 291 292 289 291 287 293 293 294 297 299 300 300 301
314 316 316 317 312 307 312 315 313 304 279 292 293 302 302 298 298 299 303 299 294 292 293 290 290 291 291 292 293 291 293 292 292 292 290 289 288 292 291 293 296 297 299 301 301
309 312 316 315 316 314 316 314 308 289 280 289 294 294 294 296 296 298 299 300 298 294 295 292 294 294 293 292 293 293 293 292 292 291 285 288 288 289 291 292 294 296 299 300 301
307 309 313 314 310 315 315 309 289 283 291 287 289 293 294 292 293 295 294 293 291 288 288 291 291 294 295 291 293 293 292 285 284 284 283 284 285 291 291 292 294 296 299 300 301
305 305 308 309 311 315 310 297 283 287 287 292 291 293 290 292 292 292 292 290 293 292 289 287 284 292 294 293 291 292 291 286 280 279 283 283 284 291 292 293 294 298 299 300 300
303 301 303 305 310 313 302 286 286 288 292 289 291 288 288 290 292 292 292 291 294 293 289 287 285 292 292 293 294 290 287 290 283 277 284 286 288 292 293 294 295 297 299 299 300
297 297 299 304 309 308 297 289 290 292 293 292 286 289 286 288 289 290 290 294 293 293 294 291 285 289 291 294 293 292 291 286 286 281 280 282 283 289 291 292 295 296 297 298 299
296 291 298 302 307 301 289 291 293 297 294 291 288 287 288 288 290 289 290 291 295 292 293 292 291 287 290 289 289 288 287 287 288 286 283 281 285 291 294 296 296 297 298 299 299
292 287 297 303 293 291 292 294 296 296 298 296 293 290 289 289 288 288 288 292 295 294 290 292 289 285 287 290 291 289 289 290 286 282 283 283 286 291 295 298 298 297 297 298 300
287 289 298 300 285 285 290 294 296 295 295 295 293 293 291 289 286 289 290 293 293 293 291 292 289 283 284 288 289 288 289 289 288 288 283 285 287 291 294 295 297 297 297 297 298
288 284 289 290 287 288 287 291 292 297 296 297 295 296 291 288 291 288 289 292 293 294 296 295 288 288 284 287 290 286 287 287 289 285 285 285 287 290 292 294 295 296 297 298 298
288 284 286 285 286 286 290 289 291 291 296 297 294 294 292 288 289 287 291 292 294 295 293 293 287 287 288 288 289 289 288 287 287 290 286 289 288 292 294 295 296 297 297 296 295
286 284 286 284 286 287 287 286 288 293 294 293 293 295 295 291 291 289 291 292 291 293 292 292 287 288 286 288 288 286 289 288 289 290 289 288 289 295 298 298 296 295 296 295 295
289 290 288 284 284 286 287 288 289 291 293 296 296 295 294 293 296 296 297 297 296 292 290 290 287 286 284 287 288 284 287 288 290 292 290 286 291 293 294 293 296 296 296 296 294

GFSSW_sfc_thetae_081.txt.gz
Theta_e
324 325 324 325 326 327 327 326 325 324 322 322 321 321 320 322 320 317 307 315 318 327 324 313 313 313 313 310 312 312 303 301 301 301 302 307 305 308 310 309 312 314 315 321 332
324 324 324 324 324 326 327 326 325 325 324 324 322 321 321 321 313 308 318 323 328 328 310 309 308 310 308 308 309 306 303 303 306 305 304 307 307 306 306 307 307 311 320 328 330
323 323 323 324 324 325 325 326 325 324 324 323 324 323 323 320 307 308 321 324 326 326 314 311 311 309 306 308 307 306 303 305 304 305 308 306 306 308 306 304 308 308 315 325 327
322 322 323 323 324 325 325 325 325 325 325 323 320 321 322 316 298 311 321 323 326 322 312 308 308 305 304 302 306 302 302 304 304 304 306 305 307 305 307 307 309 311 316 324 324
321 321 322 322 323 323 324 325 325 325 325 324 322 321 317 306 304 315 324 321 323 316 308 307 305 305 302 304 304 304 302 304 304 303 305 306 305 305 305 308 308 308 314 321 323
321 320 320 321 322 323 324 325 324 324 325 324 324 322 312 297 312 316 321 320 313 310 308 309 306 308 304 304 303 304 304 302 303 303 303 303 303 303 305 307 306 308 311 317 321
321 320 320 320 321 322 323 324 323 323 324 324 324 318 306 302 313 315 315 312 311 309 307 309 309 305 306 302 304 304 300 301 302 302 301 303 299 301 304 304 305 305 310 313 319
320 319 319 320 320 321 322 322 322 322 323 324 323 314 301 313 314 310 313 310 311 310 309 309 309 306 305 304 301 300 301 296 300 301 301 300 298 303 303 302 303 305 307 310 315
319 318 318 319 319 320 321 321 321 322 322 323 315 309 298 312 306 310 311 307 308 309 307 307 308 304 302 298 296 297 293 296 295 300 300 298 298 299 302 302 302 304 306 307 309
318 317 318 318 319 319 320 320 320 320 319 317 309 301 304 302 307 308 311 309 306 306 303 303 303 299 300 298 291 293 294 295 296 297 297 297 297 300 302 302 303 304 305 306 306
318 317 318 318 319 319 319 316 307 305 307 298 299 300 301 307 309 306 308 306 306 303 297 301 297 293 296 299 300 298 296 294 296 296 296 297 297 299 301 301 302 304 305 306 307
318 317 317 318 319 319 316 305 303 305 296 303 300 303 306 306 299 303 308 301 300 296 300 297 294 298 300 296 296 296 294 294 295 296 296 296 295 299 300 301 302 304 305 305 305
317 317 317 317 318 316 311 306 310 308 295 296 300 302 302 304 300 300 304 302 299 296 297 294 296 298 296 294 294 294 293 293 293 295 296 294 293 297 298 298 299 300 302 302 303
317 316 316 316 311 312 309 310 313 309 289 290 294 300 303 304 298 304 304 302 299 295 296 296 295 295 295 294 295 290 295 295 294 293 289 294 288 295 297 296 298 301 302 303 304
316 316 316 315 310 307 310 315 314 306 279 293 294 303 304 298 299 299 304 300 295 296 296 292 292 293 293 295 296 293 296 296 295 294 292 291 289 294 294 294 297 300 302 304 305
315 315 315 314 314 312 316 315 310 289 279 288 294 295 295 297 297 299 300 301 300 295 296 293 296 296 296 295 296 296 295 295 295 293 285 291 290 292 293 295 297 299 302 303 304
312 314 313 316 307 317 317 308 289 282 292 288 288 294 294 293 294 296 295 293 292 288 288 292 291 295 296 292 296 296 292 286 284 284 283 287 287 292 294 297 298 299 301 302 304
307 313 311 311 316 318 312 296 283 288 289 293 292 293 290 293 294 294 293 291 295 294 290 287 284 292 296 295 291 293 292 287 280 282 285 285 284 291 296 296 297 301 302 302 302
304 304 307 304 311 317 302 287 287 290 293 291 291 289 289 292 292 293 292 292 294 295 289 288 287 294 294 295 296 292 289 293 285 281 285 287 290 295 295 294 297 299 301 301 302
299 300 299 303 305 311 297 289 291 295 295 293 287 290 286 289 290 291 291 295 294 296 296 293 286 292 292 295 294 293 294 286 288 282 282 285 287 290 291 293 296 298 300 301 301
296 293 297 303 305 302 290 291 294 296 296 292 291 289 290 289 290 289 291 294 297 295 295 294 292 288 291 290 290 289 288 290 290 289 286 282 286 293 295 295 296 298 300 300 301
294 286 297 302 294 297 293 295 296 296 298 295 294 292 291 291 289 290 290 293 298 296 290 294 291 286 288 292 293 293 291 291 287 283 285 286 288 293 296 298 300 299 300 301 302
289 288 298 299 286 289 295 294 297 295 295 295 292 293 293 291 287 291 293 294 297 294 293 294 290 283 284 289 290 289 291 293 292 291 284 285 287 293 297 299 300 299 300 300 301
290 285 289 289 287 291 291 293 292 299 297 298 295 294 291 290 293 290 291 293 295 295 296 296 291 289 284 287 291 287 290 290 290 286 287 287 290 291 295 297 299 299 299 300 300
290 285 287 285 286 287 293 293 291 292 298 299 295 294 291 288 289 289 292 291 293 295 295 295 288 290 291 290 292 290 290 290 288 290 287 290 289 294 295 297 299 300 300 299 299
287 285 288 286 289 287 285 288 292 293 295 294 294 296 294 290 291 288 291 292 290 293 292 294 289 291 287 289 289 289 291 291 290 290 290 291 291 297 299 300 299 299 299 298 298
292 291 289 285 287 287 287 287 288 294 297 298 297 296 294 295 298 297 298 297 295 292 291 290 288 287 284 289 288 284 287 290 290 292 292 288 293 296 297 298 298 298 298 298 298

GFSSW_sfc_thetae_084.txt.gz
Theta_e
324 324 325 325 326 327 327 325 325 325 323 322 321 320 322 319 322 317 307 313 318 330 324 312 311 311 311 311 311 309 298 296 298 297 299 304 300 303 304 305 307 310 314 321 327
323 324 324 324 325 326 327 326 325 325 323 322 322 321 322 319 313 308 317 318 322 328 315 308 306 308 305 306 306 302 297 300 303 300 301 303 302 302 300 304 304 309 320 326 326
322 323 323 324 325 325 326 326 325 325 324 323 321 321 320 318 307 308 320 320 321 324 318 314 308 307 303 305 303 302 298 303 301 303 305 303 301 303 300 299 304 306 317 322 323
322 322 322 323 324 325 325 325 325 325 324 324 321 321 319 315 298 314 321 322 322 321 316 310 305 302 301 300 304 299 300 302 303 302 303 302 303 300 300 299 305 309 319 321 321
322 321 322 322 323 324 325 325 324 324 325 323 323 322 316 305 307 320 322 320 319 316 312 307 302 303 300 301 302 299 300 302 302 300 301 304 301 300 300 302 303 309 318 318 319
321 320 321 322 322 323 324 325 325 324 324 322 321 320 311 299 314 321 317 317 313 311 311 308 304 305 301 301 300 302 301 300 301 300 300 300 298 298 300 302 302 304 310 316 318
320 320 320 321 321 323 322 323 324 323 323 322 320 316 306 304 313 320 319 317 315 311 306 308 308 304 304 300 303 301 296 298 298 300 298 298 296 296 299 301 300 301 304 310 315
320 320 320 320 320 322 322 322 322 323 323 322 321 313 301 313 312 315 318 316 316 313 308 308 308 304 302 301 299 297 296 291 297 298 297 297 292 298 299 297 298 299 300 305 312
318 319 319 319 319 320 321 321 320 322 322 322 314 310 297 312 306 310 313 309 309 309 307 306 305 301 300 294 292 294 289 291 292 298 297 293 291 295 297 296 295 297 299 304 306
317 319 318 318 319 319 320 320 320 320 319 317 312 303 303 300 307 308 310 309 305 304 302 301 300 296 295 292 286 289 290 292 290 294 293 291 291 294 296 297 295 296 297 300 301
318 318 318 318 319 320 318 313 306 304 308 300 300 300 300 305 309 305 308 306 304 301 294 297 293 290 293 295 295 294 291 290 291 294 292 292 291 294 296 296 295 296 296 298 300
317 318 318 318 319 319 315 305 304 306 298 303 301 303 305 305 299 302 307 299 298 293 297 294 290 296 297 296 294 292 291 289 291 294 292 291 291 294 295 295 296 298 298 298 300
314 317 317 318 318 315 310 307 311 309 296 298 300 300 302 304 299 299 303 300 296 294 294 291 294 298 295 292 291 291 291 289 290 291 291 287 286 291 294 296 294 293 294 296 298
315 316 317 317 312 312 307 311 310 308 288 290 295 299 303 303 297 304 303 300 297 293 295 294 296 294 292 291 292 288 292 293 291 287 283 288 279 286 289 290 293 294 295 296 298
314 316 316 317 310 307 310 311 312 305 277 292 294 303 304 298 298 298 303 299 294 294 294 290 291 292 291 292 294 291 294 293 291 288 286 285 281 285 289 288 291 295 297 297 299
313 315 315 313 311 311 314 313 308 288 279 288 294 294 295 297 297 298 298 300 299 294 293 291 293 293 293 293 294 295 293 292 290 288 279 286 283 283 287 289 292 295 297 298 298
307 315 313 313 305 313 314 306 286 280 292 286 288 293 293 292 294 294 293 291 289 286 286 289 290 293 294 290 292 292 287 279 278 278 278 283 282 285 288 292 293 294 296 297 298
305 314 312 311 313 314 308 293 279 286 287 292 291 292 289 292 292 292 291 288 292 290 287 284 281 289 293 290 288 289 287 281 276 276 278 280 278 285 289 292 294 297 297 298 297
304 310 307 305 312 314 299 284 283 287 292 289 291 287 288 291 291 291 290 289 291 292 286 285 285 291 292 293 292 288 285 289 281 274 278 280 284 287 290 290 293 295 296 296 297
297 303 298 304 307 308 293 287 289 294 294 292 285 289 285 288 288 289 289 292 292 294 293 290 283 290 290 292 291 289 291 282 283 272 274 279 280 283 286 288 292 294 294 295 296
295 295 297 303 307 300 287 288 292 296 296 291 289 288 288 287 289 288 289 292 294 292 292 291 289 285 289 287 287 286 285 285 287 284 278 275 279 285 290 291 292 294 296 295 296
290 286 297 301 294 294 289 292 296 294 296 294 294 291 289 290 288 288 288 291 296 294 288 292 289 282 285 289 290 288 287 287 282 279 280 281 281 290 289 293 295 295 296 296 297
286 286 297 297 286 288 293 293 296 293 293 294 291 292 292 290 286 289 290 292 294 293 290 292 287 280 282 287 288 286 288 288 287 284 280 277 280 290 290 293 296 296 296 297 297
289 285 287 290 289 291 290 291 291 298 295 297 293 293 291 289 291 289 290 292 293 293 297 295 289 285 281 283 288 284 287 287 287 281 280 282 283 285 291 292 294 295 296 296 297
289 285 285 284 286 289 293 292 290 291 297 298 293 292 290 287 288 288 291 289 292 294 293 292 284 287 287 289 288 287 286 286 285 287 283 285 285 289 291 293 295 295 296 296 296
286 285 287 285 286 289 292 290 290 292 294 293 293 293 291 288 289 287 290 290 288 291 290 291 282 286 283 287 287 285 287 288 288 287 286 286 286 291 294 295 295 296 297 296 296
291 291 289 286 286 286 286 291 290 294 296 296 296 294 292 294 296 295 295 294 293 290 289 289 285 281 276 284 284 279 285 288 288 289 289 285 290 291 292 295 296 296 297 297 297

GFSSW_sfc_thetae_087.txt.gz
Theta_e
321 325 325 325 326 326 328 328 327 326 326 324 322 321 322 320 322 317 307 315 319 329 325 311 309 308 306 304 305 303 295 292 294 294 295 299 297 300 302 304 306 311 311 317 327
316 324 324 325 324 325 327 326 326 325 325 324 322 321 322 320 312 307 316 318 322 326 314 310 305 306 301 303 303 297 294 296 298 297 297 299 299 299 301 301 302 314 319 323 325
316 322 324 324 324 325 326 325 325 325 324 324 322 321 321 318 306 307 321 322 320 323 317 314 310 305 300 301 300 299 295 298 298 300 302 300 298 300 300 297 303 314 317 320 319
318 322 323 323 324 325 325 325 325 324 324 324 322 322 320 314 296 314 323 324 321 320 314 309 305 300 299 298 301 296 298 299 301 300 301 300 300 298 298 299 305 319 321 320 319
317 321 321 323 323 324 325 325 325 324 324 324 323 321 314 305 306 320 323 325 315 314 309 307 304 301 297 300 300 297 297 300 299 299 300 301 298 298 297 298 307 319 321 319 319
316 319 320 321 322 324 324 325 324 324 324 324 322 321 310 300 317 319 318 314 312 311 308 308 305 304 299 300 298 299 299 298 299 297 298 298 295 297 298 298 308 316 316 318 319
316 318 320 321 321 323 323 324 324 324 324 323 322 315 307 304 319 319 317 313 313 310 306 309 307 302 300 298 301 298 295 295 296 297 296 298 293 294 298 299 300 305 311 314 317
315 317 319 320 321 322 322 322 323 323 322 323 320 312 301 313 320 316 317 315 314 312 309 309 308 302 300 300 298 295 293 289 294 297 297 294 289 295 298 297 296 298 300 308 313
314 317 319 319 319 320 321 321 321 322 322 322 311 307 298 313 307 317 317 312 311 311 309 310 306 298 298 293 291 291 285 287 291 296 294 291 289 294 296 296 294 294 296 300 307
314 316 319 319 319 319 320 321 321 321 318 315 312 298 302 300 307 310 318 316 307 306 303 302 299 294 291 288 285 286 286 287 288 292 291 289 289 293 296 294 293 292 295 299 303
311 317 319 318 319 319 318 314 306 304 308 302 301 299 300 304 309 306 311 308 305 301 293 298 292 288 289 290 291 291 289 289 288 293 291 289 289 292 294 293 293 291 292 296 300
311 317 319 318 318 319 314 303 302 304 298 302 302 302 303 305 299 302 307 300 298 292 296 292 288 293 295 293 292 290 289 286 290 292 291 289 290 292 293 293 294 295 293 295 295
310 316 318 318 318 315 308 304 310 308 294 297 300 300 300 301 298 299 303 300 295 291 292 289 292 296 294 292 290 289 288 286 287 290 290 287 285 290 293 293 293 294 294 295 296
309 314 317 317 312 311 306 309 310 302 285 289 292 297 300 300 296 303 305 300 296 291 293 291 296 294 292 291 290 286 291 291 289 286 283 286 280 285 289 291 292 293 293 294 297
308 311 317 317 311 306 308 308 306 298 273 289 293 302 300 296 297 297 302 298 293 293 292 290 291 292 290 291 291 288 292 290 289 287 284 283 280 283 288 287 289 290 293 294 296
305 309 316 314 312 312 312 309 301 286 276 286 292 293 293 295 295 297 297 298 297 294 292 290 293 293 293 292 293 293 291 290 288 285 278 282 281 280 284 289 288 291 293 296 297
305 307 314 315 307 313 311 301 284 278 289 284 286 292 291 290 291 293 292 291 288 286 286 288 289 291 293 290 291 291 286 278 278 277 277 280 279 283 287 290 291 294 294 295 297
304 305 313 312 314 313 306 291 278 283 285 289 289 290 287 291 290 291 290 288 290 290 284 283 281 289 292 291 287 287 285 278 275 275 276 280 279 285 288 290 294 295 295 295 295
302 305 309 307 312 310 296 282 281 285 289 287 289 286 286 290 290 290 289 288 290 290 286 283 284 290 291 291 291 286 284 287 280 271 276 278 281 287 288 290 292 293 294 294 295
295 299 298 306 312 305 290 285 286 292 291 290 283 286 284 287 286 287 288 291 290 292 292 288 282 289 289 291 289 288 290 282 280 272 272 276 277 281 284 287 291 292 292 293 294
292 293 297 304 309 298 285 286 289 292 293 288 286 285 286 286 286 287 287 290 293 291 292 291 288 285 288 286 285 285 282 283 285 280 276 273 278 285 288 288 290 292 293 294 294
286 285 297 301 294 293 287 289 294 291 293 291 291 289 288 289 286 287 287 289 296 292 288 291 287 282 284 288 289 286 285 285 280 278 280 278 280 288 287 289 292 293 294 294 295
285 285 297 301 286 287 292 291 294 291 291 290 289 290 291 289 285 288 289 292 293 293 290 292 285 279 282 285 287 285 286 286 286 281 279 277 279 288 288 289 293 293 294 295 295
286 283 287 292 289 291 289 289 291 296 293 294 291 291 290 288 291 288 288 291 293 292 296 295 288 284 280 282 286 283 285 286 285 279 279 279 281 285 288 290 291 293 294 294 295
286 283 284 285 287 291 291 290 290 289 294 296 291 290 289 286 288 288 290 289 291 294 292 291 284 286 286 287 287 286 286 285 285 286 283 284 284 287 289 291 293 294 294 294 295
285 284 286 285 287 290 291 288 289 292 292 292 290 291 290 288 289 286 289 289 289 290 289 290 283 285 283 286 287 284 287 287 286 284 284 283 284 289 290 292 292 294 295 295 295
290 291 287 285 285 288 289 288 290 293 294 296 294 292 290 292 293 294 294 293 292 290 288 288 283 280 277 283 284 280 284 286 287 286 288 283 289 289 288 293 294 294 296 296 296

GFSSW_sfc_thetae_090.txt.gz
Theta_e
319 318 325 325 325 325 327 328 328 328 327 326 325 324 324 324 322 318 309 316 320 327 327 311 309 308 306 303 304 301 293 290 294 293 295 298 297 298 301 303 307 311 314 319 325
317 318 318 324 324 325 326 327 328 328 327 325 323 324 324 322 313 307 318 322 322 326 314 307 305 305 301 301 301 297 293 295 299 296 297 298 298 299 300 300 308 310 316 325 324
318 318 319 323 324 325 325 325 327 327 326 325 323 323 322 318 306 305 324 323 320 323 317 312 310 305 301 301 298 297 295 298 298 299 300 299 297 298 300 296 308 311 318 322 322
316 318 318 319 323 324 325 326 325 325 326 324 322 323 321 312 297 310 325 325 321 318 313 310 311 306 301 297 300 294 297 298 300 300 300 298 299 297 297 298 309 318 321 322 321
317 318 316 320 322 324 325 326 325 324 324 323 323 321 313 303 304 318 325 323 315 314 309 307 308 303 302 299 299 297 296 299 299 299 299 299 297 296 297 297 317 318 320 320 321
315 315 317 319 322 323 325 326 324 324 324 323 322 321 309 299 315 319 318 312 313 311 309 309 306 305 301 298 296 299 297 298 299 298 298 297 294 296 296 304 315 317 317 318 320
314 315 316 316 321 322 324 325 324 324 323 323 322 315 307 305 317 318 316 311 313 311 307 309 309 303 300 296 300 299 294 294 296 297 296 297 292 294 297 308 314 314 314 317 318
313 315 315 315 320 322 323 323 323 323 323 323 322 312 303 315 317 316 314 311 313 313 310 311 309 304 299 299 297 295 293 289 294 296 295 295 290 295 296 304 307 309 310 314 316
312 314 314 315 319 320 322 322 322 323 323 323 313 307 298 319 311 314 314 308 310 311 311 312 308 300 299 293 291 292 285 287 290 295 293 291 289 294 295 297 300 301 304 308 311
310 312 314 315 318 319 321 322 322 322 320 316 311 299 301 301 310 314 317 312 308 307 305 305 301 297 295 290 286 287 286 287 288 292 291 288 290 291 294 294 294 294 295 298 305
309 311 315 315 318 320 320 317 310 306 306 300 300 297 300 304 313 312 312 308 307 303 296 300 294 290 293 294 291 291 289 288 289 292 290 290 290 291 293 290 290 291 292 294 299
309 311 315 314 318 319 317 309 307 307 297 303 303 300 302 305 299 308 309 301 300 295 297 295 292 296 297 294 292 290 289 287 288 292 290 288 289 290 290 292 292 293 291 293 297
308 310 314 316 318 316 312 309 312 309 296 298 301 300 299 304 298 301 304 301 297 294 294 292 295 298 295 293 290 290 287 286 286 288 289 288 287 287 291 291 292 293 293 292 296
307 310 314 317 312 313 308 309 312 302 288 290 293 298 299 300 296 304 305 301 295 292 294 294 298 296 292 291 292 286 290 290 288 286 283 285 280 285 289 290 291 292 293 293 293
306 308 313 317 311 307 308 311 306 297 276 290 291 301 299 295 296 298 305 300 293 292 292 289 292 293 290 292 294 289 292 290 288 284 284 281 279 282 285 287 289 292 292 292 294
305 306 308 314 312 312 310 309 302 285 275 285 291 291 292 293 293 296 298 299 300 294 293 292 297 295 293 295 294 292 290 288 287 285 278 282 281 280 283 287 289 289 291 293 294
305 306 305 315 307 311 310 302 284 276 287 283 286 291 291 288 290 292 291 290 288 286 285 289 289 292 294 291 291 291 288 279 278 278 278 279 278 284 286 288 290 292 292 294 296
304 305 306 314 314 311 305 292 273 281 284 288 289 290 286 289 288 289 289 288 291 289 286 283 281 288 292 292 288 288 287 278 275 275 275 280 278 284 287 290 291 292 294 295 295
303 300 307 312 314 310 297 283 281 285 287 286 288 285 284 289 287 287 287 288 290 291 286 284 284 290 291 292 292 287 285 286 279 271 276 278 280 286 287 288 290 292 294 294 295
295 294 301 313 313 305 292 285 285 290 290 290 283 286 283 286 284 285 286 291 290 293 294 288 282 288 290 291 290 288 290 282 281 274 272 275 276 280 284 287 290 291 293 293 294
292 291 299 309 310 297 286 286 288 291 293 288 285 285 285 286 285 285 286 288 293 291 293 289 288 285 288 286 286 285 283 284 284 281 275 272 277 284 287 289 291 292 293 293 293
288 284 298 302 293 292 288 288 293 290 292 290 290 287 287 288 284 285 285 287 295 292 288 291 287 282 284 288 289 286 285 285 282 278 278 278 279 285 285 288 291 291 293 293 294
285 285 296 297 285 285 291 291 293 290 290 289 288 289 291 289 284 286 287 293 294 291 290 291 285 279 282 285 287 285 286 286 285 282 279 277 279 287 286 286 290 293 292 293 293
286 283 286 293 292 290 287 288 289 294 292 291 289 290 289 288 288 286 287 291 292 294 296 295 287 284 281 282 285 283 284 284 285 280 279 279 281 284 287 287 289 292 293 293 294
286 283 284 284 287 291 291 289 288 288 293 293 288 290 289 285 286 287 289 289 291 295 293 291 284 286 287 287 287 285 287 285 285 287 283 285 283 287 288 288 291 292 292 292 293
285 284 285 284 289 290 291 287 287 290 291 289 287 288 290 286 288 285 287 288 287 289 291 289 282 285 282 286 286 284 286 286 286 284 284 282 282 287 287 291 291 293 293 293 293
290 289 285 285 288 289 288 288 288 292 292 294 291 290 289 290 292 294 294 293 291 290 289 287 284 280 277 283 284 281 284 286 287 285 287 282 288 286 286 290 291 292 293 294 295

GFSSW_sfc_thetae_093.txt.gz
Theta_e
322 321 322 325 326 325 326 327 326 328 329 328 328 326 326 326 325 316 308 316 317 327 325 315 308 306 307 304 303 299 292 289 291 291 292 297 295 298 301 302 306 310 313 319 325
319 319 319 320 320 325 325 326 325 327 328 327 327 325 324 323 312 308 317 326 325 325 313 307 303 304 302 302 300 296 291 293 296 294 295 297 297 299 301 305 304 307 313 323 325
319 318 318 319 318 324 324 325 325 326 327 326 325 325 324 316 305 305 322 326 324 321 316 313 309 305 301 301 299 295 293 297 297 297 298 298 297 299 300 298 307 308 316 321 324
318 317 318 318 319 320 324 324 324 325 327 325 324 324 322 309 296 309 324 327 323 317 313 310 310 305 302 298 300 292 296 297 299 299 298 297 298 299 299 299 306 314 322 322 323
317 317 317 317 318 320 323 324 324 325 325 324 323 322 313 304 303 317 325 324 313 312 310 307 308 307 303 301 299 296 296 297 297 298 297 298 296 298 297 298 314 318 322 320 322
314 316 317 317 316 320 322 323 324 325 325 323 323 321 308 299 314 320 315 311 311 311 309 310 307 308 303 302 298 298 298 297 296 296 297 297 295 296 296 309 313 318 319 320 320
312 314 315 316 317 320 322 323 324 324 324 323 323 314 306 302 315 315 312 310 313 311 307 310 309 306 303 301 301 298 294 294 294 295 295 297 292 293 295 312 312 313 316 318 319
311 313 315 316 315 319 322 323 324 323 323 323 321 311 303 314 317 315 312 312 314 313 311 311 310 304 301 301 300 294 293 289 293 294 294 294 290 295 299 311 310 311 311 313 315
310 312 314 315 314 317 321 323 322 323 323 322 312 307 299 319 311 314 313 308 311 312 312 312 308 302 302 297 293 294 286 286 290 293 292 291 291 295 296 309 309 310 311 313 314
310 310 313 313 314 316 320 322 322 322 320 315 312 300 306 303 311 312 314 312 308 308 306 305 302 297 296 294 287 289 286 287 289 292 289 289 289 290 293 302 306 308 307 309 312
309 309 312 313 314 314 319 318 310 308 307 301 302 297 302 308 314 311 312 309 308 305 298 301 295 292 294 296 293 289 289 288 289 292 290 290 292 292 291 290 294 296 298 303 308
308 309 311 312 314 314 317 310 309 309 298 304 303 299 303 310 303 307 312 303 301 297 298 296 293 298 298 297 293 291 288 288 289 291 290 288 290 290 290 291 293 295 294 297 299
307 308 310 312 314 312 312 312 313 312 295 298 302 298 300 303 301 302 306 302 299 295 296 293 297 300 297 294 291 292 287 288 289 289 289 286 287 288 290 289 291 292 291 292 295
306 307 310 312 308 311 310 313 314 308 288 290 296 297 300 302 297 307 305 301 296 294 296 295 300 296 295 293 294 289 293 290 288 288 285 286 281 284 288 290 290 291 291 291 292
305 307 308 313 310 307 312 314 306 303 278 291 293 302 299 296 297 300 305 300 293 293 293 291 295 294 292 292 295 291 292 290 289 286 283 282 279 282 284 289 289 291 291 291 291
304 306 308 308 308 313 313 312 304 285 277 286 291 291 294 293 294 298 298 301 300 294 293 291 298 297 296 296 296 293 291 289 288 285 280 283 281 281 282 286 291 292 293 292 292
304 304 305 309 306 312 311 303 284 280 287 283 285 291 291 289 291 294 293 291 290 285 286 289 291 294 297 292 295 291 287 280 279 278 279 279 279 289 284 287 289 293 293 291 293
303 304 305 307 314 311 305 293 279 282 283 287 288 290 287 289 289 291 291 288 291 287 284 284 281 289 294 293 289 288 287 280 275 277 279 279 277 283 286 287 289 289 289 291 293
303 299 302 307 312 310 297 284 284 284 286 286 288 285 285 289 288 288 288 288 290 288 283 282 283 292 292 294 294 289 285 289 280 272 275 278 281 286 285 287 289 290 290 292 294
293 294 301 311 312 304 292 287 283 288 289 290 283 286 282 286 284 285 286 290 289 292 291 286 280 287 288 293 293 290 292 282 281 275 271 275 276 282 283 286 288 289 290 292 294
290 292 299 311 309 297 286 287 286 290 292 287 284 283 285 285 285 285 285 287 292 291 293 286 285 283 288 287 287 287 285 285 286 281 276 272 277 283 287 289 288 291 291 292 293
289 286 297 303 292 293 289 289 292 290 290 289 288 286 286 287 283 285 284 286 294 293 287 289 286 280 284 288 290 290 288 287 283 278 278 278 279 285 285 286 289 290 291 292 293
285 285 296 297 285 285 293 291 290 289 288 287 287 288 289 288 283 286 286 291 293 292 288 289 283 278 283 286 288 286 286 286 285 283 281 278 280 286 286 287 288 291 291 292 293
287 282 288 291 289 289 289 289 287 292 289 289 288 290 289 287 287 285 286 289 291 291 295 294 285 282 281 284 287 283 284 284 285 281 280 280 281 285 287 287 287 290 292 292 293
286 282 284 282 284 289 291 290 287 286 290 290 286 290 289 285 284 284 286 287 289 293 292 291 282 283 286 287 288 286 285 285 284 286 282 283 283 287 288 288 288 291 291 291 292
284 283 285 284 286 289 291 288 287 289 289 287 286 289 290 285 287 283 286 286 288 287 288 288 280 285 280 285 286 286 287 287 287 287 285 282 283 289 287 290 290 291 292 292 293
290 288 286 285 284 287 287 288 288 291 291 291 289 288 287 288 291 292 293 292 290 288 288 285 282 279 278 283 284 280 285 286 287 287 288 281 289 287 288 289 290 291 292 293 293

GFSSW_sfc_thetae_096.txt.gz
Theta_e
323 323 323 323 322 325 326 326 326 328 328 328 329 328 327 326 326 316 309 315 316 326 324 312 308 306 306 303 302 298 292 289 291 290 293 295 295 296 300 308 307 311 311 314 324
322 322 322 322 322 321 326 326 326 327 328 328 328 327 326 326 313 309 318 325 327 326 311 305 303 304 301 301 300 295 291 293 296 293 293 296 296 297 300 304 305 305 315 321 325
320 321 321 321 320 319 320 324 324 326 327 327 328 326 324 316 307 307 322 324 327 321 314 310 307 304 301 300 297 295 293 296 297 296 297 296 294 299 300 299 305 307 314 319 322
319 319 319 318 319 319 318 317 324 325 326 326 326 324 322 310 297 308 324 328 326 315 312 308 308 303 301 299 300 294 297 297 298 297 297 295 297 297 300 300 304 311 319 320 320
317 318 318 318 318 318 319 318 324 324 325 326 325 323 315 304 304 315 325 326 315 311 308 306 306 305 301 300 300 296 297 297 297 296 296 297 295 296 298 299 310 317 320 320 320
314 317 317 318 318 318 317 319 322 323 325 325 325 321 309 300 313 318 318 311 310 308 310 309 308 308 303 301 299 298 299 296 297 295 295 295 292 295 296 310 313 317 318 320 320
313 314 316 317 317 318 317 319 322 323 324 325 324 315 306 304 315 313 312 310 311 311 308 309 308 307 304 301 300 301 298 298 296 295 294 294 290 293 295 310 312 314 316 318 320
312 312 313 315 317 317 317 320 322 323 323 324 322 311 302 314 313 311 312 311 314 314 311 311 311 305 302 302 299 301 298 292 295 295 294 293 290 294 300 309 309 310 312 315 316
310 311 312 315 316 317 317 320 320 322 323 323 312 308 299 318 309 311 311 308 311 312 312 313 309 303 304 299 297 295 293 291 295 295 292 291 290 293 300 307 306 308 308 312 315
310 310 311 314 315 315 316 320 320 322 321 316 312 302 306 303 309 311 313 312 308 308 307 306 303 298 297 298 290 290 292 288 293 293 291 288 290 291 293 305 306 308 308 310 312
309 309 309 313 314 315 315 315 308 308 309 302 302 297 303 309 312 309 311 309 308 305 297 301 297 294 297 301 299 297 295 293 289 293 290 289 291 294 291 292 301 305 307 309 312
309 309 309 312 313 314 313 308 309 311 298 305 302 302 307 309 303 306 311 303 301 294 299 296 294 300 300 300 295 293 292 292 290 291 290 289 289 292 289 291 298 303 304 306 306
308 308 308 310 311 310 308 309 315 311 296 299 300 302 305 307 302 303 307 304 299 295 296 294 297 300 298 296 292 292 291 291 288 290 289 287 288 288 289 289 291 292 296 300 305
306 306 307 310 303 305 305 313 313 309 288 292 295 298 301 304 300 308 307 302 297 295 296 296 300 297 296 294 296 290 295 292 289 288 286 286 283 287 288 290 289 292 290 293 292
305 305 307 310 305 302 310 314 312 306 278 291 294 303 301 297 300 301 305 301 294 295 296 292 296 295 293 294 296 293 294 291 290 286 284 287 280 285 283 287 289 290 290 292 292
304 304 306 307 305 307 314 310 307 285 278 287 293 293 293 293 294 300 299 301 300 294 294 292 297 298 297 297 297 295 292 291 289 287 280 285 282 284 286 285 289 292 293 293 291
304 304 304 307 298 307 312 303 285 282 287 284 287 293 291 290 293 295 293 291 290 285 286 290 292 294 298 293 294 292 289 281 280 279 279 282 280 287 288 287 291 295 295 293 292
302 303 303 304 308 306 306 293 281 284 284 287 291 292 288 290 291 293 291 288 291 287 287 285 283 290 296 294 290 289 290 282 276 276 278 280 279 286 288 288 288 288 289 289 289
302 298 300 303 307 305 298 285 284 285 286 286 290 287 286 288 289 290 290 289 291 289 285 283 284 292 293 295 294 288 286 288 280 274 277 280 282 286 286 287 288 289 289 289 290
293 294 298 308 307 300 293 287 284 288 289 291 285 288 283 286 285 286 288 292 291 291 290 287 281 288 290 294 294 291 293 285 282 275 273 276 277 285 285 286 287 288 290 291 290
293 291 298 306 305 295 285 286 286 291 293 288 284 283 285 284 283 285 287 287 292 290 292 288 285 282 288 288 288 288 287 286 286 280 275 272 277 283 288 289 289 290 292 292 291
289 285 297 303 287 286 288 289 292 290 291 287 287 285 286 287 282 284 284 287 295 293 288 290 285 279 282 286 290 290 287 287 284 278 278 278 278 284 285 285 287 289 290 290 291
285 286 296 299 283 284 291 290 291 289 287 287 286 287 290 287 283 286 285 290 294 292 289 289 283 278 282 286 286 287 287 291 288 283 281 277 280 285 285 286 288 289 291 292 292
287 280 288 290 286 288 288 287 286 292 288 288 287 290 289 286 286 285 286 289 293 293 296 294 284 282 279 280 285 281 288 286 288 282 282 281 281 288 290 287 288 288 291 292 292
286 282 283 282 284 288 292 289 286 285 288 289 285 288 287 283 284 283 285 286 289 294 292 290 281 283 284 285 285 284 285 286 284 286 282 286 284 285 288 289 289 288 291 291 292
284 282 285 283 285 288 290 288 287 287 287 285 286 288 287 284 286 282 285 285 285 286 290 287 280 284 280 283 284 283 285 287 286 286 286 286 284 286 287 290 289 290 291 291 292
289 289 285 284 284 285 287 288 288 290 290 290 289 287 285 287 291 292 293 292 290 289 286 287 282 280 275 282 284 280 284 286 287 286 288 284 288 287 287 288 290 291 291 292 293

GFSSW_sfc_thetae_099.txt.gz
Theta_e
319 322 323 325 324 325 326 327 327 328 328 328 330 328 329 327 327 319 310 316 317 326 325 311 309 308 307 304 306 303 295 292 294 293 296 298 298 300 306 310 311 313 314 319 327
319 321 322 323 323 325 325 326 326 326 327 328 329 328 328 327 317 312 318 325 327 326 313 305 303 304 301 302 302 298 294 296 298 296 296 298 299 299 305 307 308 311 318 323 328
318 320 322 322 323 323 323 325 326 325 326 326 327 327 326 320 309 311 324 325 329 323 314 309 308 305 300 302 300 298 296 299 299 298 298 298 297 301 303 303 307 309 315 321 324
318 319 321 321 322 322 320 322 319 322 326 325 326 326 323 316 299 311 326 327 329 315 312 308 307 301 301 297 300 296 297 297 299 298 297 296 298 299 302 303 306 312 320 321 321
318 319 319 320 320 320 321 320 318 318 324 325 325 324 316 305 306 313 322 327 319 311 308 306 305 303 299 301 298 297 298 298 298 298 297 297 297 298 300 301 309 317 320 320 321
317 318 318 319 319 319 319 320 319 317 322 325 325 321 311 301 314 318 318 314 310 308 307 309 307 309 304 301 299 299 301 299 300 297 298 296 294 297 298 310 312 317 318 320 321
315 316 318 318 318 319 319 320 320 319 318 324 325 318 309 307 316 316 312 309 310 310 307 310 310 309 305 300 301 302 300 303 303 297 297 296 293 294 298 310 311 314 317 319 320
314 315 315 317 318 319 319 318 318 318 320 324 324 314 305 315 313 312 312 311 313 312 310 310 311 305 303 303 301 300 299 296 302 297 296 296 291 296 301 309 309 312 314 318 319
313 313 314 314 317 317 318 318 318 318 322 324 315 310 301 316 309 311 311 308 311 312 313 314 311 304 305 299 297 295 293 292 296 299 295 294 292 295 300 306 306 310 312 315 318
312 311 312 313 315 316 317 317 318 317 320 319 314 303 307 304 308 310 312 312 309 309 308 307 304 300 300 297 290 292 292 293 294 297 292 291 291 294 295 305 304 307 310 313 315
311 311 310 311 314 316 314 311 306 305 310 304 303 301 304 309 311 308 311 309 308 305 298 302 298 294 299 300 300 297 295 293 292 294 295 291 291 295 294 298 302 304 308 311 314
310 310 310 310 314 315 313 304 306 309 300 306 305 305 307 309 301 305 311 302 301 296 299 296 294 300 301 302 299 297 296 295 295 294 293 295 296 295 291 292 297 303 305 308 310
310 310 309 309 312 310 307 306 315 313 300 301 303 304 304 307 301 301 306 303 298 296 297 295 297 302 300 299 297 295 295 294 293 291 291 288 289 293 291 291 291 296 303 306 309
309 309 308 309 305 305 303 311 316 310 288 292 297 302 305 306 300 307 308 303 299 295 295 296 300 298 298 296 299 291 295 293 291 290 287 290 281 292 293 291 289 293 292 299 304
308 307 307 310 302 300 304 313 312 307 278 291 295 307 306 299 301 302 306 301 296 296 296 292 296 296 295 297 299 294 295 292 291 288 288 286 284 289 290 288 290 291 292 295 297
307 306 306 305 305 306 307 313 307 286 277 286 294 294 296 299 298 300 299 302 301 297 294 293 297 299 297 297 299 296 293 291 290 288 281 287 286 286 289 290 291 293 295 295 295
306 305 304 306 299 307 309 305 286 280 286 282 287 294 294 293 294 295 293 292 291 287 288 291 293 294 298 292 294 294 291 282 280 280 280 283 283 290 293 289 292 295 294 296 296
305 304 303 303 306 305 302 290 279 283 284 289 291 292 289 293 293 293 292 290 293 289 289 286 284 291 296 292 289 291 291 283 278 276 278 280 281 287 293 300 299 292 292 292 293
302 299 299 301 304 305 291 283 283 286 287 289 290 287 287 289 292 291 290 291 291 289 286 287 284 292 295 295 294 288 287 289 282 272 275 279 283 288 288 288 288 288 290 292 292
293 294 295 304 305 298 285 282 285 290 291 292 285 288 284 285 288 289 289 291 289 290 291 288 283 289 292 295 294 292 292 284 284 278 274 278 278 285 285 287 288 288 290 292 292
294 290 297 305 303 287 281 285 286 292 295 291 288 285 286 285 285 288 288 288 291 289 289 286 285 284 290 289 288 289 288 288 286 281 277 273 280 284 290 291 289 291 291 292 293
290 284 297 301 286 285 284 287 290 291 295 288 288 287 288 287 285 286 287 286 293 291 286 288 284 282 283 287 294 290 289 288 282 279 278 278 279 286 285 287 288 289 289 292 293
286 286 296 299 282 283 289 289 291 291 289 288 286 288 291 287 284 285 286 291 292 293 289 288 282 275 281 285 285 287 289 290 286 284 281 277 285 285 285 287 288 289 290 292 293
286 281 288 291 288 287 285 286 287 294 288 287 287 291 288 287 286 284 285 287 293 293 295 292 283 280 279 280 285 282 287 289 289 283 283 283 287 290 289 288 288 289 290 291 293
284 282 283 282 283 287 288 287 286 285 289 290 287 289 286 283 283 283 285 286 290 294 292 288 280 282 283 284 284 284 285 287 286 288 285 288 287 289 291 291 288 289 289 291 292
284 283 285 283 285 286 287 285 287 286 285 284 286 289 288 285 286 282 284 284 285 286 286 286 279 283 280 283 285 282 285 287 287 288 289 288 286 288 287 288 289 291 291 291 292
289 289 283 283 284 285 285 286 287 289 288 288 290 288 285 287 289 291 293 291 290 290 289 285 282 276 271 282 284 277 283 285 288 288 288 283 290 287 287 289 289 290 291 292 293

GFSSW_sfc_thetae_102.txt.gz
Theta_e
320 321 321 324 326 327 328 328 328 329 329 329 330 329 329 328 327 321 316 322 322 326 324 315 313 311 309 307 309 307 303 300 301 299 302 307 305 306 312 314 317 319 317 324 332
319 320 321 323 325 326 327 327 327 328 328 328 329 329 328 327 320 315 323 324 327 327 316 314 315 314 305 306 308 305 303 301 304 303 303 306 307 306 309 312 313 315 322 329 330
318 319 320 323 324 324 325 326 325 326 327 328 327 328 327 325 313 313 327 326 329 326 316 314 315 311 304 306 306 305 303 303 301 304 303 304 305 308 308 307 311 313 319 325 327
317 319 319 321 324 323 325 325 325 325 326 327 327 326 325 321 301 318 328 329 329 322 315 311 308 303 302 302 306 302 301 302 302 302 302 302 304 305 308 308 311 317 323 324 324
317 318 319 321 323 323 323 322 324 323 325 326 326 325 320 311 310 318 327 328 324 320 312 309 306 304 301 304 304 303 300 302 301 303 302 302 303 305 306 309 311 319 323 323 324
317 318 319 320 322 322 323 322 320 320 322 325 325 324 315 303 316 319 319 323 321 316 313 310 308 310 304 303 303 306 303 304 303 302 301 301 301 302 306 311 313 319 321 324 325
316 317 318 318 320 321 321 322 322 320 319 324 325 320 311 308 319 322 322 321 316 316 312 312 313 309 307 302 305 305 302 305 305 304 300 301 301 300 306 312 313 317 321 323 323
316 316 317 317 318 319 320 320 320 321 320 319 324 318 306 316 320 317 317 314 315 315 314 314 315 308 306 305 305 302 303 298 304 303 304 303 297 305 305 310 310 315 319 322 323
314 315 316 318 318 318 319 319 319 320 320 320 315 312 304 316 311 316 316 311 312 313 314 315 313 307 304 302 298 299 296 298 300 305 306 301 300 304 303 308 309 313 317 320 322
314 314 315 316 317 317 318 319 318 318 316 316 315 306 306 305 310 312 315 314 310 310 308 308 308 303 302 299 292 294 295 297 298 301 301 303 301 301 306 304 306 310 315 318 320
313 313 314 314 314 316 315 312 305 303 307 302 304 304 306 310 312 309 312 311 310 307 300 304 298 296 299 301 302 303 300 298 301 300 301 301 302 302 306 303 303 307 311 316 319
312 312 312 312 313 315 314 303 304 309 299 305 307 308 308 310 302 306 312 304 303 297 302 299 296 303 303 302 302 300 299 299 298 297 300 302 300 306 308 308 305 304 307 312 317
312 312 311 311 313 312 307 306 315 313 299 300 306 305 304 308 301 302 307 305 301 297 298 296 299 304 303 300 298 299 298 299 297 296 296 291 295 301 305 309 309 304 305 310 314
311 311 311 310 307 307 304 311 315 313 289 292 299 303 305 306 299 307 309 305 300 296 298 298 303 301 300 300 300 292 299 298 293 293 290 295 288 300 302 304 305 302 302 306 311
311 311 310 311 305 302 305 313 313 307 278 294 297 309 307 300 300 301 308 304 297 297 298 296 298 299 297 299 303 295 298 296 294 291 290 291 286 297 302 299 303 306 305 304 307
310 310 309 307 306 307 310 313 305 285 279 286 296 297 298 299 299 302 301 304 306 299 298 296 299 302 301 303 303 297 294 293 291 289 283 291 290 294 299 299 302 305 304 303 304
309 308 307 306 299 308 309 302 283 279 287 283 289 296 295 294 295 297 295 294 293 289 289 293 296 296 301 295 297 296 293 284 282 283 285 288 291 295 302 305 304 304 305 304 304
307 306 305 305 308 309 303 287 277 284 285 289 293 295 291 294 293 295 294 292 296 296 291 288 286 293 297 297 292 292 293 287 281 283 287 286 286 294 300 304 305 301 302 304 304
306 303 300 302 305 306 292 279 282 286 288 289 293 289 289 292 292 293 293 293 296 298 291 288 287 294 297 297 297 290 289 292 286 279 283 288 291 295 297 297 295 299 304 302 301
299 296 295 303 305 299 287 281 284 289 292 293 286 290 286 288 289 291 291 296 295 297 300 294 286 290 293 296 295 295 296 287 288 282 281 288 286 290 295 297 297 296 297 301 304
297 289 299 305 303 292 282 282 287 290 294 292 289 289 289 288 292 291 291 295 297 294 298 296 291 285 291 290 289 290 289 290 290 289 284 283 289 296 295 297 296 297 296 297 299
292 285 299 303 287 286 285 286 290 288 292 294 294 294 291 293 290 290 290 293 298 295 292 292 290 284 285 290 296 295 292 292 288 284 286 285 288 293 292 292 293 295 296 297 297
287 289 297 299 282 284 288 288 290 288 288 292 290 293 295 291 288 289 292 295 298 296 293 292 287 281 282 286 289 290 293 294 293 289 285 285 289 291 293 294 294 295 297 297 297
290 284 289 292 290 287 286 287 287 292 288 291 291 295 292 289 291 287 291 293 297 298 295 295 288 287 284 287 289 286 290 292 292 286 288 289 292 297 298 296 295 295 298 300 298
289 285 286 282 284 288 289 288 286 286 288 291 290 292 290 285 286 288 290 290 295 297 295 294 286 287 287 289 289 290 290 290 289 292 288 291 292 296 299 300 302 299 297 297 298
285 285 286 285 287 287 287 285 286 287 287 287 289 291 292 288 289 287 290 291 290 294 293 291 285 288 284 288 289 287 290 292 292 292 292 293 292 300 299 297 296 296 295 296 298
290 290 289 286 286 285 286 287 287 289 291 292 294 291 290 291 294 296 296 295 294 293 291 289 287 286 282 286 287 283 287 290 291 293 294 289 295 299 297 297 299 300 298 296 298

GFSSW_sfc_thetae_105.txt.gz
Theta_e
320 320 321 321 323 325 327 329 329 329 329 329 330 330 330 328 327 323 317 323 323 328 324 320 321 319 313 310 311 312 303 301 303 304 305 310 309 311 315 314 317 320 317 325 333
320 320 321 322 323 325 327 327 327 328 329 328 329 329 329 327 322 318 326 325 327 329 320 320 316 318 313 307 310 307 304 304 307 307 305 309 309 309 310 312 313 316 322 330 330
319 320 320 321 322 325 326 327 326 327 328 327 327 328 327 327 315 315 330 328 328 327 322 321 320 317 312 306 308 308 304 308 305 307 306 306 309 311 309 308 311 312 319 327 327
317 319 321 321 322 324 325 326 326 326 326 326 326 326 325 322 302 319 330 330 330 325 319 316 316 306 301 303 308 304 309 308 304 304 305 304 308 307 309 310 312 315 321 326 324
317 318 320 320 321 324 325 325 325 325 325 326 325 325 322 311 311 320 328 328 325 323 315 314 313 310 303 305 309 306 306 304 304 305 305 304 304 305 307 313 313 317 322 324 325
317 317 318 319 320 322 324 324 324 324 325 325 324 324 316 304 321 323 323 324 323 321 315 315 314 317 309 305 305 308 308 304 304 306 303 304 305 304 308 312 312 318 321 324 325
316 317 318 318 320 322 323 323 323 322 324 325 325 320 311 309 322 322 320 322 323 321 315 316 316 314 312 305 308 307 304 305 304 308 307 305 304 301 308 310 311 315 319 322 325
316 316 317 318 319 321 321 321 322 320 321 322 324 317 306 320 323 320 321 321 323 323 319 319 316 311 308 308 304 302 302 298 305 306 307 306 301 308 310 308 309 312 316 320 323
315 315 317 317 318 319 320 320 320 321 320 320 315 312 304 318 314 320 321 316 316 317 316 316 313 308 306 301 300 301 296 298 301 307 305 305 302 310 307 306 307 310 314 317 321
314 315 316 317 317 317 318 318 318 318 318 317 314 304 307 306 313 317 319 317 312 312 309 308 307 304 302 301 293 296 296 298 298 304 303 303 303 308 309 307 307 308 311 315 318
314 315 316 316 317 318 316 312 304 304 307 302 302 302 305 312 316 313 315 313 312 309 300 303 297 297 301 301 303 302 299 298 301 303 303 302 302 306 310 311 309 307 308 310 316
314 315 315 316 317 317 315 305 306 308 298 306 306 307 310 312 304 308 313 305 304 298 303 299 294 301 305 305 303 300 299 299 301 301 302 302 302 306 308 310 312 310 310 309 311
313 314 314 315 315 314 309 307 313 313 299 301 305 304 306 308 303 303 308 306 302 299 300 296 299 303 302 301 299 301 299 300 299 299 300 299 299 302 307 309 312 313 314 311 310
313 313 313 313 307 309 304 312 314 313 290 292 298 302 306 306 300 310 311 306 302 298 300 298 302 301 299 298 301 296 303 303 297 297 292 300 290 301 305 307 309 312 313 314 310
312 312 312 312 305 303 307 312 313 307 276 295 297 310 307 300 301 302 311 304 298 299 300 295 298 298 299 299 302 298 303 301 298 294 292 292 288 298 303 302 306 308 312 314 312
311 312 311 309 309 308 311 312 308 285 278 289 298 298 298 299 299 302 302 305 306 300 300 299 303 302 300 303 304 300 296 295 292 291 286 294 292 294 299 302 306 308 310 313 312
311 311 309 308 301 311 312 304 283 278 288 286 290 296 295 294 295 297 295 295 292 289 290 296 298 300 303 298 300 299 294 286 284 285 286 293 292 295 302 306 307 308 309 311 313
310 310 307 306 309 310 306 289 276 284 286 289 290 295 291 294 294 295 293 292 298 297 292 289 285 296 302 299 292 295 296 289 281 283 287 290 288 294 303 306 306 308 308 307 310
309 307 304 306 309 310 295 280 281 285 291 288 289 289 290 293 292 293 292 292 296 299 291 289 288 296 300 300 299 291 291 298 288 282 286 290 294 298 301 300 302 302 304 308 306
301 298 298 306 308 303 288 282 284 290 289 289 285 290 286 288 289 290 290 296 297 301 301 295 286 291 294 298 297 297 298 288 290 283 282 288 290 292 298 300 302 302 302 304 305
298 290 299 305 305 293 282 283 286 290 290 286 289 286 290 288 290 290 291 296 300 299 300 298 292 286 292 291 290 292 291 294 294 292 286 285 290 300 298 295 296 298 299 300 300
297 286 301 305 287 288 285 287 290 288 292 288 286 290 291 292 291 291 290 297 302 301 294 297 293 284 287 291 297 297 294 294 288 286 289 288 289 295 296 297 297 297 298 299 300
290 289 299 300 283 283 288 286 289 288 289 287 287 293 296 292 289 293 294 301 302 299 296 295 289 280 282 287 291 292 295 296 295 291 288 286 289 299 300 296 297 297 298 302 301
294 283 290 292 293 287 285 285 285 291 290 289 287 287 294 292 295 292 292 299 301 299 298 297 292 289 284 288 290 287 292 294 294 288 289 289 293 294 296 296 297 299 303 302 303
295 287 287 282 284 288 288 287 285 285 291 289 287 287 292 286 289 290 291 293 296 297 295 295 287 290 292 294 293 292 292 292 291 293 290 293 293 297 300 301 302 304 304 302 301
287 286 287 287 289 286 288 286 285 286 287 286 285 289 294 290 292 290 292 293 292 294 293 295 287 288 286 291 293 290 292 293 294 294 294 294 294 300 302 303 300 301 302 301 300
292 292 293 287 287 285 285 287 287 290 290 292 290 289 293 294 298 299 297 297 297 294 293 291 289 287 283 289 288 284 290 293 293 295 295 291 296 300 299 300 300 301 302 302 301

GFSSW_sfc_thetae_108.txt.gz
Theta_e
322 321 322 323 323 324 326 329 329 329 330 330 330 330 330 328 328 323 317 323 325 327 324 326 324 317 317 309 310 309 301 298 301 302 302 307 305 307 310 311 310 314 316 323 330
321 321 321 322 321 323 325 328 328 329 329 329 329 329 329 327 322 318 328 331 329 327 319 320 318 317 312 307 307 305 301 302 305 303 301 306 305 307 305 307 307 312 321 328 329
319 320 320 320 321 323 325 326 327 327 328 328 328 328 328 326 315 314 331 331 330 327 320 319 322 319 312 312 307 305 300 307 303 304 304 305 304 307 304 303 308 310 319 324 327
319 319 320 321 322 322 323 326 326 326 327 327 327 327 326 322 300 318 331 331 331 324 319 316 317 311 306 305 306 300 306 308 306 305 304 302 305 303 304 304 307 310 322 323 322
318 318 319 320 321 322 323 325 325 326 326 325 326 325 321 310 310 320 329 330 325 321 316 312 311 310 303 305 307 303 305 305 304 303 303 304 301 300 301 306 308 316 321 322 322
317 317 317 319 321 321 323 325 325 324 325 325 325 324 314 303 321 323 325 325 321 319 316 314 311 314 310 307 305 308 307 303 302 303 303 303 303 301 302 305 307 316 316 321 322
317 317 318 319 320 321 321 323 324 324 324 325 325 319 311 308 321 322 323 322 322 320 315 315 315 312 312 307 310 308 303 304 300 302 304 306 304 304 303 306 305 310 315 318 321
316 316 317 318 319 319 321 321 322 322 322 324 324 317 306 319 321 320 319 320 323 322 319 318 316 311 308 308 305 300 300 295 301 302 305 305 297 307 309 301 303 306 310 316 320
315 316 316 317 317 318 320 320 320 320 321 322 316 311 303 319 313 319 318 316 319 320 320 316 314 307 305 301 296 298 293 294 298 304 302 302 298 306 311 303 300 303 305 313 317
315 315 316 317 317 317 319 319 319 319 318 317 314 305 307 305 314 317 320 319 313 313 310 308 305 301 302 298 290 293 294 297 295 301 301 299 299 304 306 302 301 301 302 305 313
314 315 316 316 316 318 316 311 304 302 307 302 303 302 306 312 317 313 317 314 312 308 300 304 298 294 297 301 301 299 297 296 298 303 300 298 300 302 305 305 304 303 302 302 307
314 315 316 316 316 317 314 304 304 307 297 305 305 306 309 311 304 309 316 306 304 298 302 299 293 299 302 303 301 300 298 296 299 299 299 299 299 303 304 305 307 308 307 303 304
313 314 315 315 316 313 309 307 313 313 297 299 304 303 305 308 303 304 310 306 302 298 299 295 297 301 300 299 298 299 296 296 296 297 298 295 295 299 304 306 307 309 309 309 305
313 314 315 315 308 308 305 312 314 314 289 292 297 301 305 306 299 310 311 306 301 297 299 298 301 299 298 296 301 295 302 301 297 295 290 296 288 296 302 302 305 307 308 310 310
313 314 314 313 304 303 307 312 314 306 275 292 297 308 305 300 301 302 310 306 299 297 299 295 296 296 295 296 301 296 303 300 298 294 292 292 289 292 300 299 303 307 309 310 311
313 313 312 309 307 307 311 312 307 284 273 287 296 296 297 298 299 303 303 307 306 300 300 298 301 300 299 300 302 300 296 295 293 292 286 292 290 291 295 299 301 304 307 307 311
312 312 309 308 301 310 311 303 283 277 288 284 290 295 294 292 294 297 297 296 292 289 290 295 296 299 302 297 299 298 294 285 284 284 285 292 290 293 298 301 301 302 304 306 307
311 310 308 308 310 309 305 289 276 281 283 290 290 293 289 293 292 293 293 292 296 295 291 287 285 296 300 299 293 295 294 284 279 279 281 285 284 291 302 304 303 303 303 304 301
310 305 304 307 310 308 294 279 277 283 288 288 288 284 288 292 293 292 290 287 296 297 289 289 288 298 299 301 299 294 291 295 285 277 280 285 289 295 297 297 298 298 298 300 302
301 299 299 307 308 301 287 282 283 289 291 290 283 286 285 289 288 290 290 293 291 299 300 293 285 293 295 299 299 296 297 287 286 277 276 283 284 287 291 294 296 296 296 297 298
298 291 300 307 305 293 281 283 287 292 291 287 286 286 287 287 290 288 290 294 294 297 300 296 291 286 293 291 290 292 291 291 291 287 281 278 283 293 293 290 292 293 294 293 293
295 285 300 303 287 287 282 286 290 289 291 288 287 286 286 288 288 290 290 293 299 298 294 297 292 284 288 290 294 295 293 292 286 283 285 283 283 290 291 291 293 293 295 294 293
287 288 300 298 280 281 287 286 288 286 287 287 285 288 289 286 285 291 292 298 300 299 296 296 288 281 282 288 291 291 293 295 293 288 284 281 284 292 291 291 293 293 294 296 296
291 282 288 292 290 284 282 283 284 290 288 289 287 289 286 284 287 287 292 297 300 300 299 298 290 287 283 286 290 288 291 293 293 284 285 286 287 289 292 292 292 293 294 297 297
293 284 284 280 282 286 285 284 283 282 289 290 286 286 284 281 284 285 294 295 298 300 298 295 286 289 289 292 291 290 291 291 291 292 287 289 290 293 293 293 295 297 298 297 297
288 285 286 284 286 285 286 282 283 284 287 285 285 287 287 284 286 284 293 294 293 293 294 295 285 287 284 291 291 289 292 292 293 293 292 292 290 296 297 296 295 296 298 298 298
292 294 288 286 283 283 283 285 285 288 289 290 288 287 286 287 291 292 296 298 296 294 292 291 285 284 282 288 288 284 289 291 292 294 294 289 294 295 295 296 295 295 297 297 297

GFSSW_sfc_thetae_111.txt.gz
Theta_e
323 323 323 323 324 325 326 328 328 329 330 330 331 330 330 329 327 322 315 323 325 328 326 323 320 315 316 308 311 311 297 297 300 299 299 303 302 306 308 310 311 314 315 320 327
322 322 323 323 323 324 325 327 327 327 330 329 329 329 329 328 320 316 327 331 329 327 318 318 315 314 306 308 306 307 300 301 307 298 297 303 302 305 305 306 307 316 322 325 326
321 322 322 322 322 322 324 326 326 327 328 328 328 328 327 326 314 314 331 332 330 326 319 317 320 316 308 307 306 306 301 305 302 303 302 303 302 304 303 301 307 312 319 323 322
321 321 321 321 322 322 323 325 326 327 326 327 328 327 325 320 299 317 330 332 331 322 318 314 314 307 303 302 307 299 307 308 307 304 303 301 301 301 302 302 306 319 323 323 322
320 319 319 320 321 321 322 323 325 326 326 326 327 326 320 310 308 319 327 331 325 320 314 310 312 306 301 304 307 304 306 306 305 303 302 302 299 298 298 302 308 322 323 320 321
319 318 318 319 320 322 322 323 325 325 325 325 325 325 312 302 318 326 326 323 321 317 314 311 309 311 305 303 305 309 308 306 302 301 302 301 301 301 300 303 313 321 318 318 319
318 318 318 319 319 321 322 322 324 324 325 325 325 320 311 307 318 323 325 322 320 318 313 314 312 308 308 304 307 307 303 305 300 299 300 303 299 302 302 304 309 312 317 318 319
318 317 317 318 319 320 321 321 323 323 323 323 324 316 306 318 317 318 321 320 322 320 318 316 313 307 305 305 302 300 299 296 304 298 300 302 295 305 308 302 302 307 310 317 319
317 316 316 318 318 319 319 320 320 322 322 322 314 310 303 319 312 316 317 316 318 319 318 316 311 304 302 297 293 293 288 291 295 299 299 300 297 305 308 303 300 300 305 313 317
316 316 316 317 318 318 318 320 320 320 317 315 313 303 307 306 312 315 315 318 314 313 310 308 302 297 297 294 288 288 290 292 293 298 298 297 298 301 304 301 299 299 300 307 315
316 316 316 317 317 318 315 310 304 302 307 299 302 301 304 310 315 312 315 314 310 307 299 304 297 293 295 297 297 295 293 294 296 300 297 295 295 298 302 299 298 298 299 300 311
315 316 316 317 317 318 312 301 302 303 297 305 305 305 308 309 304 308 315 306 304 298 301 298 294 298 299 300 299 297 293 292 297 298 297 296 296 301 300 301 302 302 303 301 301
315 315 316 316 316 312 306 304 309 306 295 299 302 303 303 306 300 303 309 305 302 298 298 294 297 300 298 296 296 296 294 294 293 295 295 294 293 296 300 302 304 305 306 307 304
314 314 315 315 307 306 304 310 310 309 283 290 295 300 304 303 299 307 310 304 300 297 298 297 300 298 296 295 297 292 299 299 295 292 288 295 287 295 298 300 303 305 305 307 307
313 314 314 313 302 302 306 311 310 302 274 288 295 306 304 297 298 300 309 304 296 296 299 295 297 295 293 295 298 294 301 298 295 291 292 292 289 291 298 296 299 304 306 307 308
313 313 313 307 305 306 310 311 304 284 273 283 295 294 295 296 296 301 301 304 305 298 297 297 302 299 297 299 299 299 295 294 294 293 286 292 290 290 294 296 300 304 305 306 308
312 312 309 306 299 308 309 303 285 276 283 285 289 294 292 291 293 295 296 295 291 289 289 294 295 300 299 295 297 297 293 285 285 284 283 292 288 293 297 299 301 301 301 302 303
312 312 308 304 309 309 304 290 276 274 275 291 291 291 289 291 291 292 291 289 295 292 288 287 285 295 300 295 293 294 294 284 279 280 283 286 284 291 300 304 304 302 301 302 302
311 305 303 304 309 307 294 282 277 278 286 288 288 287 287 290 290 291 289 288 292 294 287 286 287 297 298 298 297 291 291 295 284 273 278 283 287 293 296 299 299 298 297 297 299
301 300 299 306 308 301 288 280 277 288 289 287 277 282 280 287 288 288 288 290 293 298 298 291 286 294 296 299 298 295 298 288 287 274 274 280 282 286 290 294 296 295 295 296 296
300 293 301 308 305 293 282 281 284 290 290 285 283 283 282 286 288 288 288 289 293 294 299 296 291 288 293 293 292 291 292 291 291 285 279 276 281 291 293 293 292 292 292 291 291
293 285 301 305 288 285 282 284 290 288 289 286 286 285 285 286 283 288 288 290 295 297 294 297 292 285 288 292 294 295 293 293 286 282 283 282 282 292 290 290 292 291 294 293 293
287 288 300 298 279 278 284 285 286 286 286 285 283 286 287 285 281 286 288 294 296 295 294 296 286 284 284 288 291 292 293 295 291 287 284 280 282 291 288 289 290 292 293 294 294
286 282 287 291 284 283 279 281 281 287 286 287 285 287 284 283 286 283 284 289 295 296 298 298 288 286 283 287 291 289 291 294 293 285 285 286 286 288 288 290 290 292 293 294 295
286 281 281 281 277 282 283 282 281 279 286 287 284 285 283 277 283 283 286 288 292 296 296 295 285 288 290 291 292 291 291 291 290 291 286 289 288 291 292 290 292 291 292 296 296
283 282 284 276 283 282 283 277 281 282 283 282 281 285 285 282 283 279 286 288 288 295 296 296 286 289 287 290 291 289 291 292 292 293 292 292 289 294 296 294 293 295 296 296 297
288 289 284 284 279 280 280 280 281 284 285 287 286 285 284 286 288 289 291 291 291 287 287 293 287 286 284 288 289 284 289 291 292 294 293 289 293 294 293 295 294 296 297 296 296

GFSSW_sfc_thetae_114.txt.gz
Theta_e
324 324 324 325 326 326 327 328 328 330 330 330 330 330 330 330 327 321 314 322 323 328 326 321 318 315 314 306 310 308 297 297 300 296 297 301 300 305 307 309 313 316 315 318 325
323 323 323 324 324 325 325 328 327 328 329 329 329 329 329 327 319 315 325 331 330 327 320 317 311 313 304 304 305 303 296 300 306 298 295 301 300 304 305 305 308 314 320 322 324
322 322 323 323 323 324 325 326 327 327 327 329 329 328 327 325 312 312 330 333 330 324 318 317 318 314 306 305 303 304 300 305 303 302 300 301 300 303 304 302 308 312 317 320 321
321 321 322 322 322 323 324 325 326 326 327 327 328 327 325 318 298 315 330 333 331 321 317 316 313 306 304 299 304 299 307 309 310 305 302 299 299 299 301 302 306 316 321 321 320
320 320 321 321 322 322 322 323 325 325 326 326 326 326 319 311 307 318 325 331 323 317 313 310 310 305 302 304 305 300 304 310 312 306 301 301 298 298 297 300 310 321 321 320 321
320 320 319 320 321 322 322 323 323 325 325 326 326 324 314 303 317 326 326 324 320 316 313 311 312 310 304 304 303 306 306 307 307 302 301 299 299 300 299 303 316 320 318 319 320
319 319 319 319 320 321 321 322 322 324 325 325 326 320 311 306 317 325 324 320 320 316 312 313 311 308 306 301 307 306 302 305 307 301 298 302 297 299 300 309 314 315 315 317 319
317 318 318 318 319 320 320 321 322 323 324 324 324 316 306 317 317 322 321 319 320 319 316 315 313 306 304 305 301 300 297 292 300 300 300 299 294 302 305 301 308 311 312 315 317
317 317 317 317 318 319 319 319 321 323 323 322 315 310 303 318 311 316 319 315 317 318 317 316 311 303 301 296 291 292 288 290 296 300 298 299 296 302 304 304 300 304 309 314 316
316 316 317 317 317 319 318 318 319 319 316 315 314 303 307 305 311 314 315 317 313 312 310 307 301 297 295 292 287 286 287 290 292 297 296 296 296 299 302 302 301 298 301 309 315
316 316 316 317 317 319 316 310 303 301 307 300 300 300 304 310 313 310 313 312 309 305 300 304 297 294 295 295 295 293 291 291 293 299 294 295 297 297 301 299 298 297 297 300 311
315 316 316 316 317 318 311 301 300 301 297 303 304 304 307 309 303 307 313 304 302 297 300 298 295 298 299 298 296 294 290 290 295 297 295 294 294 298 298 298 299 299 298 298 299
315 315 315 316 316 313 306 302 308 307 295 298 302 302 303 305 299 303 309 305 301 297 298 294 296 301 297 296 294 294 292 291 292 294 294 291 292 295 298 300 301 302 303 302 302
315 315 315 315 308 307 304 307 308 303 286 290 295 299 302 303 296 306 310 305 301 297 298 297 299 298 295 294 295 290 297 297 295 292 286 293 286 293 297 299 300 303 303 304 305
314 315 315 313 304 302 306 309 308 298 271 289 293 305 303 296 297 300 307 302 296 297 298 294 296 296 294 294 297 292 298 297 295 292 291 291 288 290 295 295 298 302 305 306 307
313 314 313 307 305 306 310 307 302 283 269 286 294 294 294 295 295 300 300 303 301 296 296 296 302 299 297 298 298 298 295 293 290 292 286 290 289 288 293 296 298 301 303 305 305
313 313 309 306 299 309 309 301 284 277 281 285 289 293 292 291 292 294 295 295 291 288 288 292 294 299 300 295 297 297 292 284 283 283 282 289 287 291 296 298 301 302 302 301 302
313 312 308 304 308 309 304 290 278 274 276 291 291 292 287 290 290 290 291 290 295 290 287 284 281 293 299 296 292 293 292 282 278 278 281 287 285 290 298 303 304 303 301 300 300
312 306 302 306 310 308 296 282 281 278 287 288 290 286 286 289 289 288 288 289 292 294 287 287 287 293 296 299 297 291 289 293 283 273 278 283 286 291 295 297 300 300 299 299 298
304 300 299 308 309 303 290 283 282 287 289 290 283 287 283 287 286 286 287 291 290 294 294 288 284 293 294 297 297 295 296 288 288 276 274 279 281 287 289 294 298 296 296 296 296
301 294 301 308 306 295 284 284 284 291 289 285 282 283 286 286 287 286 287 288 292 292 295 291 288 286 294 292 291 292 291 292 290 283 279 276 281 289 294 296 298 296 294 294 292
293 286 302 305 288 288 283 284 290 287 288 286 286 285 283 286 287 287 285 288 293 294 290 294 289 282 287 293 294 295 292 292 286 283 282 281 283 290 289 291 293 292 292 291 292
289 291 301 300 281 283 285 285 287 286 284 284 284 286 287 284 281 285 289 291 293 295 291 295 288 282 284 288 291 290 293 294 293 286 285 282 284 290 288 286 288 290 292 293 293
290 285 286 290 287 285 283 282 281 287 286 286 284 286 284 284 285 281 284 288 292 293 298 297 288 286 282 285 289 288 291 293 292 286 286 286 288 289 288 288 288 291 292 293 294
285 282 285 281 280 284 284 283 281 279 285 286 284 284 282 275 280 281 284 286 289 293 295 295 287 287 288 289 290 290 291 292 291 291 286 289 289 293 291 289 290 291 292 293 295
282 282 281 282 284 284 285 279 282 282 283 282 281 284 284 279 282 279 284 285 286 291 290 294 286 289 285 289 290 287 291 292 293 293 293 292 288 296 296 292 289 290 291 293 295
286 286 285 283 278 280 278 281 282 284 284 286 285 284 282 285 286 285 287 288 288 287 288 286 285 285 282 286 287 283 288 291 291 294 293 289 294 292 293 292 291 291 292 292 296

GFSSW_sfc_thetae_117.txt.gz
Theta_e
324 325 325 326 326 327 328 328 329 329 330 329 331 330 330 329 326 320 314 321 322 329 326 320 317 314 312 306 307 305 295 294 297 296 297 303 300 304 307 308 313 315 315 316 324
323 324 324 324 325 325 326 327 327 328 329 329 329 329 329 327 320 315 325 331 331 329 319 315 310 312 305 304 304 300 295 297 303 298 294 297 300 304 305 305 306 310 318 320 323
323 323 323 323 324 325 325 325 326 327 328 329 328 329 327 324 312 313 329 332 330 324 317 316 316 312 304 303 302 302 297 301 302 302 299 298 299 301 303 302 307 309 315 318 318
321 322 322 322 323 324 325 324 325 326 326 328 328 328 325 316 299 313 329 332 331 319 315 317 312 306 300 299 302 299 305 306 309 309 306 298 299 298 302 302 305 312 318 319 319
320 321 321 321 322 323 324 324 324 325 326 326 327 326 318 310 307 317 327 331 322 316 312 313 309 305 301 301 302 298 300 307 310 310 302 300 298 297 297 298 310 318 319 319 320
320 319 320 320 321 322 323 323 323 324 326 326 326 324 314 303 316 323 322 323 318 314 311 312 310 309 303 302 300 303 303 305 306 304 300 298 297 301 298 302 313 317 316 318 320
319 319 319 319 320 321 321 322 322 324 325 326 326 320 312 307 317 323 324 320 319 316 311 311 310 307 305 300 306 305 300 303 304 305 301 298 296 298 301 309 312 314 313 315 318
319 318 318 319 320 320 321 321 321 322 323 325 325 316 306 317 319 321 320 317 319 318 316 315 311 305 304 303 301 298 295 291 299 303 303 299 294 300 303 308 309 311 311 313 317
317 317 318 318 318 319 320 320 320 322 323 322 315 311 303 318 312 318 318 314 316 316 316 316 311 302 301 295 291 291 286 288 295 300 299 298 294 301 302 300 302 307 310 313 315
312 317 318 318 318 318 319 320 319 319 315 315 314 304 305 305 310 314 315 316 312 311 309 307 304 298 293 292 285 286 286 289 290 296 294 294 294 298 300 301 301 299 307 311 314
313 313 317 317 317 318 317 309 301 298 306 300 301 299 303 309 313 310 313 311 308 304 299 302 297 294 295 293 293 291 290 290 291 298 293 293 296 300 301 298 299 298 297 302 311
311 316 317 317 317 318 311 300 300 299 296 302 303 304 306 308 303 307 313 303 300 297 301 298 294 298 298 297 294 292 288 288 293 297 293 293 293 296 298 298 299 300 299 298 298
311 314 316 316 316 313 305 301 306 306 294 298 301 303 303 305 299 303 308 303 298 297 297 294 296 301 297 294 293 292 291 289 290 294 292 290 291 295 296 298 299 299 302 302 301
311 308 315 315 310 307 303 306 308 302 282 290 295 300 302 302 296 306 309 303 297 295 296 295 297 298 295 294 295 289 295 295 293 291 285 290 283 290 294 297 298 301 302 301 301
309 308 315 314 306 301 305 307 304 297 272 289 294 304 302 296 297 298 307 303 295 295 295 291 294 295 293 293 296 292 296 295 294 290 289 288 287 288 293 294 296 300 302 303 304
310 306 314 310 307 305 309 307 301 283 269 286 293 294 293 294 293 302 303 304 303 295 293 294 301 298 295 296 297 297 293 292 290 289 283 288 287 287 291 293 296 299 302 304 305
305 306 312 308 301 309 308 300 283 277 281 285 288 292 291 291 291 293 295 294 291 287 288 293 294 299 299 294 295 296 290 284 283 282 279 286 285 290 293 295 297 299 301 303 302
304 312 310 307 309 309 304 290 278 273 277 289 291 291 288 291 289 289 292 290 294 288 286 286 283 293 298 296 292 293 292 284 277 278 280 284 283 288 296 301 302 301 302 300 300
304 309 304 306 309 308 295 281 277 278 283 288 289 286 286 288 289 287 286 288 292 291 284 283 284 292 294 297 296 291 289 292 284 272 276 282 286 291 293 294 298 300 301 300 301
301 301 300 308 309 302 288 282 278 285 289 291 284 287 283 286 284 286 285 289 289 294 292 287 285 290 291 295 296 294 296 287 287 278 274 279 280 285 288 292 296 299 298 298 298
300 293 303 309 307 295 282 279 282 289 289 288 283 284 286 286 285 285 285 285 291 290 294 292 287 283 293 291 290 292 290 291 290 284 278 276 281 288 292 294 295 297 297 296 296
294 286 305 306 290 289 284 283 290 286 287 286 285 283 284 287 284 285 283 286 292 293 288 292 288 279 284 293 296 295 292 292 286 281 283 280 284 290 291 290 291 294 294 293 291
291 294 304 302 283 285 287 285 287 285 286 285 284 286 286 285 282 285 286 290 292 292 289 293 286 280 278 284 291 291 293 293 292 288 284 279 285 291 286 287 289 290 290 291 292
294 286 291 290 286 286 284 282 282 287 285 285 285 286 284 283 284 285 288 288 291 292 296 296 285 282 278 279 285 286 290 292 291 286 286 286 288 291 290 287 288 289 290 291 293
288 285 286 282 281 286 283 283 282 280 285 285 284 284 282 281 280 281 286 286 289 294 294 294 285 286 287 287 287 289 287 289 288 290 286 289 289 293 294 292 291 290 290 291 293
285 286 286 283 286 285 286 282 282 282 282 282 282 283 283 280 283 280 284 284 284 289 290 293 283 287 284 288 288 286 289 290 290 290 289 290 290 297 294 293 289 290 290 291 292
286 286 287 287 285 283 278 283 282 284 284 285 285 284 282 283 285 287 287 287 287 286 286 286 285 282 276 285 284 282 286 288 289 292 293 288 293 295 294 294 294 290 290 291 292